<?xml version="1.0" encoding="UTF-8"?>
<gpx version="1.0" creator="GPSBabel - http://www.gpsbabel.org" xmlns="http://www.topografix.com/GPX/1/0">
  <time>2020-02-25T18:45:59.024Z</time>
  <bounds minlat="17.117037620" minlon="-96.454831180" maxlat="17.151102490" maxlon="-96.410395480"/>
  <trk>
    <name>Llano Grande-Cuajimoloyos Hike.PatJoseMiguel.2020-02-04</name>
    <trkseg>
      <trkpt lat="17.147312750" lon="-96.410636160">
        <ele>3085.200</ele>
        <time>2020-02-04T17:06:07Z</time>
      </trkpt>
      <trkpt lat="17.147290720" lon="-96.410605360">
        <ele>3083.000</ele>
        <time>2020-02-04T17:06:29Z</time>
      </trkpt>
      <trkpt lat="17.147272290" lon="-96.410571320">
        <ele>3082.300</ele>
        <time>2020-02-04T17:06:46Z</time>
      </trkpt>
      <trkpt lat="17.147235410" lon="-96.410571620">
        <ele>3083.500</ele>
        <time>2020-02-04T17:07:20Z</time>
      </trkpt>
      <trkpt lat="17.147237090" lon="-96.410533150">
        <ele>3082.400</ele>
        <time>2020-02-04T17:07:35Z</time>
      </trkpt>
      <trkpt lat="17.147253990" lon="-96.410569210">
        <ele>3083.700</ele>
        <time>2020-02-04T17:07:42Z</time>
      </trkpt>
      <trkpt lat="17.147263760" lon="-96.410526520">
        <ele>3084.800</ele>
        <time>2020-02-04T17:09:01Z</time>
      </trkpt>
      <trkpt lat="17.147284120" lon="-96.410489480">
        <ele>3081.300</ele>
        <time>2020-02-04T17:09:06Z</time>
      </trkpt>
      <trkpt lat="17.147311910" lon="-96.410460900">
        <ele>3078.700</ele>
        <time>2020-02-04T17:09:11Z</time>
      </trkpt>
      <trkpt lat="17.147343290" lon="-96.410479770">
        <ele>3078.300</ele>
        <time>2020-02-04T17:09:17Z</time>
      </trkpt>
      <trkpt lat="17.147388180" lon="-96.410483810">
        <ele>3078.400</ele>
        <time>2020-02-04T17:10:36Z</time>
      </trkpt>
      <trkpt lat="17.147431740" lon="-96.410500940">
        <ele>3079.300</ele>
        <time>2020-02-04T17:10:40Z</time>
      </trkpt>
      <trkpt lat="17.147464500" lon="-96.410521680">
        <ele>3079.300</ele>
        <time>2020-02-04T17:10:44Z</time>
      </trkpt>
      <trkpt lat="17.147504260" lon="-96.410541180">
        <ele>3080.500</ele>
        <time>2020-02-04T17:10:48Z</time>
      </trkpt>
      <trkpt lat="17.147538870" lon="-96.410565800">
        <ele>3080.400</ele>
        <time>2020-02-04T17:10:52Z</time>
      </trkpt>
      <trkpt lat="17.147579670" lon="-96.410583460">
        <ele>3080.800</ele>
        <time>2020-02-04T17:10:56Z</time>
      </trkpt>
      <trkpt lat="17.147616950" lon="-96.410579260">
        <ele>3079.900</ele>
        <time>2020-02-04T17:11:01Z</time>
      </trkpt>
      <trkpt lat="17.147600710" lon="-96.410536470">
        <ele>3080.100</ele>
        <time>2020-02-04T17:11:16Z</time>
      </trkpt>
      <trkpt lat="17.147564440" lon="-96.410510400">
        <ele>3081.500</ele>
        <time>2020-02-04T17:11:20Z</time>
      </trkpt>
      <trkpt lat="17.147530160" lon="-96.410489260">
        <ele>3082.400</ele>
        <time>2020-02-04T17:11:23Z</time>
      </trkpt>
      <trkpt lat="17.147492680" lon="-96.410464490">
        <ele>3081.400</ele>
        <time>2020-02-04T17:11:26Z</time>
      </trkpt>
      <trkpt lat="17.147471760" lon="-96.410427680">
        <ele>3080.900</ele>
        <time>2020-02-04T17:11:30Z</time>
      </trkpt>
      <trkpt lat="17.147446950" lon="-96.410395480">
        <ele>3081.000</ele>
        <time>2020-02-04T17:11:34Z</time>
      </trkpt>
      <trkpt lat="17.147409510" lon="-96.410403370">
        <ele>3078.300</ele>
        <time>2020-02-04T17:11:42Z</time>
      </trkpt>
      <trkpt lat="17.147369290" lon="-96.410406850">
        <ele>3078.100</ele>
        <time>2020-02-04T17:11:47Z</time>
      </trkpt>
      <trkpt lat="17.147382160" lon="-96.410444900">
        <ele>3077.300</ele>
        <time>2020-02-04T17:11:57Z</time>
      </trkpt>
      <trkpt lat="17.147420190" lon="-96.410480350">
        <ele>3077.000</ele>
        <time>2020-02-04T17:12:01Z</time>
      </trkpt>
      <trkpt lat="17.147457660" lon="-96.410495180">
        <ele>3077.300</ele>
        <time>2020-02-04T17:12:04Z</time>
      </trkpt>
      <trkpt lat="17.147490890" lon="-96.410512120">
        <ele>3077.200</ele>
        <time>2020-02-04T17:12:07Z</time>
      </trkpt>
      <trkpt lat="17.147526240" lon="-96.410528390">
        <ele>3076.600</ele>
        <time>2020-02-04T17:12:10Z</time>
      </trkpt>
      <trkpt lat="17.147560010" lon="-96.410542740">
        <ele>3077.200</ele>
        <time>2020-02-04T17:12:13Z</time>
      </trkpt>
      <trkpt lat="17.147595970" lon="-96.410554690">
        <ele>3076.900</ele>
        <time>2020-02-04T17:12:16Z</time>
      </trkpt>
      <trkpt lat="17.147633270" lon="-96.410569450">
        <ele>3076.700</ele>
        <time>2020-02-04T17:12:19Z</time>
      </trkpt>
      <trkpt lat="17.147668180" lon="-96.410580790">
        <ele>3075.600</ele>
        <time>2020-02-04T17:12:22Z</time>
      </trkpt>
      <trkpt lat="17.147706210" lon="-96.410594220">
        <ele>3074.500</ele>
        <time>2020-02-04T17:12:27Z</time>
      </trkpt>
      <trkpt lat="17.147739090" lon="-96.410615640">
        <ele>3074.500</ele>
        <time>2020-02-04T17:12:32Z</time>
      </trkpt>
      <trkpt lat="17.147772300" lon="-96.410637520">
        <ele>3075.900</ele>
        <time>2020-02-04T17:12:36Z</time>
      </trkpt>
      <trkpt lat="17.147812420" lon="-96.410655550">
        <ele>3075.700</ele>
        <time>2020-02-04T17:12:41Z</time>
      </trkpt>
      <trkpt lat="17.147849500" lon="-96.410671570">
        <ele>3076.000</ele>
        <time>2020-02-04T17:12:46Z</time>
      </trkpt>
      <trkpt lat="17.147883230" lon="-96.410690950">
        <ele>3077.000</ele>
        <time>2020-02-04T17:12:51Z</time>
      </trkpt>
      <trkpt lat="17.147917340" lon="-96.410716330">
        <ele>3079.700</ele>
        <time>2020-02-04T17:12:56Z</time>
      </trkpt>
      <trkpt lat="17.147958980" lon="-96.410720410">
        <ele>3078.700</ele>
        <time>2020-02-04T17:13:00Z</time>
      </trkpt>
      <trkpt lat="17.147987880" lon="-96.410744350">
        <ele>3078.800</ele>
        <time>2020-02-04T17:13:17Z</time>
      </trkpt>
      <trkpt lat="17.148027680" lon="-96.410753740">
        <ele>3078.500</ele>
        <time>2020-02-04T17:13:21Z</time>
      </trkpt>
      <trkpt lat="17.148064610" lon="-96.410772030">
        <ele>3078.400</ele>
        <time>2020-02-04T17:13:25Z</time>
      </trkpt>
      <trkpt lat="17.148098430" lon="-96.410801330">
        <ele>3080.600</ele>
        <time>2020-02-04T17:13:29Z</time>
      </trkpt>
      <trkpt lat="17.148136950" lon="-96.410821170">
        <ele>3080.600</ele>
        <time>2020-02-04T17:13:39Z</time>
      </trkpt>
      <trkpt lat="17.148160720" lon="-96.410850250">
        <ele>3079.500</ele>
        <time>2020-02-04T17:13:50Z</time>
      </trkpt>
      <trkpt lat="17.148194950" lon="-96.410866980">
        <ele>3081.000</ele>
        <time>2020-02-04T17:13:54Z</time>
      </trkpt>
      <trkpt lat="17.148226930" lon="-96.410884650">
        <ele>3081.000</ele>
        <time>2020-02-04T17:13:57Z</time>
      </trkpt>
      <trkpt lat="17.148254110" lon="-96.410913320">
        <ele>3082.500</ele>
        <time>2020-02-04T17:14:05Z</time>
      </trkpt>
      <trkpt lat="17.148291100" lon="-96.410946950">
        <ele>3086.600</ele>
        <time>2020-02-04T17:14:11Z</time>
      </trkpt>
      <trkpt lat="17.148325610" lon="-96.410967190">
        <ele>3087.500</ele>
        <time>2020-02-04T17:14:15Z</time>
      </trkpt>
      <trkpt lat="17.148365610" lon="-96.410979800">
        <ele>3087.200</ele>
        <time>2020-02-04T17:14:19Z</time>
      </trkpt>
      <trkpt lat="17.148407240" lon="-96.410999010">
        <ele>3089.300</ele>
        <time>2020-02-04T17:14:22Z</time>
      </trkpt>
      <trkpt lat="17.148444240" lon="-96.411009130">
        <ele>3086.300</ele>
        <time>2020-02-04T17:14:26Z</time>
      </trkpt>
      <trkpt lat="17.148472710" lon="-96.411034110">
        <ele>3088.000</ele>
        <time>2020-02-04T17:14:36Z</time>
      </trkpt>
      <trkpt lat="17.148502220" lon="-96.411057210">
        <ele>3083.900</ele>
        <time>2020-02-04T17:14:48Z</time>
      </trkpt>
      <trkpt lat="17.148534530" lon="-96.411077420">
        <ele>3089.800</ele>
        <time>2020-02-04T17:15:36Z</time>
      </trkpt>
      <trkpt lat="17.148560650" lon="-96.411103630">
        <ele>3090.700</ele>
        <time>2020-02-04T17:15:42Z</time>
      </trkpt>
      <trkpt lat="17.148578080" lon="-96.411136850">
        <ele>3091.400</ele>
        <time>2020-02-04T17:15:48Z</time>
      </trkpt>
      <trkpt lat="17.148609700" lon="-96.411160990">
        <ele>3093.600</ele>
        <time>2020-02-04T17:15:54Z</time>
      </trkpt>
      <trkpt lat="17.148642900" lon="-96.411185180">
        <ele>3095.600</ele>
        <time>2020-02-04T17:16:00Z</time>
      </trkpt>
      <trkpt lat="17.148675820" lon="-96.411214390">
        <ele>3096.400</ele>
        <time>2020-02-04T17:16:04Z</time>
      </trkpt>
      <trkpt lat="17.148709670" lon="-96.411249610">
        <ele>3094.400</ele>
        <time>2020-02-04T17:16:08Z</time>
      </trkpt>
      <trkpt lat="17.148732200" lon="-96.411284130">
        <ele>3094.700</ele>
        <time>2020-02-04T17:16:14Z</time>
      </trkpt>
      <trkpt lat="17.148756460" lon="-96.411313100">
        <ele>3096.400</ele>
        <time>2020-02-04T17:16:20Z</time>
      </trkpt>
      <trkpt lat="17.148785480" lon="-96.411345090">
        <ele>3095.300</ele>
        <time>2020-02-04T17:16:51Z</time>
      </trkpt>
      <trkpt lat="17.148826790" lon="-96.411367420">
        <ele>3094.800</ele>
        <time>2020-02-04T17:16:55Z</time>
      </trkpt>
      <trkpt lat="17.148851340" lon="-96.411397640">
        <ele>3095.200</ele>
        <time>2020-02-04T17:16:59Z</time>
      </trkpt>
      <trkpt lat="17.148882710" lon="-96.411426660">
        <ele>3098.000</ele>
        <time>2020-02-04T17:17:03Z</time>
      </trkpt>
      <trkpt lat="17.148894710" lon="-96.411471550">
        <ele>3097.300</ele>
        <time>2020-02-04T17:17:09Z</time>
      </trkpt>
      <trkpt lat="17.148920760" lon="-96.411506540">
        <ele>3098.300</ele>
        <time>2020-02-04T17:17:15Z</time>
      </trkpt>
      <trkpt lat="17.148945310" lon="-96.411546920">
        <ele>3098.600</ele>
        <time>2020-02-04T17:17:19Z</time>
      </trkpt>
      <trkpt lat="17.148968830" lon="-96.411581510">
        <ele>3097.700</ele>
        <time>2020-02-04T17:17:22Z</time>
      </trkpt>
      <trkpt lat="17.148995180" lon="-96.411612510">
        <ele>3097.000</ele>
        <time>2020-02-04T17:17:25Z</time>
      </trkpt>
      <trkpt lat="17.149028330" lon="-96.411627620">
        <ele>3097.200</ele>
        <time>2020-02-04T17:17:28Z</time>
      </trkpt>
      <trkpt lat="17.149052150" lon="-96.411659810">
        <ele>3096.400</ele>
        <time>2020-02-04T17:17:31Z</time>
      </trkpt>
      <trkpt lat="17.149077390" lon="-96.411690560">
        <ele>3096.200</ele>
        <time>2020-02-04T17:17:34Z</time>
      </trkpt>
      <trkpt lat="17.149102430" lon="-96.411726660">
        <ele>3097.500</ele>
        <time>2020-02-04T17:17:38Z</time>
      </trkpt>
      <trkpt lat="17.149129260" lon="-96.411760770">
        <ele>3095.200</ele>
        <time>2020-02-04T17:17:43Z</time>
      </trkpt>
      <trkpt lat="17.149119930" lon="-96.411798260">
        <ele>3087.700</ele>
        <time>2020-02-04T17:17:54Z</time>
      </trkpt>
      <trkpt lat="17.149099360" lon="-96.411829290">
        <ele>3083.300</ele>
        <time>2020-02-04T17:19:40Z</time>
      </trkpt>
      <trkpt lat="17.149098000" lon="-96.411874430">
        <ele>3084.900</ele>
        <time>2020-02-04T17:19:48Z</time>
      </trkpt>
      <trkpt lat="17.149112970" lon="-96.411917470">
        <ele>3084.300</ele>
        <time>2020-02-04T17:19:52Z</time>
      </trkpt>
      <trkpt lat="17.149133440" lon="-96.411951130">
        <ele>3082.800</ele>
        <time>2020-02-04T17:19:55Z</time>
      </trkpt>
      <trkpt lat="17.149141950" lon="-96.411990340">
        <ele>3084.000</ele>
        <time>2020-02-04T17:20:00Z</time>
      </trkpt>
      <trkpt lat="17.149134170" lon="-96.412032640">
        <ele>3087.100</ele>
        <time>2020-02-04T17:20:05Z</time>
      </trkpt>
      <trkpt lat="17.149134040" lon="-96.412070550">
        <ele>3087.400</ele>
        <time>2020-02-04T17:20:09Z</time>
      </trkpt>
      <trkpt lat="17.149151880" lon="-96.412113420">
        <ele>3087.400</ele>
        <time>2020-02-04T17:20:13Z</time>
      </trkpt>
      <trkpt lat="17.149150810" lon="-96.412154100">
        <ele>3087.300</ele>
        <time>2020-02-04T17:20:17Z</time>
      </trkpt>
      <trkpt lat="17.149183400" lon="-96.412175030">
        <ele>3084.600</ele>
        <time>2020-02-04T17:20:21Z</time>
      </trkpt>
      <trkpt lat="17.149214050" lon="-96.412205510">
        <ele>3086.100</ele>
        <time>2020-02-04T17:20:25Z</time>
      </trkpt>
      <trkpt lat="17.149223320" lon="-96.412243320">
        <ele>3086.900</ele>
        <time>2020-02-04T17:20:28Z</time>
      </trkpt>
      <trkpt lat="17.149242530" lon="-96.412287160">
        <ele>3086.800</ele>
        <time>2020-02-04T17:20:32Z</time>
      </trkpt>
      <trkpt lat="17.149268650" lon="-96.412313940">
        <ele>3085.200</ele>
        <time>2020-02-04T17:20:36Z</time>
      </trkpt>
      <trkpt lat="17.149300120" lon="-96.412337260">
        <ele>3084.800</ele>
        <time>2020-02-04T17:20:40Z</time>
      </trkpt>
      <trkpt lat="17.149315960" lon="-96.412383450">
        <ele>3084.600</ele>
        <time>2020-02-04T17:20:45Z</time>
      </trkpt>
      <trkpt lat="17.149335730" lon="-96.412418450">
        <ele>3084.200</ele>
        <time>2020-02-04T17:20:49Z</time>
      </trkpt>
      <trkpt lat="17.149353800" lon="-96.412453500">
        <ele>3085.600</ele>
        <time>2020-02-04T17:20:53Z</time>
      </trkpt>
      <trkpt lat="17.149393590" lon="-96.412490090">
        <ele>3084.400</ele>
        <time>2020-02-04T17:20:56Z</time>
      </trkpt>
      <trkpt lat="17.149440720" lon="-96.412518360">
        <ele>3083.000</ele>
        <time>2020-02-04T17:20:59Z</time>
      </trkpt>
      <trkpt lat="17.149464570" lon="-96.412556410">
        <ele>3083.400</ele>
        <time>2020-02-04T17:21:03Z</time>
      </trkpt>
      <trkpt lat="17.149492220" lon="-96.412580830">
        <ele>3082.600</ele>
        <time>2020-02-04T17:21:07Z</time>
      </trkpt>
      <trkpt lat="17.149510720" lon="-96.412614920">
        <ele>3083.000</ele>
        <time>2020-02-04T17:21:11Z</time>
      </trkpt>
      <trkpt lat="17.149534200" lon="-96.412650230">
        <ele>3080.100</ele>
        <time>2020-02-04T17:21:17Z</time>
      </trkpt>
      <trkpt lat="17.149549230" lon="-96.412693560">
        <ele>3079.500</ele>
        <time>2020-02-04T17:21:22Z</time>
      </trkpt>
      <trkpt lat="17.149552090" lon="-96.412734320">
        <ele>3083.700</ele>
        <time>2020-02-04T17:21:25Z</time>
      </trkpt>
      <trkpt lat="17.149558160" lon="-96.412777210">
        <ele>3087.600</ele>
        <time>2020-02-04T17:21:30Z</time>
      </trkpt>
      <trkpt lat="17.149562020" lon="-96.412819410">
        <ele>3090.100</ele>
        <time>2020-02-04T17:21:36Z</time>
      </trkpt>
      <trkpt lat="17.149587180" lon="-96.412849880">
        <ele>3088.900</ele>
        <time>2020-02-04T17:21:41Z</time>
      </trkpt>
      <trkpt lat="17.149609460" lon="-96.412880040">
        <ele>3089.500</ele>
        <time>2020-02-04T17:21:45Z</time>
      </trkpt>
      <trkpt lat="17.149643750" lon="-96.412901640">
        <ele>3085.500</ele>
        <time>2020-02-04T17:21:49Z</time>
      </trkpt>
      <trkpt lat="17.149672230" lon="-96.412939470">
        <ele>3083.800</ele>
        <time>2020-02-04T17:21:56Z</time>
      </trkpt>
      <trkpt lat="17.149694670" lon="-96.412969750">
        <ele>3082.800</ele>
        <time>2020-02-04T17:22:00Z</time>
      </trkpt>
      <trkpt lat="17.149713730" lon="-96.413012220">
        <ele>3084.400</ele>
        <time>2020-02-04T17:22:05Z</time>
      </trkpt>
      <trkpt lat="17.149722090" lon="-96.413049590">
        <ele>3084.700</ele>
        <time>2020-02-04T17:22:10Z</time>
      </trkpt>
      <trkpt lat="17.149730900" lon="-96.413091620">
        <ele>3084.500</ele>
        <time>2020-02-04T17:22:17Z</time>
      </trkpt>
      <trkpt lat="17.149716450" lon="-96.413134260">
        <ele>3088.000</ele>
        <time>2020-02-04T17:22:22Z</time>
      </trkpt>
      <trkpt lat="17.149708940" lon="-96.413177440">
        <ele>3086.800</ele>
        <time>2020-02-04T17:22:26Z</time>
      </trkpt>
      <trkpt lat="17.149695130" lon="-96.413215260">
        <ele>3082.000</ele>
        <time>2020-02-04T17:24:22Z</time>
      </trkpt>
      <trkpt lat="17.149682690" lon="-96.413253380">
        <ele>3079.800</ele>
        <time>2020-02-04T17:24:31Z</time>
      </trkpt>
      <trkpt lat="17.149673500" lon="-96.413293510">
        <ele>3078.400</ele>
        <time>2020-02-04T17:24:36Z</time>
      </trkpt>
      <trkpt lat="17.149666870" lon="-96.413334930">
        <ele>3078.700</ele>
        <time>2020-02-04T17:24:41Z</time>
      </trkpt>
      <trkpt lat="17.149644760" lon="-96.413375790">
        <ele>3078.900</ele>
        <time>2020-02-04T17:24:46Z</time>
      </trkpt>
      <trkpt lat="17.149625460" lon="-96.413413950">
        <ele>3080.000</ele>
        <time>2020-02-04T17:24:52Z</time>
      </trkpt>
      <trkpt lat="17.149603690" lon="-96.413444870">
        <ele>3079.200</ele>
        <time>2020-02-04T17:24:56Z</time>
      </trkpt>
      <trkpt lat="17.149593280" lon="-96.413484220">
        <ele>3079.600</ele>
        <time>2020-02-04T17:25:00Z</time>
      </trkpt>
      <trkpt lat="17.149586700" lon="-96.413528820">
        <ele>3078.900</ele>
        <time>2020-02-04T17:25:04Z</time>
      </trkpt>
      <trkpt lat="17.149586740" lon="-96.413571400">
        <ele>3078.800</ele>
        <time>2020-02-04T17:25:08Z</time>
      </trkpt>
      <trkpt lat="17.149574550" lon="-96.413615830">
        <ele>3079.900</ele>
        <time>2020-02-04T17:25:13Z</time>
      </trkpt>
      <trkpt lat="17.149568550" lon="-96.413660240">
        <ele>3080.000</ele>
        <time>2020-02-04T17:25:18Z</time>
      </trkpt>
      <trkpt lat="17.149576940" lon="-96.413703390">
        <ele>3079.700</ele>
        <time>2020-02-04T17:25:24Z</time>
      </trkpt>
      <trkpt lat="17.149587800" lon="-96.413742890">
        <ele>3080.200</ele>
        <time>2020-02-04T17:25:28Z</time>
      </trkpt>
      <trkpt lat="17.149605220" lon="-96.413783340">
        <ele>3079.400</ele>
        <time>2020-02-04T17:25:32Z</time>
      </trkpt>
      <trkpt lat="17.149608520" lon="-96.413825690">
        <ele>3079.700</ele>
        <time>2020-02-04T17:25:36Z</time>
      </trkpt>
      <trkpt lat="17.149606370" lon="-96.413866750">
        <ele>3081.100</ele>
        <time>2020-02-04T17:25:41Z</time>
      </trkpt>
      <trkpt lat="17.149622610" lon="-96.413905000">
        <ele>3082.000</ele>
        <time>2020-02-04T17:25:46Z</time>
      </trkpt>
      <trkpt lat="17.149644400" lon="-96.413939390">
        <ele>3082.000</ele>
        <time>2020-02-04T17:25:50Z</time>
      </trkpt>
      <trkpt lat="17.149676280" lon="-96.413970460">
        <ele>3081.500</ele>
        <time>2020-02-04T17:25:54Z</time>
      </trkpt>
      <trkpt lat="17.149701620" lon="-96.414004970">
        <ele>3080.900</ele>
        <time>2020-02-04T17:25:58Z</time>
      </trkpt>
      <trkpt lat="17.149705590" lon="-96.414046050">
        <ele>3083.700</ele>
        <time>2020-02-04T17:26:02Z</time>
      </trkpt>
      <trkpt lat="17.149716300" lon="-96.414089230">
        <ele>3085.300</ele>
        <time>2020-02-04T17:26:07Z</time>
      </trkpt>
      <trkpt lat="17.149751330" lon="-96.414111150">
        <ele>3084.700</ele>
        <time>2020-02-04T17:26:11Z</time>
      </trkpt>
      <trkpt lat="17.149782580" lon="-96.414135190">
        <ele>3082.700</ele>
        <time>2020-02-04T17:26:16Z</time>
      </trkpt>
      <trkpt lat="17.149820380" lon="-96.414155980">
        <ele>3080.400</ele>
        <time>2020-02-04T17:26:20Z</time>
      </trkpt>
      <trkpt lat="17.149835870" lon="-96.414193050">
        <ele>3083.800</ele>
        <time>2020-02-04T17:26:29Z</time>
      </trkpt>
      <trkpt lat="17.149861710" lon="-96.414229730">
        <ele>3083.900</ele>
        <time>2020-02-04T17:26:34Z</time>
      </trkpt>
      <trkpt lat="17.149868620" lon="-96.414272080">
        <ele>3085.700</ele>
        <time>2020-02-04T17:26:39Z</time>
      </trkpt>
      <trkpt lat="17.149896040" lon="-96.414302930">
        <ele>3085.400</ele>
        <time>2020-02-04T17:26:43Z</time>
      </trkpt>
      <trkpt lat="17.149908340" lon="-96.414338370">
        <ele>3084.900</ele>
        <time>2020-02-04T17:28:10Z</time>
      </trkpt>
      <trkpt lat="17.149939590" lon="-96.414365480">
        <ele>3083.700</ele>
        <time>2020-02-04T17:28:17Z</time>
      </trkpt>
      <trkpt lat="17.149986820" lon="-96.414374430">
        <ele>3081.800</ele>
        <time>2020-02-04T17:28:20Z</time>
      </trkpt>
      <trkpt lat="17.150026740" lon="-96.414386620">
        <ele>3080.500</ele>
        <time>2020-02-04T17:28:23Z</time>
      </trkpt>
      <trkpt lat="17.150066710" lon="-96.414395800">
        <ele>3078.200</ele>
        <time>2020-02-04T17:28:26Z</time>
      </trkpt>
      <trkpt lat="17.150106440" lon="-96.414418840">
        <ele>3077.000</ele>
        <time>2020-02-04T17:28:30Z</time>
      </trkpt>
      <trkpt lat="17.150135950" lon="-96.414444470">
        <ele>3078.300</ele>
        <time>2020-02-04T17:28:43Z</time>
      </trkpt>
      <trkpt lat="17.150167100" lon="-96.414470330">
        <ele>3077.100</ele>
        <time>2020-02-04T17:28:49Z</time>
      </trkpt>
      <trkpt lat="17.150206000" lon="-96.414479240">
        <ele>3073.300</ele>
        <time>2020-02-04T17:29:02Z</time>
      </trkpt>
      <trkpt lat="17.150244200" lon="-96.414493300">
        <ele>3072.600</ele>
        <time>2020-02-04T17:29:07Z</time>
      </trkpt>
      <trkpt lat="17.150271100" lon="-96.414520660">
        <ele>3074.100</ele>
        <time>2020-02-04T17:29:15Z</time>
      </trkpt>
      <trkpt lat="17.150305480" lon="-96.414546050">
        <ele>3075.500</ele>
        <time>2020-02-04T17:29:21Z</time>
      </trkpt>
      <trkpt lat="17.150336450" lon="-96.414572290">
        <ele>3078.200</ele>
        <time>2020-02-04T17:29:29Z</time>
      </trkpt>
      <trkpt lat="17.150342790" lon="-96.414614270">
        <ele>3078.900</ele>
        <time>2020-02-04T17:29:39Z</time>
      </trkpt>
      <trkpt lat="17.150340110" lon="-96.414655600">
        <ele>3081.100</ele>
        <time>2020-02-04T17:29:46Z</time>
      </trkpt>
      <trkpt lat="17.150348250" lon="-96.414692990">
        <ele>3083.400</ele>
        <time>2020-02-04T17:29:54Z</time>
      </trkpt>
      <trkpt lat="17.150326640" lon="-96.414728950">
        <ele>3086.100</ele>
        <time>2020-02-04T17:29:58Z</time>
      </trkpt>
      <trkpt lat="17.150321170" lon="-96.414767300">
        <ele>3088.400</ele>
        <time>2020-02-04T17:30:03Z</time>
      </trkpt>
      <trkpt lat="17.150318050" lon="-96.414807830">
        <ele>3088.400</ele>
        <time>2020-02-04T17:30:08Z</time>
      </trkpt>
      <trkpt lat="17.150341270" lon="-96.414838430">
        <ele>3085.900</ele>
        <time>2020-02-04T17:30:14Z</time>
      </trkpt>
      <trkpt lat="17.150329930" lon="-96.414881310">
        <ele>3083.600</ele>
        <time>2020-02-04T17:31:19Z</time>
      </trkpt>
      <trkpt lat="17.150326720" lon="-96.414923350">
        <ele>3082.900</ele>
        <time>2020-02-04T17:31:23Z</time>
      </trkpt>
      <trkpt lat="17.150350890" lon="-96.414964790">
        <ele>3080.400</ele>
        <time>2020-02-04T17:31:27Z</time>
      </trkpt>
      <trkpt lat="17.150364970" lon="-96.415005020">
        <ele>3079.600</ele>
        <time>2020-02-04T17:31:31Z</time>
      </trkpt>
      <trkpt lat="17.150365470" lon="-96.415042890">
        <ele>3079.900</ele>
        <time>2020-02-04T17:31:40Z</time>
      </trkpt>
      <trkpt lat="17.150329670" lon="-96.415052530">
        <ele>3081.100</ele>
        <time>2020-02-04T17:31:49Z</time>
      </trkpt>
      <trkpt lat="17.150300110" lon="-96.415028560">
        <ele>3082.300</ele>
        <time>2020-02-04T17:32:03Z</time>
      </trkpt>
      <trkpt lat="17.150263490" lon="-96.415014270">
        <ele>3083.100</ele>
        <time>2020-02-04T17:32:10Z</time>
      </trkpt>
      <trkpt lat="17.150221130" lon="-96.415015210">
        <ele>3081.300</ele>
        <time>2020-02-04T17:32:14Z</time>
      </trkpt>
      <trkpt lat="17.150180990" lon="-96.415029840">
        <ele>3080.400</ele>
        <time>2020-02-04T17:32:17Z</time>
      </trkpt>
      <trkpt lat="17.150141950" lon="-96.415049990">
        <ele>3080.500</ele>
        <time>2020-02-04T17:32:21Z</time>
      </trkpt>
      <trkpt lat="17.150107370" lon="-96.415072810">
        <ele>3078.000</ele>
        <time>2020-02-04T17:32:26Z</time>
      </trkpt>
      <trkpt lat="17.150068770" lon="-96.415086350">
        <ele>3077.100</ele>
        <time>2020-02-04T17:32:32Z</time>
      </trkpt>
      <trkpt lat="17.150031860" lon="-96.415098220">
        <ele>3077.000</ele>
        <time>2020-02-04T17:32:37Z</time>
      </trkpt>
      <trkpt lat="17.150001730" lon="-96.415128290">
        <ele>3076.500</ele>
        <time>2020-02-04T17:32:42Z</time>
      </trkpt>
      <trkpt lat="17.149971980" lon="-96.415163690">
        <ele>3076.400</ele>
        <time>2020-02-04T17:32:47Z</time>
      </trkpt>
      <trkpt lat="17.149942070" lon="-96.415187430">
        <ele>3076.200</ele>
        <time>2020-02-04T17:32:51Z</time>
      </trkpt>
      <trkpt lat="17.149911180" lon="-96.415213410">
        <ele>3075.800</ele>
        <time>2020-02-04T17:32:56Z</time>
      </trkpt>
      <trkpt lat="17.149873100" lon="-96.415225510">
        <ele>3077.300</ele>
        <time>2020-02-04T17:33:01Z</time>
      </trkpt>
      <trkpt lat="17.149841300" lon="-96.415254850">
        <ele>3076.800</ele>
        <time>2020-02-04T17:33:06Z</time>
      </trkpt>
      <trkpt lat="17.149808150" lon="-96.415280590">
        <ele>3078.300</ele>
        <time>2020-02-04T17:33:11Z</time>
      </trkpt>
      <trkpt lat="17.149769190" lon="-96.415289070">
        <ele>3079.600</ele>
        <time>2020-02-04T17:33:16Z</time>
      </trkpt>
      <trkpt lat="17.149736920" lon="-96.415311680">
        <ele>3079.800</ele>
        <time>2020-02-04T17:33:22Z</time>
      </trkpt>
      <trkpt lat="17.149703300" lon="-96.415340950">
        <ele>3079.800</ele>
        <time>2020-02-04T17:33:26Z</time>
      </trkpt>
      <trkpt lat="17.149674090" lon="-96.415368770">
        <ele>3081.100</ele>
        <time>2020-02-04T17:33:30Z</time>
      </trkpt>
      <trkpt lat="17.149642730" lon="-96.415396370">
        <ele>3081.200</ele>
        <time>2020-02-04T17:33:34Z</time>
      </trkpt>
      <trkpt lat="17.149612500" lon="-96.415424350">
        <ele>3081.900</ele>
        <time>2020-02-04T17:33:37Z</time>
      </trkpt>
      <trkpt lat="17.149590790" lon="-96.415457820">
        <ele>3082.100</ele>
        <time>2020-02-04T17:33:41Z</time>
      </trkpt>
      <trkpt lat="17.149564590" lon="-96.415487340">
        <ele>3083.700</ele>
        <time>2020-02-04T17:33:45Z</time>
      </trkpt>
      <trkpt lat="17.149537990" lon="-96.415515240">
        <ele>3084.000</ele>
        <time>2020-02-04T17:33:50Z</time>
      </trkpt>
      <trkpt lat="17.149506130" lon="-96.415534050">
        <ele>3083.300</ele>
        <time>2020-02-04T17:33:55Z</time>
      </trkpt>
      <trkpt lat="17.149473410" lon="-96.415556160">
        <ele>3082.000</ele>
        <time>2020-02-04T17:34:02Z</time>
      </trkpt>
      <trkpt lat="17.149449910" lon="-96.415592240">
        <ele>3082.800</ele>
        <time>2020-02-04T17:34:08Z</time>
      </trkpt>
      <trkpt lat="17.149425340" lon="-96.415623850">
        <ele>3084.300</ele>
        <time>2020-02-04T17:34:13Z</time>
      </trkpt>
      <trkpt lat="17.149415530" lon="-96.415665130">
        <ele>3083.900</ele>
        <time>2020-02-04T17:34:18Z</time>
      </trkpt>
      <trkpt lat="17.149388290" lon="-96.415696770">
        <ele>3084.400</ele>
        <time>2020-02-04T17:35:08Z</time>
      </trkpt>
      <trkpt lat="17.149373200" lon="-96.415742200">
        <ele>3083.400</ele>
        <time>2020-02-04T17:35:14Z</time>
      </trkpt>
      <trkpt lat="17.149349490" lon="-96.415771130">
        <ele>3082.100</ele>
        <time>2020-02-04T17:35:19Z</time>
      </trkpt>
      <trkpt lat="17.149315070" lon="-96.415793780">
        <ele>3080.300</ele>
        <time>2020-02-04T17:35:25Z</time>
      </trkpt>
      <trkpt lat="17.149296620" lon="-96.415831770">
        <ele>3079.700</ele>
        <time>2020-02-04T17:35:30Z</time>
      </trkpt>
      <trkpt lat="17.149276190" lon="-96.415863270">
        <ele>3080.400</ele>
        <time>2020-02-04T17:35:34Z</time>
      </trkpt>
      <trkpt lat="17.149249750" lon="-96.415894350">
        <ele>3082.700</ele>
        <time>2020-02-04T17:35:39Z</time>
      </trkpt>
      <trkpt lat="17.149239040" lon="-96.415934230">
        <ele>3082.500</ele>
        <time>2020-02-04T17:35:43Z</time>
      </trkpt>
      <trkpt lat="17.149229300" lon="-96.415974200">
        <ele>3083.700</ele>
        <time>2020-02-04T17:35:50Z</time>
      </trkpt>
      <trkpt lat="17.149222470" lon="-96.416013020">
        <ele>3082.200</ele>
        <time>2020-02-04T17:36:31Z</time>
      </trkpt>
      <trkpt lat="17.149219020" lon="-96.416052420">
        <ele>3082.800</ele>
        <time>2020-02-04T17:36:38Z</time>
      </trkpt>
      <trkpt lat="17.149211580" lon="-96.416090420">
        <ele>3082.100</ele>
        <time>2020-02-04T17:36:45Z</time>
      </trkpt>
      <trkpt lat="17.149219100" lon="-96.416138730">
        <ele>3079.600</ele>
        <time>2020-02-04T17:36:50Z</time>
      </trkpt>
      <trkpt lat="17.149203480" lon="-96.416180620">
        <ele>3080.200</ele>
        <time>2020-02-04T17:37:01Z</time>
      </trkpt>
      <trkpt lat="17.149190270" lon="-96.416215920">
        <ele>3078.800</ele>
        <time>2020-02-04T17:37:08Z</time>
      </trkpt>
      <trkpt lat="17.149154670" lon="-96.416232670">
        <ele>3080.300</ele>
        <time>2020-02-04T17:37:15Z</time>
      </trkpt>
      <trkpt lat="17.149126800" lon="-96.416269300">
        <ele>3082.500</ele>
        <time>2020-02-04T17:37:22Z</time>
      </trkpt>
      <trkpt lat="17.149102500" lon="-96.416304590">
        <ele>3082.500</ele>
        <time>2020-02-04T17:37:27Z</time>
      </trkpt>
      <trkpt lat="17.149071940" lon="-96.416332070">
        <ele>3083.700</ele>
        <time>2020-02-04T17:37:33Z</time>
      </trkpt>
      <trkpt lat="17.149053710" lon="-96.416374000">
        <ele>3082.400</ele>
        <time>2020-02-04T17:37:38Z</time>
      </trkpt>
      <trkpt lat="17.149024930" lon="-96.416402590">
        <ele>3081.900</ele>
        <time>2020-02-04T17:37:42Z</time>
      </trkpt>
      <trkpt lat="17.149005960" lon="-96.416441040">
        <ele>3080.600</ele>
        <time>2020-02-04T17:37:47Z</time>
      </trkpt>
      <trkpt lat="17.148992380" lon="-96.416476830">
        <ele>3079.600</ele>
        <time>2020-02-04T17:37:51Z</time>
      </trkpt>
      <trkpt lat="17.148986970" lon="-96.416516940">
        <ele>3080.500</ele>
        <time>2020-02-04T17:37:56Z</time>
      </trkpt>
      <trkpt lat="17.148990860" lon="-96.416559510">
        <ele>3081.100</ele>
        <time>2020-02-04T17:38:02Z</time>
      </trkpt>
      <trkpt lat="17.149001580" lon="-96.416603990">
        <ele>3081.600</ele>
        <time>2020-02-04T17:38:07Z</time>
      </trkpt>
      <trkpt lat="17.149006330" lon="-96.416647960">
        <ele>3081.300</ele>
        <time>2020-02-04T17:38:14Z</time>
      </trkpt>
      <trkpt lat="17.149004970" lon="-96.416686680">
        <ele>3080.800</ele>
        <time>2020-02-04T17:39:11Z</time>
      </trkpt>
      <trkpt lat="17.149006610" lon="-96.416729170">
        <ele>3081.800</ele>
        <time>2020-02-04T17:39:18Z</time>
      </trkpt>
      <trkpt lat="17.149015690" lon="-96.416771050">
        <ele>3081.400</ele>
        <time>2020-02-04T17:39:25Z</time>
      </trkpt>
      <trkpt lat="17.149016030" lon="-96.416809490">
        <ele>3081.400</ele>
        <time>2020-02-04T17:39:30Z</time>
      </trkpt>
      <trkpt lat="17.149027220" lon="-96.416855470">
        <ele>3081.500</ele>
        <time>2020-02-04T17:39:39Z</time>
      </trkpt>
      <trkpt lat="17.149017480" lon="-96.416892660">
        <ele>3082.000</ele>
        <time>2020-02-04T17:39:43Z</time>
      </trkpt>
      <trkpt lat="17.148996720" lon="-96.416930750">
        <ele>3084.400</ele>
        <time>2020-02-04T17:39:48Z</time>
      </trkpt>
      <trkpt lat="17.148987290" lon="-96.416969100">
        <ele>3084.100</ele>
        <time>2020-02-04T17:39:52Z</time>
      </trkpt>
      <trkpt lat="17.148974600" lon="-96.417009540">
        <ele>3082.900</ele>
        <time>2020-02-04T17:39:57Z</time>
      </trkpt>
      <trkpt lat="17.148960670" lon="-96.417045760">
        <ele>3082.400</ele>
        <time>2020-02-04T17:40:03Z</time>
      </trkpt>
      <trkpt lat="17.148938410" lon="-96.417077010">
        <ele>3082.700</ele>
        <time>2020-02-04T17:40:08Z</time>
      </trkpt>
      <trkpt lat="17.148930820" lon="-96.417115220">
        <ele>3082.000</ele>
        <time>2020-02-04T17:40:12Z</time>
      </trkpt>
      <trkpt lat="17.148911090" lon="-96.417147300">
        <ele>3082.800</ele>
        <time>2020-02-04T17:40:16Z</time>
      </trkpt>
      <trkpt lat="17.148902310" lon="-96.417190010">
        <ele>3082.500</ele>
        <time>2020-02-04T17:40:21Z</time>
      </trkpt>
      <trkpt lat="17.148896540" lon="-96.417230970">
        <ele>3081.800</ele>
        <time>2020-02-04T17:40:25Z</time>
      </trkpt>
      <trkpt lat="17.148870390" lon="-96.417262870">
        <ele>3084.300</ele>
        <time>2020-02-04T17:40:31Z</time>
      </trkpt>
      <trkpt lat="17.148850950" lon="-96.417296210">
        <ele>3085.300</ele>
        <time>2020-02-04T17:40:36Z</time>
      </trkpt>
      <trkpt lat="17.148823840" lon="-96.417322920">
        <ele>3085.500</ele>
        <time>2020-02-04T17:40:42Z</time>
      </trkpt>
      <trkpt lat="17.148811480" lon="-96.417369420">
        <ele>3086.100</ele>
        <time>2020-02-04T17:40:48Z</time>
      </trkpt>
      <trkpt lat="17.148803210" lon="-96.417414570">
        <ele>3085.900</ele>
        <time>2020-02-04T17:40:53Z</time>
      </trkpt>
      <trkpt lat="17.148781260" lon="-96.417447670">
        <ele>3088.600</ele>
        <time>2020-02-04T17:40:58Z</time>
      </trkpt>
      <trkpt lat="17.148769420" lon="-96.417487020">
        <ele>3087.400</ele>
        <time>2020-02-04T17:41:04Z</time>
      </trkpt>
      <trkpt lat="17.148760600" lon="-96.417529420">
        <ele>3086.600</ele>
        <time>2020-02-04T17:41:11Z</time>
      </trkpt>
      <trkpt lat="17.148751450" lon="-96.417575200">
        <ele>3084.500</ele>
        <time>2020-02-04T17:41:16Z</time>
      </trkpt>
      <trkpt lat="17.148750590" lon="-96.417616310">
        <ele>3084.000</ele>
        <time>2020-02-04T17:41:21Z</time>
      </trkpt>
      <trkpt lat="17.148728300" lon="-96.417653910">
        <ele>3086.600</ele>
        <time>2020-02-04T17:41:26Z</time>
      </trkpt>
      <trkpt lat="17.148719070" lon="-96.417692880">
        <ele>3085.800</ele>
        <time>2020-02-04T17:41:30Z</time>
      </trkpt>
      <trkpt lat="17.148710740" lon="-96.417729800">
        <ele>3084.700</ele>
        <time>2020-02-04T17:41:33Z</time>
      </trkpt>
      <trkpt lat="17.148690250" lon="-96.417764710">
        <ele>3084.800</ele>
        <time>2020-02-04T17:41:39Z</time>
      </trkpt>
      <trkpt lat="17.148699300" lon="-96.417802400">
        <ele>3084.600</ele>
        <time>2020-02-04T17:41:44Z</time>
      </trkpt>
      <trkpt lat="17.148696320" lon="-96.417845200">
        <ele>3083.700</ele>
        <time>2020-02-04T17:41:49Z</time>
      </trkpt>
      <trkpt lat="17.148697030" lon="-96.417887770">
        <ele>3082.100</ele>
        <time>2020-02-04T17:41:53Z</time>
      </trkpt>
      <trkpt lat="17.148707860" lon="-96.417933010">
        <ele>3080.400</ele>
        <time>2020-02-04T17:41:57Z</time>
      </trkpt>
      <trkpt lat="17.148703800" lon="-96.417973710">
        <ele>3081.600</ele>
        <time>2020-02-04T17:42:02Z</time>
      </trkpt>
      <trkpt lat="17.148669070" lon="-96.417997250">
        <ele>3085.000</ele>
        <time>2020-02-04T17:42:07Z</time>
      </trkpt>
      <trkpt lat="17.148635650" lon="-96.418017660">
        <ele>3085.900</ele>
        <time>2020-02-04T17:42:13Z</time>
      </trkpt>
      <trkpt lat="17.148627870" lon="-96.418057160">
        <ele>3085.900</ele>
        <time>2020-02-04T17:42:19Z</time>
      </trkpt>
      <trkpt lat="17.148621450" lon="-96.418094450">
        <ele>3083.600</ele>
        <time>2020-02-04T17:42:24Z</time>
      </trkpt>
      <trkpt lat="17.148617690" lon="-96.418149840">
        <ele>3082.300</ele>
        <time>2020-02-04T17:42:27Z</time>
      </trkpt>
      <trkpt lat="17.148616010" lon="-96.418192460">
        <ele>3082.800</ele>
        <time>2020-02-04T17:42:31Z</time>
      </trkpt>
      <trkpt lat="17.148615830" lon="-96.418230200">
        <ele>3081.900</ele>
        <time>2020-02-04T17:42:36Z</time>
      </trkpt>
      <trkpt lat="17.148618880" lon="-96.418269600">
        <ele>3078.500</ele>
        <time>2020-02-04T17:42:40Z</time>
      </trkpt>
      <trkpt lat="17.148614590" lon="-96.418309070">
        <ele>3080.300</ele>
        <time>2020-02-04T17:42:44Z</time>
      </trkpt>
      <trkpt lat="17.148614510" lon="-96.418347880">
        <ele>3079.900</ele>
        <time>2020-02-04T17:42:48Z</time>
      </trkpt>
      <trkpt lat="17.148615870" lon="-96.418388320">
        <ele>3082.600</ele>
        <time>2020-02-04T17:42:54Z</time>
      </trkpt>
      <trkpt lat="17.148594170" lon="-96.418421450">
        <ele>3086.900</ele>
        <time>2020-02-04T17:43:30Z</time>
      </trkpt>
      <trkpt lat="17.148596960" lon="-96.418460660">
        <ele>3086.600</ele>
        <time>2020-02-04T17:43:34Z</time>
      </trkpt>
      <trkpt lat="17.148585480" lon="-96.418496730">
        <ele>3086.400</ele>
        <time>2020-02-04T17:43:38Z</time>
      </trkpt>
      <trkpt lat="17.148589470" lon="-96.418534390">
        <ele>3084.500</ele>
        <time>2020-02-04T17:43:42Z</time>
      </trkpt>
      <trkpt lat="17.148592070" lon="-96.418580930">
        <ele>3083.400</ele>
        <time>2020-02-04T17:43:47Z</time>
      </trkpt>
      <trkpt lat="17.148597520" lon="-96.418624280">
        <ele>3084.800</ele>
        <time>2020-02-04T17:43:53Z</time>
      </trkpt>
      <trkpt lat="17.148596330" lon="-96.418668390">
        <ele>3085.500</ele>
        <time>2020-02-04T17:43:58Z</time>
      </trkpt>
      <trkpt lat="17.148606170" lon="-96.418704960">
        <ele>3085.700</ele>
        <time>2020-02-04T17:44:03Z</time>
      </trkpt>
      <trkpt lat="17.148586850" lon="-96.418738310">
        <ele>3086.800</ele>
        <time>2020-02-04T17:44:09Z</time>
      </trkpt>
      <trkpt lat="17.148583650" lon="-96.418778830">
        <ele>3086.600</ele>
        <time>2020-02-04T17:44:14Z</time>
      </trkpt>
      <trkpt lat="17.148596000" lon="-96.418825300">
        <ele>3085.300</ele>
        <time>2020-02-04T17:44:18Z</time>
      </trkpt>
      <trkpt lat="17.148599670" lon="-96.418867600">
        <ele>3085.000</ele>
        <time>2020-02-04T17:44:22Z</time>
      </trkpt>
      <trkpt lat="17.148608560" lon="-96.418909120">
        <ele>3083.800</ele>
        <time>2020-02-04T17:44:27Z</time>
      </trkpt>
      <trkpt lat="17.148627680" lon="-96.418942670">
        <ele>3083.700</ele>
        <time>2020-02-04T17:44:31Z</time>
      </trkpt>
      <trkpt lat="17.148640780" lon="-96.418982610">
        <ele>3084.100</ele>
        <time>2020-02-04T17:44:36Z</time>
      </trkpt>
      <trkpt lat="17.148649860" lon="-96.419022010">
        <ele>3084.900</ele>
        <time>2020-02-04T17:44:41Z</time>
      </trkpt>
      <trkpt lat="17.148659150" lon="-96.419060240">
        <ele>3085.900</ele>
        <time>2020-02-04T17:44:46Z</time>
      </trkpt>
      <trkpt lat="17.148666600" lon="-96.419099770">
        <ele>3084.800</ele>
        <time>2020-02-04T17:44:52Z</time>
      </trkpt>
      <trkpt lat="17.148650390" lon="-96.419134620">
        <ele>3085.500</ele>
        <time>2020-02-04T17:44:57Z</time>
      </trkpt>
      <trkpt lat="17.148638790" lon="-96.419171500">
        <ele>3086.800</ele>
        <time>2020-02-04T17:45:02Z</time>
      </trkpt>
      <trkpt lat="17.148614370" lon="-96.419203460">
        <ele>3087.900</ele>
        <time>2020-02-04T17:45:08Z</time>
      </trkpt>
      <trkpt lat="17.148589480" lon="-96.419235870">
        <ele>3088.000</ele>
        <time>2020-02-04T17:45:14Z</time>
      </trkpt>
      <trkpt lat="17.148564520" lon="-96.419265830">
        <ele>3088.300</ele>
        <time>2020-02-04T17:45:19Z</time>
      </trkpt>
      <trkpt lat="17.148545100" lon="-96.419307000">
        <ele>3088.600</ele>
        <time>2020-02-04T17:45:26Z</time>
      </trkpt>
      <trkpt lat="17.148525540" lon="-96.419342470">
        <ele>3089.200</ele>
        <time>2020-02-04T17:45:32Z</time>
      </trkpt>
      <trkpt lat="17.148521550" lon="-96.419382430">
        <ele>3086.900</ele>
        <time>2020-02-04T17:45:37Z</time>
      </trkpt>
      <trkpt lat="17.148528180" lon="-96.419426890">
        <ele>3087.000</ele>
        <time>2020-02-04T17:45:41Z</time>
      </trkpt>
      <trkpt lat="17.148520590" lon="-96.419466820">
        <ele>3087.200</ele>
        <time>2020-02-04T17:45:45Z</time>
      </trkpt>
      <trkpt lat="17.148506110" lon="-96.419507900">
        <ele>3085.600</ele>
        <time>2020-02-04T17:45:50Z</time>
      </trkpt>
      <trkpt lat="17.148479590" lon="-96.419543020">
        <ele>3086.000</ele>
        <time>2020-02-04T17:45:58Z</time>
      </trkpt>
      <trkpt lat="17.148464280" lon="-96.419578930">
        <ele>3084.000</ele>
        <time>2020-02-04T17:46:01Z</time>
      </trkpt>
      <trkpt lat="17.148452110" lon="-96.419627710">
        <ele>3081.400</ele>
        <time>2020-02-04T17:46:05Z</time>
      </trkpt>
      <trkpt lat="17.148440800" lon="-96.419671380">
        <ele>3080.800</ele>
        <time>2020-02-04T17:46:09Z</time>
      </trkpt>
      <trkpt lat="17.148414760" lon="-96.419698010">
        <ele>3080.500</ele>
        <time>2020-02-04T17:46:14Z</time>
      </trkpt>
      <trkpt lat="17.148391210" lon="-96.419728270">
        <ele>3080.200</ele>
        <time>2020-02-04T17:46:18Z</time>
      </trkpt>
      <trkpt lat="17.148353930" lon="-96.419745810">
        <ele>3080.600</ele>
        <time>2020-02-04T17:46:23Z</time>
      </trkpt>
      <trkpt lat="17.148316290" lon="-96.419762670">
        <ele>3079.900</ele>
        <time>2020-02-04T17:46:28Z</time>
      </trkpt>
      <trkpt lat="17.148279090" lon="-96.419779620">
        <ele>3081.800</ele>
        <time>2020-02-04T17:46:33Z</time>
      </trkpt>
      <trkpt lat="17.148246520" lon="-96.419799240">
        <ele>3081.600</ele>
        <time>2020-02-04T17:46:38Z</time>
      </trkpt>
      <trkpt lat="17.148224900" lon="-96.419833800">
        <ele>3079.600</ele>
        <time>2020-02-04T17:46:42Z</time>
      </trkpt>
      <trkpt lat="17.148192490" lon="-96.419863310">
        <ele>3080.900</ele>
        <time>2020-02-04T17:46:46Z</time>
      </trkpt>
      <trkpt lat="17.148183100" lon="-96.419900080">
        <ele>3078.300</ele>
        <time>2020-02-04T17:46:50Z</time>
      </trkpt>
      <trkpt lat="17.148168360" lon="-96.419934430">
        <ele>3078.100</ele>
        <time>2020-02-04T17:47:27Z</time>
      </trkpt>
      <trkpt lat="17.148142290" lon="-96.419961510">
        <ele>3080.100</ele>
        <time>2020-02-04T17:47:33Z</time>
      </trkpt>
      <trkpt lat="17.148129930" lon="-96.419999700">
        <ele>3079.600</ele>
        <time>2020-02-04T17:47:39Z</time>
      </trkpt>
      <trkpt lat="17.148108500" lon="-96.420030880">
        <ele>3081.700</ele>
        <time>2020-02-04T17:47:45Z</time>
      </trkpt>
      <trkpt lat="17.148107700" lon="-96.420070020">
        <ele>3078.100</ele>
        <time>2020-02-04T17:48:05Z</time>
      </trkpt>
      <trkpt lat="17.148097460" lon="-96.420110120">
        <ele>3078.100</ele>
        <time>2020-02-04T17:48:10Z</time>
      </trkpt>
      <trkpt lat="17.148086360" lon="-96.420153370">
        <ele>3077.500</ele>
        <time>2020-02-04T17:48:14Z</time>
      </trkpt>
      <trkpt lat="17.148058620" lon="-96.420177630">
        <ele>3078.100</ele>
        <time>2020-02-04T17:48:41Z</time>
      </trkpt>
      <trkpt lat="17.148049200" lon="-96.420220340">
        <ele>3075.500</ele>
        <time>2020-02-04T17:50:04Z</time>
      </trkpt>
      <trkpt lat="17.148026500" lon="-96.420251810">
        <ele>3074.700</ele>
        <time>2020-02-04T17:50:10Z</time>
      </trkpt>
      <trkpt lat="17.147998300" lon="-96.420276700">
        <ele>3076.600</ele>
        <time>2020-02-04T17:50:17Z</time>
      </trkpt>
      <trkpt lat="17.147986560" lon="-96.420313530">
        <ele>3078.500</ele>
        <time>2020-02-04T17:50:24Z</time>
      </trkpt>
      <trkpt lat="17.147984970" lon="-96.420358230">
        <ele>3080.900</ele>
        <time>2020-02-04T17:50:29Z</time>
      </trkpt>
      <trkpt lat="17.147986220" lon="-96.420396510">
        <ele>3080.100</ele>
        <time>2020-02-04T17:50:32Z</time>
      </trkpt>
      <trkpt lat="17.147982800" lon="-96.420445250">
        <ele>3080.100</ele>
        <time>2020-02-04T17:50:36Z</time>
      </trkpt>
      <trkpt lat="17.147975530" lon="-96.420485280">
        <ele>3080.600</ele>
        <time>2020-02-04T17:50:40Z</time>
      </trkpt>
      <trkpt lat="17.147952330" lon="-96.420517570">
        <ele>3081.700</ele>
        <time>2020-02-04T17:50:46Z</time>
      </trkpt>
      <trkpt lat="17.147932530" lon="-96.420555410">
        <ele>3082.600</ele>
        <time>2020-02-04T17:52:07Z</time>
      </trkpt>
      <trkpt lat="17.147918320" lon="-96.420592440">
        <ele>3083.800</ele>
        <time>2020-02-04T17:52:12Z</time>
      </trkpt>
      <trkpt lat="17.147906330" lon="-96.420629960">
        <ele>3085.700</ele>
        <time>2020-02-04T17:52:17Z</time>
      </trkpt>
      <trkpt lat="17.147903180" lon="-96.420670480">
        <ele>3087.500</ele>
        <time>2020-02-04T17:52:25Z</time>
      </trkpt>
      <trkpt lat="17.147901350" lon="-96.420710760">
        <ele>3086.700</ele>
        <time>2020-02-04T17:52:31Z</time>
      </trkpt>
      <trkpt lat="17.147901180" lon="-96.420753130">
        <ele>3086.500</ele>
        <time>2020-02-04T17:52:43Z</time>
      </trkpt>
      <trkpt lat="17.147898520" lon="-96.420795770">
        <ele>3083.500</ele>
        <time>2020-02-04T17:53:09Z</time>
      </trkpt>
      <trkpt lat="17.147898110" lon="-96.420838650">
        <ele>3082.600</ele>
        <time>2020-02-04T17:53:15Z</time>
      </trkpt>
      <trkpt lat="17.147886200" lon="-96.420877540">
        <ele>3081.900</ele>
        <time>2020-02-04T17:53:20Z</time>
      </trkpt>
      <trkpt lat="17.147898650" lon="-96.420921820">
        <ele>3079.600</ele>
        <time>2020-02-04T17:53:24Z</time>
      </trkpt>
      <trkpt lat="17.147920550" lon="-96.420951960">
        <ele>3078.500</ele>
        <time>2020-02-04T17:53:28Z</time>
      </trkpt>
      <trkpt lat="17.147946770" lon="-96.420983920">
        <ele>3076.400</ele>
        <time>2020-02-04T17:53:32Z</time>
      </trkpt>
      <trkpt lat="17.147960170" lon="-96.421024630">
        <ele>3076.700</ele>
        <time>2020-02-04T17:53:37Z</time>
      </trkpt>
      <trkpt lat="17.147945430" lon="-96.421067680">
        <ele>3080.400</ele>
        <time>2020-02-04T17:53:42Z</time>
      </trkpt>
      <trkpt lat="17.147958260" lon="-96.421103530">
        <ele>3080.200</ele>
        <time>2020-02-04T17:53:47Z</time>
      </trkpt>
      <trkpt lat="17.147963040" lon="-96.421146850">
        <ele>3080.100</ele>
        <time>2020-02-04T17:53:53Z</time>
      </trkpt>
      <trkpt lat="17.147977840" lon="-96.421182810">
        <ele>3079.800</ele>
        <time>2020-02-04T17:53:59Z</time>
      </trkpt>
      <trkpt lat="17.147998730" lon="-96.421215270">
        <ele>3075.500</ele>
        <time>2020-02-04T17:54:05Z</time>
      </trkpt>
      <trkpt lat="17.147982080" lon="-96.421249300">
        <ele>3075.400</ele>
        <time>2020-02-04T17:54:11Z</time>
      </trkpt>
      <trkpt lat="17.147985220" lon="-96.421289870">
        <ele>3074.300</ele>
        <time>2020-02-04T17:56:05Z</time>
      </trkpt>
      <trkpt lat="17.147966820" lon="-96.421323320">
        <ele>3074.900</ele>
        <time>2020-02-04T17:56:11Z</time>
      </trkpt>
      <trkpt lat="17.147936950" lon="-96.421355420">
        <ele>3073.600</ele>
        <time>2020-02-04T17:56:17Z</time>
      </trkpt>
      <trkpt lat="17.147902130" lon="-96.421380360">
        <ele>3073.500</ele>
        <time>2020-02-04T17:56:23Z</time>
      </trkpt>
      <trkpt lat="17.147868720" lon="-96.421396980">
        <ele>3074.500</ele>
        <time>2020-02-04T17:56:27Z</time>
      </trkpt>
      <trkpt lat="17.147831460" lon="-96.421416050">
        <ele>3075.900</ele>
        <time>2020-02-04T17:56:33Z</time>
      </trkpt>
      <trkpt lat="17.147802930" lon="-96.421448750">
        <ele>3074.100</ele>
        <time>2020-02-04T17:56:38Z</time>
      </trkpt>
      <trkpt lat="17.147764400" lon="-96.421467030">
        <ele>3077.100</ele>
        <time>2020-02-04T17:56:43Z</time>
      </trkpt>
      <trkpt lat="17.147738870" lon="-96.421499800">
        <ele>3076.000</ele>
        <time>2020-02-04T17:56:47Z</time>
      </trkpt>
      <trkpt lat="17.147719800" lon="-96.421532390">
        <ele>3076.200</ele>
        <time>2020-02-04T17:56:51Z</time>
      </trkpt>
      <trkpt lat="17.147690460" lon="-96.421565180">
        <ele>3077.400</ele>
        <time>2020-02-04T17:56:55Z</time>
      </trkpt>
      <trkpt lat="17.147663860" lon="-96.421599450">
        <ele>3078.400</ele>
        <time>2020-02-04T17:56:59Z</time>
      </trkpt>
      <trkpt lat="17.147645720" lon="-96.421639820">
        <ele>3076.700</ele>
        <time>2020-02-04T17:57:04Z</time>
      </trkpt>
      <trkpt lat="17.147624420" lon="-96.421674480">
        <ele>3076.000</ele>
        <time>2020-02-04T17:57:09Z</time>
      </trkpt>
      <trkpt lat="17.147593790" lon="-96.421707850">
        <ele>3074.800</ele>
        <time>2020-02-04T17:57:13Z</time>
      </trkpt>
      <trkpt lat="17.147566630" lon="-96.421747060">
        <ele>3074.100</ele>
        <time>2020-02-04T17:57:17Z</time>
      </trkpt>
      <trkpt lat="17.147551080" lon="-96.421790000">
        <ele>3072.500</ele>
        <time>2020-02-04T17:57:21Z</time>
      </trkpt>
      <trkpt lat="17.147540930" lon="-96.421834550">
        <ele>3072.300</ele>
        <time>2020-02-04T17:57:26Z</time>
      </trkpt>
      <trkpt lat="17.147533760" lon="-96.421871700">
        <ele>3072.900</ele>
        <time>2020-02-04T17:57:30Z</time>
      </trkpt>
      <trkpt lat="17.147513640" lon="-96.421916140">
        <ele>3074.700</ele>
        <time>2020-02-04T17:57:35Z</time>
      </trkpt>
      <trkpt lat="17.147511490" lon="-96.421958780">
        <ele>3075.000</ele>
        <time>2020-02-04T17:57:39Z</time>
      </trkpt>
      <trkpt lat="17.147500820" lon="-96.421995310">
        <ele>3074.900</ele>
        <time>2020-02-04T17:57:43Z</time>
      </trkpt>
      <trkpt lat="17.147505300" lon="-96.422039890">
        <ele>3075.100</ele>
        <time>2020-02-04T17:57:47Z</time>
      </trkpt>
      <trkpt lat="17.147505460" lon="-96.422081990">
        <ele>3074.600</ele>
        <time>2020-02-04T17:57:51Z</time>
      </trkpt>
      <trkpt lat="17.147500680" lon="-96.422126460">
        <ele>3075.700</ele>
        <time>2020-02-04T17:57:57Z</time>
      </trkpt>
      <trkpt lat="17.147497810" lon="-96.422164780">
        <ele>3076.100</ele>
        <time>2020-02-04T17:58:04Z</time>
      </trkpt>
      <trkpt lat="17.147492250" lon="-96.422210240">
        <ele>3078.000</ele>
        <time>2020-02-04T17:58:10Z</time>
      </trkpt>
      <trkpt lat="17.147490050" lon="-96.422248360">
        <ele>3079.100</ele>
        <time>2020-02-04T17:59:10Z</time>
      </trkpt>
      <trkpt lat="17.147479050" lon="-96.422288950">
        <ele>3078.100</ele>
        <time>2020-02-04T18:00:07Z</time>
      </trkpt>
      <trkpt lat="17.147464050" lon="-96.422323180">
        <ele>3079.300</ele>
        <time>2020-02-04T18:00:12Z</time>
      </trkpt>
      <trkpt lat="17.147443730" lon="-96.422356000">
        <ele>3080.500</ele>
        <time>2020-02-04T18:00:18Z</time>
      </trkpt>
      <trkpt lat="17.147429050" lon="-96.422396600">
        <ele>3082.700</ele>
        <time>2020-02-04T18:00:23Z</time>
      </trkpt>
      <trkpt lat="17.147415560" lon="-96.422437810">
        <ele>3084.200</ele>
        <time>2020-02-04T18:00:29Z</time>
      </trkpt>
      <trkpt lat="17.147395370" lon="-96.422478210">
        <ele>3086.100</ele>
        <time>2020-02-04T18:00:36Z</time>
      </trkpt>
      <trkpt lat="17.147391400" lon="-96.422520880">
        <ele>3085.100</ele>
        <time>2020-02-04T18:00:39Z</time>
      </trkpt>
      <trkpt lat="17.147385590" lon="-96.422558480">
        <ele>3084.600</ele>
        <time>2020-02-04T18:00:42Z</time>
      </trkpt>
      <trkpt lat="17.147377370" lon="-96.422598950">
        <ele>3084.200</ele>
        <time>2020-02-04T18:00:46Z</time>
      </trkpt>
      <trkpt lat="17.147357920" lon="-96.422634630">
        <ele>3084.000</ele>
        <time>2020-02-04T18:00:51Z</time>
      </trkpt>
      <trkpt lat="17.147356260" lon="-96.422673730">
        <ele>3084.800</ele>
        <time>2020-02-04T18:00:55Z</time>
      </trkpt>
      <trkpt lat="17.147361550" lon="-96.422716600">
        <ele>3084.200</ele>
        <time>2020-02-04T18:00:59Z</time>
      </trkpt>
      <trkpt lat="17.147361150" lon="-96.422757660">
        <ele>3084.200</ele>
        <time>2020-02-04T18:01:04Z</time>
      </trkpt>
      <trkpt lat="17.147359670" lon="-96.422796210">
        <ele>3084.500</ele>
        <time>2020-02-04T18:01:09Z</time>
      </trkpt>
      <trkpt lat="17.147354700" lon="-96.422837840">
        <ele>3083.400</ele>
        <time>2020-02-04T18:01:13Z</time>
      </trkpt>
      <trkpt lat="17.147361300" lon="-96.422877660">
        <ele>3082.400</ele>
        <time>2020-02-04T18:01:17Z</time>
      </trkpt>
      <trkpt lat="17.147371050" lon="-96.422919290">
        <ele>3081.600</ele>
        <time>2020-02-04T18:01:20Z</time>
      </trkpt>
      <trkpt lat="17.147385470" lon="-96.422954870">
        <ele>3081.700</ele>
        <time>2020-02-04T18:01:23Z</time>
      </trkpt>
      <trkpt lat="17.147405600" lon="-96.422990090">
        <ele>3081.300</ele>
        <time>2020-02-04T18:01:27Z</time>
      </trkpt>
      <trkpt lat="17.147424130" lon="-96.423033610">
        <ele>3079.900</ele>
        <time>2020-02-04T18:01:31Z</time>
      </trkpt>
      <trkpt lat="17.147442180" lon="-96.423074570">
        <ele>3079.100</ele>
        <time>2020-02-04T18:01:35Z</time>
      </trkpt>
      <trkpt lat="17.147459050" lon="-96.423114050">
        <ele>3078.900</ele>
        <time>2020-02-04T18:01:39Z</time>
      </trkpt>
      <trkpt lat="17.147468670" lon="-96.423153700">
        <ele>3080.400</ele>
        <time>2020-02-04T18:01:44Z</time>
      </trkpt>
      <trkpt lat="17.147474400" lon="-96.423193190">
        <ele>3080.800</ele>
        <time>2020-02-04T18:01:48Z</time>
      </trkpt>
      <trkpt lat="17.147476890" lon="-96.423235700">
        <ele>3081.800</ele>
        <time>2020-02-04T18:01:53Z</time>
      </trkpt>
      <trkpt lat="17.147491080" lon="-96.423272870">
        <ele>3081.500</ele>
        <time>2020-02-04T18:01:56Z</time>
      </trkpt>
      <trkpt lat="17.147517950" lon="-96.423306170">
        <ele>3081.700</ele>
        <time>2020-02-04T18:02:01Z</time>
      </trkpt>
      <trkpt lat="17.147537850" lon="-96.423346280">
        <ele>3082.600</ele>
        <time>2020-02-04T18:02:06Z</time>
      </trkpt>
      <trkpt lat="17.147556350" lon="-96.423380090">
        <ele>3081.800</ele>
        <time>2020-02-04T18:02:10Z</time>
      </trkpt>
      <trkpt lat="17.147581930" lon="-96.423410240">
        <ele>3082.000</ele>
        <time>2020-02-04T18:02:14Z</time>
      </trkpt>
      <trkpt lat="17.147608870" lon="-96.423445960">
        <ele>3082.300</ele>
        <time>2020-02-04T18:02:19Z</time>
      </trkpt>
      <trkpt lat="17.147646610" lon="-96.423478580">
        <ele>3081.600</ele>
        <time>2020-02-04T18:02:23Z</time>
      </trkpt>
      <trkpt lat="17.147634340" lon="-96.423514750">
        <ele>3084.500</ele>
        <time>2020-02-04T18:02:29Z</time>
      </trkpt>
      <trkpt lat="17.147627220" lon="-96.423554560">
        <ele>3082.800</ele>
        <time>2020-02-04T18:02:35Z</time>
      </trkpt>
      <trkpt lat="17.147610300" lon="-96.423589800">
        <ele>3082.000</ele>
        <time>2020-02-04T18:02:40Z</time>
      </trkpt>
      <trkpt lat="17.147605630" lon="-96.423627290">
        <ele>3083.400</ele>
        <time>2020-02-04T18:02:48Z</time>
      </trkpt>
      <trkpt lat="17.147577170" lon="-96.423661090">
        <ele>3083.300</ele>
        <time>2020-02-04T18:02:54Z</time>
      </trkpt>
      <trkpt lat="17.147568440" lon="-96.423704770">
        <ele>3082.100</ele>
        <time>2020-02-04T18:02:59Z</time>
      </trkpt>
      <trkpt lat="17.147553960" lon="-96.423740070">
        <ele>3081.100</ele>
        <time>2020-02-04T18:03:04Z</time>
      </trkpt>
      <trkpt lat="17.147530870" lon="-96.423775330">
        <ele>3082.200</ele>
        <time>2020-02-04T18:03:09Z</time>
      </trkpt>
      <trkpt lat="17.147499700" lon="-96.423803580">
        <ele>3084.500</ele>
        <time>2020-02-04T18:03:16Z</time>
      </trkpt>
      <trkpt lat="17.147491030" lon="-96.423842430">
        <ele>3083.600</ele>
        <time>2020-02-04T18:03:20Z</time>
      </trkpt>
      <trkpt lat="17.147491450" lon="-96.423881660">
        <ele>3082.400</ele>
        <time>2020-02-04T18:03:26Z</time>
      </trkpt>
      <trkpt lat="17.147478280" lon="-96.423916870">
        <ele>3082.300</ele>
        <time>2020-02-04T18:03:36Z</time>
      </trkpt>
      <trkpt lat="17.147469760" lon="-96.423958900">
        <ele>3083.100</ele>
        <time>2020-02-04T18:03:43Z</time>
      </trkpt>
      <trkpt lat="17.147468280" lon="-96.423999760">
        <ele>3082.800</ele>
        <time>2020-02-04T18:03:47Z</time>
      </trkpt>
      <trkpt lat="17.147457890" lon="-96.424043850">
        <ele>3084.400</ele>
        <time>2020-02-04T18:03:52Z</time>
      </trkpt>
      <trkpt lat="17.147445400" lon="-96.424089230">
        <ele>3081.600</ele>
        <time>2020-02-04T18:03:56Z</time>
      </trkpt>
      <trkpt lat="17.147439950" lon="-96.424129840">
        <ele>3079.900</ele>
        <time>2020-02-04T18:03:59Z</time>
      </trkpt>
      <trkpt lat="17.147441710" lon="-96.424177250">
        <ele>3077.100</ele>
        <time>2020-02-04T18:04:03Z</time>
      </trkpt>
      <trkpt lat="17.147429060" lon="-96.424222900">
        <ele>3077.800</ele>
        <time>2020-02-04T18:04:09Z</time>
      </trkpt>
      <trkpt lat="17.147427880" lon="-96.424260590">
        <ele>3078.400</ele>
        <time>2020-02-04T18:04:12Z</time>
      </trkpt>
      <trkpt lat="17.147444770" lon="-96.424304690">
        <ele>3078.600</ele>
        <time>2020-02-04T18:04:17Z</time>
      </trkpt>
      <trkpt lat="17.147465510" lon="-96.424340140">
        <ele>3075.800</ele>
        <time>2020-02-04T18:04:21Z</time>
      </trkpt>
      <trkpt lat="17.147462470" lon="-96.424383400">
        <ele>3077.400</ele>
        <time>2020-02-04T18:04:27Z</time>
      </trkpt>
      <trkpt lat="17.147461180" lon="-96.424422510">
        <ele>3076.100</ele>
        <time>2020-02-04T18:04:32Z</time>
      </trkpt>
      <trkpt lat="17.147466480" lon="-96.424467940">
        <ele>3076.600</ele>
        <time>2020-02-04T18:04:36Z</time>
      </trkpt>
      <trkpt lat="17.147463200" lon="-96.424506130">
        <ele>3078.000</ele>
        <time>2020-02-04T18:04:40Z</time>
      </trkpt>
      <trkpt lat="17.147465070" lon="-96.424545120">
        <ele>3075.600</ele>
        <time>2020-02-04T18:04:49Z</time>
      </trkpt>
      <trkpt lat="17.147448990" lon="-96.424588360">
        <ele>3076.800</ele>
        <time>2020-02-04T18:04:55Z</time>
      </trkpt>
      <trkpt lat="17.147438240" lon="-96.424634780">
        <ele>3077.700</ele>
        <time>2020-02-04T18:05:00Z</time>
      </trkpt>
      <trkpt lat="17.147433490" lon="-96.424675760">
        <ele>3079.300</ele>
        <time>2020-02-04T18:05:04Z</time>
      </trkpt>
      <trkpt lat="17.147429980" lon="-96.424717860">
        <ele>3080.700</ele>
        <time>2020-02-04T18:05:10Z</time>
      </trkpt>
      <trkpt lat="17.147425270" lon="-96.424757870">
        <ele>3083.600</ele>
        <time>2020-02-04T18:05:16Z</time>
      </trkpt>
      <trkpt lat="17.147452640" lon="-96.424787020">
        <ele>3084.700</ele>
        <time>2020-02-04T18:05:21Z</time>
      </trkpt>
      <trkpt lat="17.147447760" lon="-96.424833120">
        <ele>3085.900</ele>
        <time>2020-02-04T18:05:27Z</time>
      </trkpt>
      <trkpt lat="17.147436310" lon="-96.424872970">
        <ele>3089.500</ele>
        <time>2020-02-04T18:05:32Z</time>
      </trkpt>
      <trkpt lat="17.147418280" lon="-96.424910700">
        <ele>3090.800</ele>
        <time>2020-02-04T18:05:37Z</time>
      </trkpt>
      <trkpt lat="17.147403030" lon="-96.424955400">
        <ele>3094.800</ele>
        <time>2020-02-04T18:05:44Z</time>
      </trkpt>
      <trkpt lat="17.147434610" lon="-96.424975110">
        <ele>3094.600</ele>
        <time>2020-02-04T18:06:10Z</time>
      </trkpt>
      <trkpt lat="17.147437140" lon="-96.425018910">
        <ele>3092.000</ele>
        <time>2020-02-04T18:06:14Z</time>
      </trkpt>
      <trkpt lat="17.147451220" lon="-96.425059110">
        <ele>3092.600</ele>
        <time>2020-02-04T18:07:37Z</time>
      </trkpt>
      <trkpt lat="17.147466210" lon="-96.425097260">
        <ele>3092.900</ele>
        <time>2020-02-04T18:08:21Z</time>
      </trkpt>
      <trkpt lat="17.147497220" lon="-96.425118760">
        <ele>3094.000</ele>
        <time>2020-02-04T18:08:30Z</time>
      </trkpt>
      <trkpt lat="17.147519420" lon="-96.425156000">
        <ele>3093.300</ele>
        <time>2020-02-04T18:08:34Z</time>
      </trkpt>
      <trkpt lat="17.147537760" lon="-96.425202300">
        <ele>3091.900</ele>
        <time>2020-02-04T18:08:38Z</time>
      </trkpt>
      <trkpt lat="17.147557940" lon="-96.425237120">
        <ele>3092.400</ele>
        <time>2020-02-04T18:08:44Z</time>
      </trkpt>
      <trkpt lat="17.147542690" lon="-96.425272920">
        <ele>3092.500</ele>
        <time>2020-02-04T18:08:50Z</time>
      </trkpt>
      <trkpt lat="17.147531190" lon="-96.425310510">
        <ele>3091.400</ele>
        <time>2020-02-04T18:09:01Z</time>
      </trkpt>
      <trkpt lat="17.147536710" lon="-96.425355750">
        <ele>3090.800</ele>
        <time>2020-02-04T18:10:16Z</time>
      </trkpt>
      <trkpt lat="17.147545540" lon="-96.425399480">
        <ele>3089.500</ele>
        <time>2020-02-04T18:10:29Z</time>
      </trkpt>
      <trkpt lat="17.147552090" lon="-96.425441700">
        <ele>3089.500</ele>
        <time>2020-02-04T18:10:36Z</time>
      </trkpt>
      <trkpt lat="17.147554450" lon="-96.425479870">
        <ele>3088.300</ele>
        <time>2020-02-04T18:10:40Z</time>
      </trkpt>
      <trkpt lat="17.147558550" lon="-96.425521270">
        <ele>3089.400</ele>
        <time>2020-02-04T18:10:45Z</time>
      </trkpt>
      <trkpt lat="17.147559840" lon="-96.425565910">
        <ele>3090.300</ele>
        <time>2020-02-04T18:10:51Z</time>
      </trkpt>
      <trkpt lat="17.147567880" lon="-96.425603800">
        <ele>3089.700</ele>
        <time>2020-02-04T18:11:33Z</time>
      </trkpt>
      <trkpt lat="17.147566480" lon="-96.425644030">
        <ele>3090.300</ele>
        <time>2020-02-04T18:11:43Z</time>
      </trkpt>
      <trkpt lat="17.147548740" lon="-96.425682410">
        <ele>3089.500</ele>
        <time>2020-02-04T18:11:50Z</time>
      </trkpt>
      <trkpt lat="17.147542590" lon="-96.425723300">
        <ele>3089.600</ele>
        <time>2020-02-04T18:11:56Z</time>
      </trkpt>
      <trkpt lat="17.147532410" lon="-96.425764600">
        <ele>3092.800</ele>
        <time>2020-02-04T18:12:02Z</time>
      </trkpt>
      <trkpt lat="17.147549210" lon="-96.425806370">
        <ele>3091.500</ele>
        <time>2020-02-04T18:12:07Z</time>
      </trkpt>
      <trkpt lat="17.147548860" lon="-96.425846730">
        <ele>3092.600</ele>
        <time>2020-02-04T18:12:11Z</time>
      </trkpt>
      <trkpt lat="17.147552490" lon="-96.425894100">
        <ele>3093.000</ele>
        <time>2020-02-04T18:12:15Z</time>
      </trkpt>
      <trkpt lat="17.147570710" lon="-96.425931430">
        <ele>3093.600</ele>
        <time>2020-02-04T18:12:19Z</time>
      </trkpt>
      <trkpt lat="17.147598430" lon="-96.425966460">
        <ele>3090.000</ele>
        <time>2020-02-04T18:12:23Z</time>
      </trkpt>
      <trkpt lat="17.147613900" lon="-96.426000630">
        <ele>3089.100</ele>
        <time>2020-02-04T18:12:26Z</time>
      </trkpt>
      <trkpt lat="17.147639710" lon="-96.426034020">
        <ele>3086.600</ele>
        <time>2020-02-04T18:12:30Z</time>
      </trkpt>
      <trkpt lat="17.147655850" lon="-96.426069350">
        <ele>3085.800</ele>
        <time>2020-02-04T18:12:33Z</time>
      </trkpt>
      <trkpt lat="17.147677450" lon="-96.426107190">
        <ele>3084.400</ele>
        <time>2020-02-04T18:12:37Z</time>
      </trkpt>
      <trkpt lat="17.147695450" lon="-96.426142550">
        <ele>3083.500</ele>
        <time>2020-02-04T18:12:41Z</time>
      </trkpt>
      <trkpt lat="17.147694250" lon="-96.426182440">
        <ele>3086.800</ele>
        <time>2020-02-04T18:12:46Z</time>
      </trkpt>
      <trkpt lat="17.147698610" lon="-96.426224840">
        <ele>3087.700</ele>
        <time>2020-02-04T18:12:50Z</time>
      </trkpt>
      <trkpt lat="17.147706170" lon="-96.426269110">
        <ele>3088.600</ele>
        <time>2020-02-04T18:12:57Z</time>
      </trkpt>
      <trkpt lat="17.147722590" lon="-96.426302610">
        <ele>3087.300</ele>
        <time>2020-02-04T18:13:02Z</time>
      </trkpt>
      <trkpt lat="17.147740250" lon="-96.426338950">
        <ele>3087.900</ele>
        <time>2020-02-04T18:13:07Z</time>
      </trkpt>
      <trkpt lat="17.147766840" lon="-96.426370980">
        <ele>3085.000</ele>
        <time>2020-02-04T18:13:12Z</time>
      </trkpt>
      <trkpt lat="17.147784360" lon="-96.426405340">
        <ele>3083.500</ele>
        <time>2020-02-04T18:13:16Z</time>
      </trkpt>
      <trkpt lat="17.147792670" lon="-96.426445630">
        <ele>3085.100</ele>
        <time>2020-02-04T18:13:24Z</time>
      </trkpt>
      <trkpt lat="17.147809000" lon="-96.426483170">
        <ele>3083.600</ele>
        <time>2020-02-04T18:13:32Z</time>
      </trkpt>
      <trkpt lat="17.147819890" lon="-96.426520170">
        <ele>3080.700</ele>
        <time>2020-02-04T18:13:37Z</time>
      </trkpt>
      <trkpt lat="17.147843120" lon="-96.426552380">
        <ele>3078.700</ele>
        <time>2020-02-04T18:13:43Z</time>
      </trkpt>
      <trkpt lat="17.147871240" lon="-96.426584570">
        <ele>3077.300</ele>
        <time>2020-02-04T18:13:49Z</time>
      </trkpt>
      <trkpt lat="17.147870820" lon="-96.426623040">
        <ele>3075.400</ele>
        <time>2020-02-04T18:13:54Z</time>
      </trkpt>
      <trkpt lat="17.147882820" lon="-96.426660410">
        <ele>3075.200</ele>
        <time>2020-02-04T18:13:59Z</time>
      </trkpt>
      <trkpt lat="17.147876240" lon="-96.426702160">
        <ele>3076.800</ele>
        <time>2020-02-04T18:14:03Z</time>
      </trkpt>
      <trkpt lat="17.147870400" lon="-96.426745200">
        <ele>3078.700</ele>
        <time>2020-02-04T18:14:08Z</time>
      </trkpt>
      <trkpt lat="17.147886380" lon="-96.426784620">
        <ele>3076.500</ele>
        <time>2020-02-04T18:14:12Z</time>
      </trkpt>
      <trkpt lat="17.147886500" lon="-96.426826050">
        <ele>3080.400</ele>
        <time>2020-02-04T18:14:18Z</time>
      </trkpt>
      <trkpt lat="17.147910950" lon="-96.426857010">
        <ele>3079.800</ele>
        <time>2020-02-04T18:14:23Z</time>
      </trkpt>
      <trkpt lat="17.147931310" lon="-96.426896310">
        <ele>3080.400</ele>
        <time>2020-02-04T18:14:28Z</time>
      </trkpt>
      <trkpt lat="17.147964990" lon="-96.426925170">
        <ele>3079.600</ele>
        <time>2020-02-04T18:14:32Z</time>
      </trkpt>
      <trkpt lat="17.147986200" lon="-96.426960810">
        <ele>3078.400</ele>
        <time>2020-02-04T18:14:37Z</time>
      </trkpt>
      <trkpt lat="17.148012150" lon="-96.426993510">
        <ele>3077.200</ele>
        <time>2020-02-04T18:14:41Z</time>
      </trkpt>
      <trkpt lat="17.148033730" lon="-96.427032680">
        <ele>3077.200</ele>
        <time>2020-02-04T18:14:45Z</time>
      </trkpt>
      <trkpt lat="17.148066360" lon="-96.427062640">
        <ele>3075.000</ele>
        <time>2020-02-04T18:14:50Z</time>
      </trkpt>
      <trkpt lat="17.148093210" lon="-96.427095660">
        <ele>3076.700</ele>
        <time>2020-02-04T18:14:57Z</time>
      </trkpt>
      <trkpt lat="17.148122280" lon="-96.427128160">
        <ele>3078.700</ele>
        <time>2020-02-04T18:15:02Z</time>
      </trkpt>
      <trkpt lat="17.148126160" lon="-96.427169080">
        <ele>3079.100</ele>
        <time>2020-02-04T18:15:06Z</time>
      </trkpt>
      <trkpt lat="17.148139320" lon="-96.427212820">
        <ele>3079.600</ele>
        <time>2020-02-04T18:15:11Z</time>
      </trkpt>
      <trkpt lat="17.148157690" lon="-96.427249790">
        <ele>3080.400</ele>
        <time>2020-02-04T18:15:20Z</time>
      </trkpt>
      <trkpt lat="17.148188830" lon="-96.427273690">
        <ele>3078.800</ele>
        <time>2020-02-04T18:15:23Z</time>
      </trkpt>
      <trkpt lat="17.148201930" lon="-96.427309140">
        <ele>3079.600</ele>
        <time>2020-02-04T18:15:28Z</time>
      </trkpt>
      <trkpt lat="17.148227210" lon="-96.427338410">
        <ele>3079.900</ele>
        <time>2020-02-04T18:15:35Z</time>
      </trkpt>
      <trkpt lat="17.148246790" lon="-96.427380370">
        <ele>3076.900</ele>
        <time>2020-02-04T18:15:41Z</time>
      </trkpt>
      <trkpt lat="17.148246760" lon="-96.427425910">
        <ele>3077.300</ele>
        <time>2020-02-04T18:15:45Z</time>
      </trkpt>
      <trkpt lat="17.148270290" lon="-96.427462240">
        <ele>3075.900</ele>
        <time>2020-02-04T18:15:51Z</time>
      </trkpt>
      <trkpt lat="17.148273260" lon="-96.427501290">
        <ele>3072.700</ele>
        <time>2020-02-04T18:16:01Z</time>
      </trkpt>
      <trkpt lat="17.148276990" lon="-96.427542890">
        <ele>3071.400</ele>
        <time>2020-02-04T18:16:07Z</time>
      </trkpt>
      <trkpt lat="17.148268190" lon="-96.427588210">
        <ele>3072.100</ele>
        <time>2020-02-04T18:16:12Z</time>
      </trkpt>
      <trkpt lat="17.148283260" lon="-96.427632360">
        <ele>3071.500</ele>
        <time>2020-02-04T18:16:17Z</time>
      </trkpt>
      <trkpt lat="17.148305990" lon="-96.427674320">
        <ele>3069.300</ele>
        <time>2020-02-04T18:16:21Z</time>
      </trkpt>
      <trkpt lat="17.148309410" lon="-96.427714220">
        <ele>3070.800</ele>
        <time>2020-02-04T18:16:27Z</time>
      </trkpt>
      <trkpt lat="17.148322130" lon="-96.427749470">
        <ele>3069.300</ele>
        <time>2020-02-04T18:16:31Z</time>
      </trkpt>
      <trkpt lat="17.148343740" lon="-96.427782340">
        <ele>3067.300</ele>
        <time>2020-02-04T18:16:35Z</time>
      </trkpt>
      <trkpt lat="17.148367410" lon="-96.427821090">
        <ele>3066.400</ele>
        <time>2020-02-04T18:16:40Z</time>
      </trkpt>
      <trkpt lat="17.148383490" lon="-96.427858640">
        <ele>3068.600</ele>
        <time>2020-02-04T18:16:44Z</time>
      </trkpt>
      <trkpt lat="17.148417260" lon="-96.427883600">
        <ele>3068.400</ele>
        <time>2020-02-04T18:16:48Z</time>
      </trkpt>
      <trkpt lat="17.148449820" lon="-96.427909050">
        <ele>3068.400</ele>
        <time>2020-02-04T18:16:52Z</time>
      </trkpt>
      <trkpt lat="17.148438400" lon="-96.427949990">
        <ele>3073.900</ele>
        <time>2020-02-04T18:16:56Z</time>
      </trkpt>
      <trkpt lat="17.148443170" lon="-96.427988470">
        <ele>3074.200</ele>
        <time>2020-02-04T18:17:00Z</time>
      </trkpt>
      <trkpt lat="17.148468480" lon="-96.428024290">
        <ele>3074.000</ele>
        <time>2020-02-04T18:17:05Z</time>
      </trkpt>
      <trkpt lat="17.148503490" lon="-96.428058160">
        <ele>3072.900</ele>
        <time>2020-02-04T18:17:09Z</time>
      </trkpt>
      <trkpt lat="17.148529830" lon="-96.428088950">
        <ele>3072.400</ele>
        <time>2020-02-04T18:17:13Z</time>
      </trkpt>
      <trkpt lat="17.148558040" lon="-96.428123110">
        <ele>3072.400</ele>
        <time>2020-02-04T18:17:18Z</time>
      </trkpt>
      <trkpt lat="17.148576690" lon="-96.428156180">
        <ele>3072.200</ele>
        <time>2020-02-04T18:17:22Z</time>
      </trkpt>
      <trkpt lat="17.148599030" lon="-96.428190150">
        <ele>3071.800</ele>
        <time>2020-02-04T18:17:27Z</time>
      </trkpt>
      <trkpt lat="17.148612070" lon="-96.428231560">
        <ele>3074.300</ele>
        <time>2020-02-04T18:17:34Z</time>
      </trkpt>
      <trkpt lat="17.148621370" lon="-96.428271600">
        <ele>3076.000</ele>
        <time>2020-02-04T18:17:41Z</time>
      </trkpt>
      <trkpt lat="17.148638850" lon="-96.428311560">
        <ele>3073.500</ele>
        <time>2020-02-04T18:17:46Z</time>
      </trkpt>
      <trkpt lat="17.148643380" lon="-96.428349530">
        <ele>3074.200</ele>
        <time>2020-02-04T18:17:50Z</time>
      </trkpt>
      <trkpt lat="17.148641580" lon="-96.428389110">
        <ele>3075.700</ele>
        <time>2020-02-04T18:17:54Z</time>
      </trkpt>
      <trkpt lat="17.148666370" lon="-96.428422510">
        <ele>3075.100</ele>
        <time>2020-02-04T18:17:59Z</time>
      </trkpt>
      <trkpt lat="17.148666170" lon="-96.428464040">
        <ele>3078.300</ele>
        <time>2020-02-04T18:18:03Z</time>
      </trkpt>
      <trkpt lat="17.148710860" lon="-96.428488190">
        <ele>3077.100</ele>
        <time>2020-02-04T18:18:08Z</time>
      </trkpt>
      <trkpt lat="17.148748470" lon="-96.428501300">
        <ele>3077.700</ele>
        <time>2020-02-04T18:18:11Z</time>
      </trkpt>
      <trkpt lat="17.148785970" lon="-96.428522970">
        <ele>3076.700</ele>
        <time>2020-02-04T18:18:15Z</time>
      </trkpt>
      <trkpt lat="17.148822310" lon="-96.428550080">
        <ele>3078.100</ele>
        <time>2020-02-04T18:18:20Z</time>
      </trkpt>
      <trkpt lat="17.148839680" lon="-96.428585830">
        <ele>3075.100</ele>
        <time>2020-02-04T18:18:25Z</time>
      </trkpt>
      <trkpt lat="17.148879010" lon="-96.428612730">
        <ele>3073.500</ele>
        <time>2020-02-04T18:18:30Z</time>
      </trkpt>
      <trkpt lat="17.148910610" lon="-96.428643880">
        <ele>3073.100</ele>
        <time>2020-02-04T18:18:34Z</time>
      </trkpt>
      <trkpt lat="17.148932010" lon="-96.428674300">
        <ele>3076.200</ele>
        <time>2020-02-04T18:18:39Z</time>
      </trkpt>
      <trkpt lat="17.148965190" lon="-96.428697720">
        <ele>3076.100</ele>
        <time>2020-02-04T18:18:43Z</time>
      </trkpt>
      <trkpt lat="17.148990550" lon="-96.428727670">
        <ele>3076.700</ele>
        <time>2020-02-04T18:18:48Z</time>
      </trkpt>
      <trkpt lat="17.149020130" lon="-96.428753250">
        <ele>3075.100</ele>
        <time>2020-02-04T18:18:52Z</time>
      </trkpt>
      <trkpt lat="17.149055510" lon="-96.428781440">
        <ele>3073.800</ele>
        <time>2020-02-04T18:18:57Z</time>
      </trkpt>
      <trkpt lat="17.149085570" lon="-96.428803870">
        <ele>3072.600</ele>
        <time>2020-02-04T18:19:01Z</time>
      </trkpt>
      <trkpt lat="17.149126240" lon="-96.428810790">
        <ele>3072.300</ele>
        <time>2020-02-04T18:19:06Z</time>
      </trkpt>
      <trkpt lat="17.149163870" lon="-96.428832520">
        <ele>3073.800</ele>
        <time>2020-02-04T18:19:13Z</time>
      </trkpt>
      <trkpt lat="17.149198540" lon="-96.428858330">
        <ele>3074.800</ele>
        <time>2020-02-04T18:19:19Z</time>
      </trkpt>
      <trkpt lat="17.149224870" lon="-96.428893050">
        <ele>3077.300</ele>
        <time>2020-02-04T18:19:25Z</time>
      </trkpt>
      <trkpt lat="17.149246770" lon="-96.428923440">
        <ele>3077.300</ele>
        <time>2020-02-04T18:19:29Z</time>
      </trkpt>
      <trkpt lat="17.149277280" lon="-96.428952160">
        <ele>3077.600</ele>
        <time>2020-02-04T18:19:35Z</time>
      </trkpt>
      <trkpt lat="17.149306090" lon="-96.428982500">
        <ele>3076.400</ele>
        <time>2020-02-04T18:19:41Z</time>
      </trkpt>
      <trkpt lat="17.149342480" lon="-96.428983170">
        <ele>3075.600</ele>
        <time>2020-02-04T18:19:44Z</time>
      </trkpt>
      <trkpt lat="17.149378700" lon="-96.428986440">
        <ele>3073.600</ele>
        <time>2020-02-04T18:19:47Z</time>
      </trkpt>
      <trkpt lat="17.149417340" lon="-96.428994210">
        <ele>3071.700</ele>
        <time>2020-02-04T18:19:51Z</time>
      </trkpt>
      <trkpt lat="17.149454660" lon="-96.429002920">
        <ele>3072.500</ele>
        <time>2020-02-04T18:19:56Z</time>
      </trkpt>
      <trkpt lat="17.149490700" lon="-96.429029680">
        <ele>3072.700</ele>
        <time>2020-02-04T18:20:02Z</time>
      </trkpt>
      <trkpt lat="17.149525120" lon="-96.429044460">
        <ele>3073.600</ele>
        <time>2020-02-04T18:20:07Z</time>
      </trkpt>
      <trkpt lat="17.149559710" lon="-96.429063010">
        <ele>3073.400</ele>
        <time>2020-02-04T18:20:11Z</time>
      </trkpt>
      <trkpt lat="17.149593620" lon="-96.429082190">
        <ele>3073.200</ele>
        <time>2020-02-04T18:20:15Z</time>
      </trkpt>
      <trkpt lat="17.149621830" lon="-96.429108000">
        <ele>3072.700</ele>
        <time>2020-02-04T18:20:21Z</time>
      </trkpt>
      <trkpt lat="17.149618410" lon="-96.429148500">
        <ele>3073.000</ele>
        <time>2020-02-04T18:20:26Z</time>
      </trkpt>
      <trkpt lat="17.149667310" lon="-96.429163190">
        <ele>3072.100</ele>
        <time>2020-02-04T18:20:32Z</time>
      </trkpt>
      <trkpt lat="17.149706500" lon="-96.429185020">
        <ele>3071.100</ele>
        <time>2020-02-04T18:20:35Z</time>
      </trkpt>
      <trkpt lat="17.149726750" lon="-96.429218070">
        <ele>3071.100</ele>
        <time>2020-02-04T18:20:39Z</time>
      </trkpt>
      <trkpt lat="17.149766640" lon="-96.429225520">
        <ele>3070.200</ele>
        <time>2020-02-04T18:20:44Z</time>
      </trkpt>
      <trkpt lat="17.149799390" lon="-96.429249460">
        <ele>3071.600</ele>
        <time>2020-02-04T18:20:49Z</time>
      </trkpt>
      <trkpt lat="17.149830430" lon="-96.429229550">
        <ele>3069.800</ele>
        <time>2020-02-04T18:20:54Z</time>
      </trkpt>
      <trkpt lat="17.149816550" lon="-96.429268400">
        <ele>3072.000</ele>
        <time>2020-02-04T18:21:04Z</time>
      </trkpt>
      <trkpt lat="17.149832800" lon="-96.429305730">
        <ele>3069.300</ele>
        <time>2020-02-04T18:21:24Z</time>
      </trkpt>
      <trkpt lat="17.149832800" lon="-96.429347010">
        <ele>3070.300</ele>
        <time>2020-02-04T18:21:29Z</time>
      </trkpt>
      <trkpt lat="17.149861030" lon="-96.429374390">
        <ele>3068.300</ele>
        <time>2020-02-04T18:21:41Z</time>
      </trkpt>
      <trkpt lat="17.149892680" lon="-96.429396930">
        <ele>3067.200</ele>
        <time>2020-02-04T18:21:45Z</time>
      </trkpt>
      <trkpt lat="17.149927210" lon="-96.429411110">
        <ele>3066.600</ele>
        <time>2020-02-04T18:22:18Z</time>
      </trkpt>
      <trkpt lat="17.149945030" lon="-96.429448120">
        <ele>3064.300</ele>
        <time>2020-02-04T18:23:18Z</time>
      </trkpt>
      <trkpt lat="17.149968170" lon="-96.429479840">
        <ele>3064.000</ele>
        <time>2020-02-04T18:23:23Z</time>
      </trkpt>
      <trkpt lat="17.150005970" lon="-96.429497040">
        <ele>3064.100</ele>
        <time>2020-02-04T18:23:50Z</time>
      </trkpt>
      <trkpt lat="17.150029890" lon="-96.429534200">
        <ele>3064.500</ele>
        <time>2020-02-04T18:23:55Z</time>
      </trkpt>
      <trkpt lat="17.150046940" lon="-96.429572540">
        <ele>3066.900</ele>
        <time>2020-02-04T18:24:02Z</time>
      </trkpt>
      <trkpt lat="17.150062570" lon="-96.429608660">
        <ele>3068.200</ele>
        <time>2020-02-04T18:24:07Z</time>
      </trkpt>
      <trkpt lat="17.150093250" lon="-96.429629780">
        <ele>3069.100</ele>
        <time>2020-02-04T18:26:23Z</time>
      </trkpt>
      <trkpt lat="17.150121950" lon="-96.429653870">
        <ele>3069.900</ele>
        <time>2020-02-04T18:26:29Z</time>
      </trkpt>
      <trkpt lat="17.150155880" lon="-96.429682460">
        <ele>3069.200</ele>
        <time>2020-02-04T18:26:38Z</time>
      </trkpt>
      <trkpt lat="17.150192330" lon="-96.429679100">
        <ele>3067.600</ele>
        <time>2020-02-04T18:26:43Z</time>
      </trkpt>
      <trkpt lat="17.150231870" lon="-96.429680670">
        <ele>3063.700</ele>
        <time>2020-02-04T18:26:49Z</time>
      </trkpt>
      <trkpt lat="17.150277200" lon="-96.429677820">
        <ele>3063.100</ele>
        <time>2020-02-04T18:26:54Z</time>
      </trkpt>
      <trkpt lat="17.150308990" lon="-96.429701510">
        <ele>3062.700</ele>
        <time>2020-02-04T18:26:59Z</time>
      </trkpt>
      <trkpt lat="17.150328020" lon="-96.429735950">
        <ele>3065.500</ele>
        <time>2020-02-04T18:27:05Z</time>
      </trkpt>
      <trkpt lat="17.150353350" lon="-96.429772330">
        <ele>3064.800</ele>
        <time>2020-02-04T18:27:10Z</time>
      </trkpt>
      <trkpt lat="17.150385630" lon="-96.429796550">
        <ele>3063.600</ele>
        <time>2020-02-04T18:27:14Z</time>
      </trkpt>
      <trkpt lat="17.150412800" lon="-96.429822500">
        <ele>3063.200</ele>
        <time>2020-02-04T18:27:20Z</time>
      </trkpt>
      <trkpt lat="17.150439030" lon="-96.429849870">
        <ele>3060.300</ele>
        <time>2020-02-04T18:27:28Z</time>
      </trkpt>
      <trkpt lat="17.150465980" lon="-96.429875700">
        <ele>3058.600</ele>
        <time>2020-02-04T18:27:34Z</time>
      </trkpt>
      <trkpt lat="17.150489320" lon="-96.429911930">
        <ele>3059.200</ele>
        <time>2020-02-04T18:27:39Z</time>
      </trkpt>
      <trkpt lat="17.150506580" lon="-96.429955240">
        <ele>3059.500</ele>
        <time>2020-02-04T18:27:46Z</time>
      </trkpt>
      <trkpt lat="17.150531340" lon="-96.429984870">
        <ele>3060.000</ele>
        <time>2020-02-04T18:27:50Z</time>
      </trkpt>
      <trkpt lat="17.150562550" lon="-96.430007350">
        <ele>3060.100</ele>
        <time>2020-02-04T18:27:56Z</time>
      </trkpt>
      <trkpt lat="17.150601460" lon="-96.430016870">
        <ele>3060.600</ele>
        <time>2020-02-04T18:29:42Z</time>
      </trkpt>
      <trkpt lat="17.150628050" lon="-96.430044740">
        <ele>3060.600</ele>
        <time>2020-02-04T18:31:01Z</time>
      </trkpt>
      <trkpt lat="17.150645490" lon="-96.430079230">
        <ele>3061.100</ele>
        <time>2020-02-04T18:32:15Z</time>
      </trkpt>
      <trkpt lat="17.150659370" lon="-96.430120580">
        <ele>3061.300</ele>
        <time>2020-02-04T18:32:22Z</time>
      </trkpt>
      <trkpt lat="17.150651900" lon="-96.430163640">
        <ele>3061.900</ele>
        <time>2020-02-04T18:32:28Z</time>
      </trkpt>
      <trkpt lat="17.150644990" lon="-96.430202900">
        <ele>3062.700</ele>
        <time>2020-02-04T18:32:39Z</time>
      </trkpt>
      <trkpt lat="17.150630790" lon="-96.430242020">
        <ele>3063.400</ele>
        <time>2020-02-04T18:32:49Z</time>
      </trkpt>
      <trkpt lat="17.150626780" lon="-96.430285670">
        <ele>3063.700</ele>
        <time>2020-02-04T18:32:56Z</time>
      </trkpt>
      <trkpt lat="17.150634180" lon="-96.430326750">
        <ele>3064.100</ele>
        <time>2020-02-04T18:33:04Z</time>
      </trkpt>
      <trkpt lat="17.150627760" lon="-96.430366500">
        <ele>3065.500</ele>
        <time>2020-02-04T18:33:11Z</time>
      </trkpt>
      <trkpt lat="17.150622090" lon="-96.430403730">
        <ele>3064.300</ele>
        <time>2020-02-04T18:33:17Z</time>
      </trkpt>
      <trkpt lat="17.150636560" lon="-96.430439350">
        <ele>3058.400</ele>
        <time>2020-02-04T18:33:22Z</time>
      </trkpt>
      <trkpt lat="17.150651020" lon="-96.430478540">
        <ele>3057.900</ele>
        <time>2020-02-04T18:33:28Z</time>
      </trkpt>
      <trkpt lat="17.150643160" lon="-96.430522780">
        <ele>3057.200</ele>
        <time>2020-02-04T18:33:33Z</time>
      </trkpt>
      <trkpt lat="17.150642790" lon="-96.430561740">
        <ele>3054.600</ele>
        <time>2020-02-04T18:33:37Z</time>
      </trkpt>
      <trkpt lat="17.150639540" lon="-96.430603470">
        <ele>3054.800</ele>
        <time>2020-02-04T18:33:42Z</time>
      </trkpt>
      <trkpt lat="17.150627010" lon="-96.430640880">
        <ele>3057.400</ele>
        <time>2020-02-04T18:33:48Z</time>
      </trkpt>
      <trkpt lat="17.150604500" lon="-96.430677870">
        <ele>3056.100</ele>
        <time>2020-02-04T18:33:53Z</time>
      </trkpt>
      <trkpt lat="17.150592510" lon="-96.430718160">
        <ele>3056.600</ele>
        <time>2020-02-04T18:33:58Z</time>
      </trkpt>
      <trkpt lat="17.150584160" lon="-96.430762180">
        <ele>3056.900</ele>
        <time>2020-02-04T18:34:04Z</time>
      </trkpt>
      <trkpt lat="17.150583440" lon="-96.430803430">
        <ele>3055.100</ele>
        <time>2020-02-04T18:34:16Z</time>
      </trkpt>
      <trkpt lat="17.150550390" lon="-96.430828400">
        <ele>3055.200</ele>
        <time>2020-02-04T18:34:32Z</time>
      </trkpt>
      <trkpt lat="17.150515020" lon="-96.430857760">
        <ele>3055.500</ele>
        <time>2020-02-04T18:34:38Z</time>
      </trkpt>
      <trkpt lat="17.150492420" lon="-96.430893210">
        <ele>3055.300</ele>
        <time>2020-02-04T18:34:42Z</time>
      </trkpt>
      <trkpt lat="17.150492290" lon="-96.430941790">
        <ele>3052.200</ele>
        <time>2020-02-04T18:34:46Z</time>
      </trkpt>
      <trkpt lat="17.150496720" lon="-96.430980900">
        <ele>3049.500</ele>
        <time>2020-02-04T18:34:49Z</time>
      </trkpt>
      <trkpt lat="17.150502750" lon="-96.431018470">
        <ele>3049.000</ele>
        <time>2020-02-04T18:34:52Z</time>
      </trkpt>
      <trkpt lat="17.150507670" lon="-96.431056310">
        <ele>3049.300</ele>
        <time>2020-02-04T18:34:55Z</time>
      </trkpt>
      <trkpt lat="17.150505640" lon="-96.431094740">
        <ele>3049.000</ele>
        <time>2020-02-04T18:34:58Z</time>
      </trkpt>
      <trkpt lat="17.150500840" lon="-96.431138400">
        <ele>3047.100</ele>
        <time>2020-02-04T18:35:02Z</time>
      </trkpt>
      <trkpt lat="17.150479790" lon="-96.431176380">
        <ele>3049.500</ele>
        <time>2020-02-04T18:35:07Z</time>
      </trkpt>
      <trkpt lat="17.150467870" lon="-96.431212930">
        <ele>3048.600</ele>
        <time>2020-02-04T18:35:11Z</time>
      </trkpt>
      <trkpt lat="17.150455520" lon="-96.431252660">
        <ele>3048.300</ele>
        <time>2020-02-04T18:35:15Z</time>
      </trkpt>
      <trkpt lat="17.150441810" lon="-96.431296960">
        <ele>3049.700</ele>
        <time>2020-02-04T18:35:20Z</time>
      </trkpt>
      <trkpt lat="17.150432470" lon="-96.431338970">
        <ele>3049.100</ele>
        <time>2020-02-04T18:35:24Z</time>
      </trkpt>
      <trkpt lat="17.150417160" lon="-96.431383740">
        <ele>3048.200</ele>
        <time>2020-02-04T18:35:28Z</time>
      </trkpt>
      <trkpt lat="17.150401370" lon="-96.431418620">
        <ele>3052.700</ele>
        <time>2020-02-04T18:35:32Z</time>
      </trkpt>
      <trkpt lat="17.150393530" lon="-96.431456040">
        <ele>3054.300</ele>
        <time>2020-02-04T18:35:36Z</time>
      </trkpt>
      <trkpt lat="17.150390570" lon="-96.431494120">
        <ele>3054.800</ele>
        <time>2020-02-04T18:35:40Z</time>
      </trkpt>
      <trkpt lat="17.150395550" lon="-96.431533970">
        <ele>3058.500</ele>
        <time>2020-02-04T18:35:45Z</time>
      </trkpt>
      <trkpt lat="17.150403080" lon="-96.431571810">
        <ele>3058.500</ele>
        <time>2020-02-04T18:36:13Z</time>
      </trkpt>
      <trkpt lat="17.150412580" lon="-96.431610010">
        <ele>3057.600</ele>
        <time>2020-02-04T18:36:17Z</time>
      </trkpt>
      <trkpt lat="17.150416190" lon="-96.431648760">
        <ele>3057.400</ele>
        <time>2020-02-04T18:36:20Z</time>
      </trkpt>
      <trkpt lat="17.150441440" lon="-96.431677890">
        <ele>3055.700</ele>
        <time>2020-02-04T18:36:27Z</time>
      </trkpt>
      <trkpt lat="17.150455160" lon="-96.431719950">
        <ele>3056.600</ele>
        <time>2020-02-04T18:37:30Z</time>
      </trkpt>
      <trkpt lat="17.150458950" lon="-96.431763540">
        <ele>3059.100</ele>
        <time>2020-02-04T18:37:35Z</time>
      </trkpt>
      <trkpt lat="17.150452160" lon="-96.431801750">
        <ele>3058.200</ele>
        <time>2020-02-04T18:37:46Z</time>
      </trkpt>
      <trkpt lat="17.150456590" lon="-96.431841150">
        <ele>3058.400</ele>
        <time>2020-02-04T18:38:51Z</time>
      </trkpt>
      <trkpt lat="17.150474040" lon="-96.431874260">
        <ele>3061.400</ele>
        <time>2020-02-04T18:39:02Z</time>
      </trkpt>
      <trkpt lat="17.150492700" lon="-96.431906610">
        <ele>3058.100</ele>
        <time>2020-02-04T18:40:30Z</time>
      </trkpt>
      <trkpt lat="17.150518160" lon="-96.431936330">
        <ele>3055.700</ele>
        <time>2020-02-04T18:42:07Z</time>
      </trkpt>
      <trkpt lat="17.150501810" lon="-96.431970800">
        <ele>3056.200</ele>
        <time>2020-02-04T18:42:18Z</time>
      </trkpt>
      <trkpt lat="17.150512380" lon="-96.432012270">
        <ele>3060.200</ele>
        <time>2020-02-04T18:42:27Z</time>
      </trkpt>
      <trkpt lat="17.150520220" lon="-96.432049090">
        <ele>3058.900</ele>
        <time>2020-02-04T18:42:33Z</time>
      </trkpt>
      <trkpt lat="17.150522080" lon="-96.432089910">
        <ele>3059.800</ele>
        <time>2020-02-04T18:42:43Z</time>
      </trkpt>
      <trkpt lat="17.150520150" lon="-96.432128180">
        <ele>3059.800</ele>
        <time>2020-02-04T18:42:52Z</time>
      </trkpt>
      <trkpt lat="17.150511420" lon="-96.432165830">
        <ele>3060.300</ele>
        <time>2020-02-04T18:43:04Z</time>
      </trkpt>
      <trkpt lat="17.150499140" lon="-96.432202160">
        <ele>3062.700</ele>
        <time>2020-02-04T18:43:15Z</time>
      </trkpt>
      <trkpt lat="17.150477370" lon="-96.432237340">
        <ele>3064.900</ele>
        <time>2020-02-04T18:43:22Z</time>
      </trkpt>
      <trkpt lat="17.150462530" lon="-96.432279990">
        <ele>3064.800</ele>
        <time>2020-02-04T18:43:27Z</time>
      </trkpt>
      <trkpt lat="17.150460380" lon="-96.432318120">
        <ele>3063.800</ele>
        <time>2020-02-04T18:43:32Z</time>
      </trkpt>
      <trkpt lat="17.150448440" lon="-96.432360040">
        <ele>3063.700</ele>
        <time>2020-02-04T18:43:37Z</time>
      </trkpt>
      <trkpt lat="17.150433670" lon="-96.432395640">
        <ele>3064.400</ele>
        <time>2020-02-04T18:43:42Z</time>
      </trkpt>
      <trkpt lat="17.150431960" lon="-96.432443690">
        <ele>3062.800</ele>
        <time>2020-02-04T18:43:45Z</time>
      </trkpt>
      <trkpt lat="17.150439830" lon="-96.432482240">
        <ele>3064.000</ele>
        <time>2020-02-04T18:43:48Z</time>
      </trkpt>
      <trkpt lat="17.150453740" lon="-96.432523550">
        <ele>3064.100</ele>
        <time>2020-02-04T18:43:52Z</time>
      </trkpt>
      <trkpt lat="17.150454550" lon="-96.432567430">
        <ele>3068.000</ele>
        <time>2020-02-04T18:43:57Z</time>
      </trkpt>
      <trkpt lat="17.150470830" lon="-96.432603950">
        <ele>3069.100</ele>
        <time>2020-02-04T18:44:01Z</time>
      </trkpt>
      <trkpt lat="17.150482450" lon="-96.432641030">
        <ele>3069.700</ele>
        <time>2020-02-04T18:44:05Z</time>
      </trkpt>
      <trkpt lat="17.150486360" lon="-96.432683520">
        <ele>3069.700</ele>
        <time>2020-02-04T18:44:10Z</time>
      </trkpt>
      <trkpt lat="17.150491980" lon="-96.432721470">
        <ele>3071.500</ele>
        <time>2020-02-04T18:44:14Z</time>
      </trkpt>
      <trkpt lat="17.150498740" lon="-96.432764360">
        <ele>3072.000</ele>
        <time>2020-02-04T18:44:18Z</time>
      </trkpt>
      <trkpt lat="17.150502240" lon="-96.432809100">
        <ele>3074.200</ele>
        <time>2020-02-04T18:44:23Z</time>
      </trkpt>
      <trkpt lat="17.150506210" lon="-96.432854980">
        <ele>3074.600</ele>
        <time>2020-02-04T18:44:28Z</time>
      </trkpt>
      <trkpt lat="17.150507760" lon="-96.432894560">
        <ele>3074.800</ele>
        <time>2020-02-04T18:44:33Z</time>
      </trkpt>
      <trkpt lat="17.150506880" lon="-96.432938120">
        <ele>3077.100</ele>
        <time>2020-02-04T18:44:39Z</time>
      </trkpt>
      <trkpt lat="17.150528490" lon="-96.432978320">
        <ele>3073.500</ele>
        <time>2020-02-04T18:44:44Z</time>
      </trkpt>
      <trkpt lat="17.150537270" lon="-96.433016930">
        <ele>3071.900</ele>
        <time>2020-02-04T18:44:48Z</time>
      </trkpt>
      <trkpt lat="17.150549290" lon="-96.433057270">
        <ele>3071.200</ele>
        <time>2020-02-04T18:44:54Z</time>
      </trkpt>
      <trkpt lat="17.150532350" lon="-96.433091880">
        <ele>3072.500</ele>
        <time>2020-02-04T18:45:05Z</time>
      </trkpt>
      <trkpt lat="17.150536900" lon="-96.433132250">
        <ele>3068.100</ele>
        <time>2020-02-04T18:45:12Z</time>
      </trkpt>
      <trkpt lat="17.150562820" lon="-96.433162080">
        <ele>3063.600</ele>
        <time>2020-02-04T18:45:16Z</time>
      </trkpt>
      <trkpt lat="17.150567680" lon="-96.433201120">
        <ele>3062.800</ele>
        <time>2020-02-04T18:45:20Z</time>
      </trkpt>
      <trkpt lat="17.150558530" lon="-96.433240450">
        <ele>3063.100</ele>
        <time>2020-02-04T18:45:24Z</time>
      </trkpt>
      <trkpt lat="17.150552210" lon="-96.433278430">
        <ele>3065.100</ele>
        <time>2020-02-04T18:45:28Z</time>
      </trkpt>
      <trkpt lat="17.150565730" lon="-96.433320580">
        <ele>3067.400</ele>
        <time>2020-02-04T18:45:33Z</time>
      </trkpt>
      <trkpt lat="17.150591040" lon="-96.433355130">
        <ele>3067.300</ele>
        <time>2020-02-04T18:45:37Z</time>
      </trkpt>
      <trkpt lat="17.150586080" lon="-96.433394790">
        <ele>3068.400</ele>
        <time>2020-02-04T18:45:41Z</time>
      </trkpt>
      <trkpt lat="17.150573460" lon="-96.433433260">
        <ele>3070.100</ele>
        <time>2020-02-04T18:45:45Z</time>
      </trkpt>
      <trkpt lat="17.150580160" lon="-96.433472860">
        <ele>3066.900</ele>
        <time>2020-02-04T18:45:51Z</time>
      </trkpt>
      <trkpt lat="17.150577430" lon="-96.433512680">
        <ele>3067.700</ele>
        <time>2020-02-04T18:45:55Z</time>
      </trkpt>
      <trkpt lat="17.150583930" lon="-96.433561630">
        <ele>3065.700</ele>
        <time>2020-02-04T18:45:59Z</time>
      </trkpt>
      <trkpt lat="17.150600170" lon="-96.433601260">
        <ele>3063.800</ele>
        <time>2020-02-04T18:46:03Z</time>
      </trkpt>
      <trkpt lat="17.150597940" lon="-96.433642980">
        <ele>3065.200</ele>
        <time>2020-02-04T18:46:07Z</time>
      </trkpt>
      <trkpt lat="17.150601050" lon="-96.433690270">
        <ele>3067.100</ele>
        <time>2020-02-04T18:46:14Z</time>
      </trkpt>
      <trkpt lat="17.150588530" lon="-96.433728420">
        <ele>3071.200</ele>
        <time>2020-02-04T18:46:19Z</time>
      </trkpt>
      <trkpt lat="17.150587290" lon="-96.433766880">
        <ele>3071.700</ele>
        <time>2020-02-04T18:46:24Z</time>
      </trkpt>
      <trkpt lat="17.150594630" lon="-96.433806540">
        <ele>3071.400</ele>
        <time>2020-02-04T18:46:31Z</time>
      </trkpt>
      <trkpt lat="17.150589290" lon="-96.433845250">
        <ele>3074.000</ele>
        <time>2020-02-04T18:46:36Z</time>
      </trkpt>
      <trkpt lat="17.150594550" lon="-96.433890520">
        <ele>3074.300</ele>
        <time>2020-02-04T18:46:41Z</time>
      </trkpt>
      <trkpt lat="17.150587080" lon="-96.433927860">
        <ele>3075.900</ele>
        <time>2020-02-04T18:46:46Z</time>
      </trkpt>
      <trkpt lat="17.150584680" lon="-96.433970240">
        <ele>3074.400</ele>
        <time>2020-02-04T18:46:52Z</time>
      </trkpt>
      <trkpt lat="17.150592780" lon="-96.434009890">
        <ele>3073.600</ele>
        <time>2020-02-04T18:46:56Z</time>
      </trkpt>
      <trkpt lat="17.150589410" lon="-96.434059590">
        <ele>3074.500</ele>
        <time>2020-02-04T18:47:00Z</time>
      </trkpt>
      <trkpt lat="17.150579490" lon="-96.434096000">
        <ele>3076.400</ele>
        <time>2020-02-04T18:47:04Z</time>
      </trkpt>
      <trkpt lat="17.150586570" lon="-96.434133700">
        <ele>3075.500</ele>
        <time>2020-02-04T18:47:11Z</time>
      </trkpt>
      <trkpt lat="17.150567210" lon="-96.434180580">
        <ele>3078.500</ele>
        <time>2020-02-04T18:47:17Z</time>
      </trkpt>
      <trkpt lat="17.150557690" lon="-96.434223440">
        <ele>3079.300</ele>
        <time>2020-02-04T18:47:21Z</time>
      </trkpt>
      <trkpt lat="17.150562340" lon="-96.434267410">
        <ele>3081.000</ele>
        <time>2020-02-04T18:47:29Z</time>
      </trkpt>
      <trkpt lat="17.150575300" lon="-96.434313200">
        <ele>3078.700</ele>
        <time>2020-02-04T18:47:34Z</time>
      </trkpt>
      <trkpt lat="17.150592520" lon="-96.434352800">
        <ele>3077.500</ele>
        <time>2020-02-04T18:47:38Z</time>
      </trkpt>
      <trkpt lat="17.150621210" lon="-96.434387160">
        <ele>3076.500</ele>
        <time>2020-02-04T18:47:43Z</time>
      </trkpt>
      <trkpt lat="17.150637110" lon="-96.434432820">
        <ele>3074.700</ele>
        <time>2020-02-04T18:47:47Z</time>
      </trkpt>
      <trkpt lat="17.150653600" lon="-96.434467770">
        <ele>3072.000</ele>
        <time>2020-02-04T18:47:52Z</time>
      </trkpt>
      <trkpt lat="17.150650240" lon="-96.434506170">
        <ele>3076.300</ele>
        <time>2020-02-04T18:48:02Z</time>
      </trkpt>
      <trkpt lat="17.150663320" lon="-96.434544200">
        <ele>3077.000</ele>
        <time>2020-02-04T18:48:11Z</time>
      </trkpt>
      <trkpt lat="17.150673010" lon="-96.434580750">
        <ele>3078.900</ele>
        <time>2020-02-04T18:48:16Z</time>
      </trkpt>
      <trkpt lat="17.150682060" lon="-96.434619010">
        <ele>3081.400</ele>
        <time>2020-02-04T18:48:22Z</time>
      </trkpt>
      <trkpt lat="17.150684260" lon="-96.434657130">
        <ele>3086.500</ele>
        <time>2020-02-04T18:48:30Z</time>
      </trkpt>
      <trkpt lat="17.150710400" lon="-96.434691640">
        <ele>3089.800</ele>
        <time>2020-02-04T18:48:35Z</time>
      </trkpt>
      <trkpt lat="17.150741630" lon="-96.434716450">
        <ele>3088.600</ele>
        <time>2020-02-04T18:48:40Z</time>
      </trkpt>
      <trkpt lat="17.150775130" lon="-96.434730900">
        <ele>3091.200</ele>
        <time>2020-02-04T18:48:47Z</time>
      </trkpt>
      <trkpt lat="17.150785880" lon="-96.434768450">
        <ele>3090.600</ele>
        <time>2020-02-04T18:48:53Z</time>
      </trkpt>
      <trkpt lat="17.150813210" lon="-96.434813250">
        <ele>3088.300</ele>
        <time>2020-02-04T18:48:57Z</time>
      </trkpt>
      <trkpt lat="17.150832490" lon="-96.434845410">
        <ele>3088.000</ele>
        <time>2020-02-04T18:49:01Z</time>
      </trkpt>
      <trkpt lat="17.150855010" lon="-96.434885340">
        <ele>3085.600</ele>
        <time>2020-02-04T18:49:08Z</time>
      </trkpt>
      <trkpt lat="17.150872970" lon="-96.434923420">
        <ele>3085.000</ele>
        <time>2020-02-04T18:49:14Z</time>
      </trkpt>
      <trkpt lat="17.150903790" lon="-96.434949040">
        <ele>3086.300</ele>
        <time>2020-02-04T18:49:20Z</time>
      </trkpt>
      <trkpt lat="17.150901550" lon="-96.434988350">
        <ele>3086.100</ele>
        <time>2020-02-04T18:49:24Z</time>
      </trkpt>
      <trkpt lat="17.150914660" lon="-96.435027380">
        <ele>3089.200</ele>
        <time>2020-02-04T18:49:30Z</time>
      </trkpt>
      <trkpt lat="17.150930280" lon="-96.435064000">
        <ele>3089.900</ele>
        <time>2020-02-04T18:49:35Z</time>
      </trkpt>
      <trkpt lat="17.150943520" lon="-96.435108820">
        <ele>3091.300</ele>
        <time>2020-02-04T18:49:40Z</time>
      </trkpt>
      <trkpt lat="17.150964290" lon="-96.435150980">
        <ele>3085.600</ele>
        <time>2020-02-04T18:49:43Z</time>
      </trkpt>
      <trkpt lat="17.150988400" lon="-96.435185970">
        <ele>3084.800</ele>
        <time>2020-02-04T18:49:47Z</time>
      </trkpt>
      <trkpt lat="17.151001020" lon="-96.435225100">
        <ele>3083.900</ele>
        <time>2020-02-04T18:49:51Z</time>
      </trkpt>
      <trkpt lat="17.150996340" lon="-96.435264280">
        <ele>3085.400</ele>
        <time>2020-02-04T18:50:03Z</time>
      </trkpt>
      <trkpt lat="17.150992870" lon="-96.435301810">
        <ele>3085.300</ele>
        <time>2020-02-04T18:51:02Z</time>
      </trkpt>
      <trkpt lat="17.150984520" lon="-96.435338570">
        <ele>3088.700</ele>
        <time>2020-02-04T18:51:08Z</time>
      </trkpt>
      <trkpt lat="17.150986040" lon="-96.435377520">
        <ele>3090.500</ele>
        <time>2020-02-04T18:51:13Z</time>
      </trkpt>
      <trkpt lat="17.150983240" lon="-96.435417970">
        <ele>3090.500</ele>
        <time>2020-02-04T18:51:18Z</time>
      </trkpt>
      <trkpt lat="17.150973530" lon="-96.435456830">
        <ele>3093.300</ele>
        <time>2020-02-04T18:51:23Z</time>
      </trkpt>
      <trkpt lat="17.150966140" lon="-96.435503350">
        <ele>3094.300</ele>
        <time>2020-02-04T18:51:28Z</time>
      </trkpt>
      <trkpt lat="17.150951540" lon="-96.435538130">
        <ele>3096.800</ele>
        <time>2020-02-04T18:51:32Z</time>
      </trkpt>
      <trkpt lat="17.150943950" lon="-96.435576680">
        <ele>3099.200</ele>
        <time>2020-02-04T18:51:38Z</time>
      </trkpt>
      <trkpt lat="17.150936850" lon="-96.435613690">
        <ele>3100.300</ele>
        <time>2020-02-04T18:51:43Z</time>
      </trkpt>
      <trkpt lat="17.150948850" lon="-96.435651070">
        <ele>3095.600</ele>
        <time>2020-02-04T18:51:49Z</time>
      </trkpt>
      <trkpt lat="17.150954140" lon="-96.435688730">
        <ele>3097.500</ele>
        <time>2020-02-04T18:51:56Z</time>
      </trkpt>
      <trkpt lat="17.150983110" lon="-96.435731100">
        <ele>3095.300</ele>
        <time>2020-02-04T18:52:01Z</time>
      </trkpt>
      <trkpt lat="17.151010280" lon="-96.435761150">
        <ele>3094.800</ele>
        <time>2020-02-04T18:52:06Z</time>
      </trkpt>
      <trkpt lat="17.151019590" lon="-96.435801650">
        <ele>3095.500</ele>
        <time>2020-02-04T18:52:12Z</time>
      </trkpt>
      <trkpt lat="17.151034420" lon="-96.435838730">
        <ele>3095.600</ele>
        <time>2020-02-04T18:52:18Z</time>
      </trkpt>
      <trkpt lat="17.151040610" lon="-96.435878780">
        <ele>3095.200</ele>
        <time>2020-02-04T18:52:25Z</time>
      </trkpt>
      <trkpt lat="17.151042020" lon="-96.435920550">
        <ele>3097.200</ele>
        <time>2020-02-04T18:52:33Z</time>
      </trkpt>
      <trkpt lat="17.151050410" lon="-96.435957640">
        <ele>3096.800</ele>
        <time>2020-02-04T18:52:37Z</time>
      </trkpt>
      <trkpt lat="17.151049770" lon="-96.435997630">
        <ele>3097.400</ele>
        <time>2020-02-04T18:52:43Z</time>
      </trkpt>
      <trkpt lat="17.151047750" lon="-96.436038350">
        <ele>3097.700</ele>
        <time>2020-02-04T18:52:48Z</time>
      </trkpt>
      <trkpt lat="17.151066200" lon="-96.436080590">
        <ele>3095.500</ele>
        <time>2020-02-04T18:52:53Z</time>
      </trkpt>
      <trkpt lat="17.151090340" lon="-96.436112080">
        <ele>3094.700</ele>
        <time>2020-02-04T18:53:07Z</time>
      </trkpt>
      <trkpt lat="17.151102490" lon="-96.436149090">
        <ele>3093.000</ele>
        <time>2020-02-04T18:53:13Z</time>
      </trkpt>
      <trkpt lat="17.151081600" lon="-96.436190810">
        <ele>3091.700</ele>
        <time>2020-02-04T18:53:19Z</time>
      </trkpt>
      <trkpt lat="17.151081940" lon="-96.436235970">
        <ele>3089.200</ele>
        <time>2020-02-04T18:53:23Z</time>
      </trkpt>
      <trkpt lat="17.151067000" lon="-96.436279600">
        <ele>3089.400</ele>
        <time>2020-02-04T18:53:29Z</time>
      </trkpt>
      <trkpt lat="17.151052920" lon="-96.436319970">
        <ele>3094.200</ele>
        <time>2020-02-04T18:53:34Z</time>
      </trkpt>
      <trkpt lat="17.151051020" lon="-96.436360850">
        <ele>3093.100</ele>
        <time>2020-02-04T18:53:38Z</time>
      </trkpt>
      <trkpt lat="17.151041880" lon="-96.436400580">
        <ele>3093.200</ele>
        <time>2020-02-04T18:53:42Z</time>
      </trkpt>
      <trkpt lat="17.151030700" lon="-96.436441380">
        <ele>3094.900</ele>
        <time>2020-02-04T18:53:46Z</time>
      </trkpt>
      <trkpt lat="17.151016370" lon="-96.436480800">
        <ele>3095.300</ele>
        <time>2020-02-04T18:53:54Z</time>
      </trkpt>
      <trkpt lat="17.151016780" lon="-96.436518990">
        <ele>3094.800</ele>
        <time>2020-02-04T18:53:58Z</time>
      </trkpt>
      <trkpt lat="17.151006970" lon="-96.436559240">
        <ele>3097.800</ele>
        <time>2020-02-04T18:54:06Z</time>
      </trkpt>
      <trkpt lat="17.150978810" lon="-96.436585710">
        <ele>3101.100</ele>
        <time>2020-02-04T18:54:12Z</time>
      </trkpt>
      <trkpt lat="17.150940790" lon="-96.436584440">
        <ele>3100.600</ele>
        <time>2020-02-04T18:54:19Z</time>
      </trkpt>
      <trkpt lat="17.150924640" lon="-96.436620300">
        <ele>3100.400</ele>
        <time>2020-02-04T18:54:25Z</time>
      </trkpt>
      <trkpt lat="17.150897230" lon="-96.436649920">
        <ele>3100.300</ele>
        <time>2020-02-04T18:54:31Z</time>
      </trkpt>
      <trkpt lat="17.150864240" lon="-96.436674410">
        <ele>3103.700</ele>
        <time>2020-02-04T18:54:38Z</time>
      </trkpt>
      <trkpt lat="17.150839980" lon="-96.436715510">
        <ele>3104.000</ele>
        <time>2020-02-04T18:54:43Z</time>
      </trkpt>
      <trkpt lat="17.150806730" lon="-96.436732170">
        <ele>3106.300</ele>
        <time>2020-02-04T18:54:49Z</time>
      </trkpt>
      <trkpt lat="17.150769790" lon="-96.436736440">
        <ele>3106.200</ele>
        <time>2020-02-04T18:54:54Z</time>
      </trkpt>
      <trkpt lat="17.150739150" lon="-96.436767940">
        <ele>3106.100</ele>
        <time>2020-02-04T18:54:59Z</time>
      </trkpt>
      <trkpt lat="17.150723270" lon="-96.436806560">
        <ele>3102.600</ele>
        <time>2020-02-04T18:55:02Z</time>
      </trkpt>
      <trkpt lat="17.150713700" lon="-96.436856120">
        <ele>3100.700</ele>
        <time>2020-02-04T18:55:05Z</time>
      </trkpt>
      <trkpt lat="17.150697870" lon="-96.436897770">
        <ele>3099.900</ele>
        <time>2020-02-04T18:55:08Z</time>
      </trkpt>
      <trkpt lat="17.150677450" lon="-96.436928890">
        <ele>3100.700</ele>
        <time>2020-02-04T18:55:11Z</time>
      </trkpt>
      <trkpt lat="17.150654640" lon="-96.436967900">
        <ele>3100.300</ele>
        <time>2020-02-04T18:55:15Z</time>
      </trkpt>
      <trkpt lat="17.150632570" lon="-96.437010410">
        <ele>3100.600</ele>
        <time>2020-02-04T18:55:20Z</time>
      </trkpt>
      <trkpt lat="17.150608750" lon="-96.437042120">
        <ele>3099.800</ele>
        <time>2020-02-04T18:55:24Z</time>
      </trkpt>
      <trkpt lat="17.150590700" lon="-96.437081850">
        <ele>3098.800</ele>
        <time>2020-02-04T18:55:30Z</time>
      </trkpt>
      <trkpt lat="17.150579510" lon="-96.437120120">
        <ele>3099.300</ele>
        <time>2020-02-04T18:55:34Z</time>
      </trkpt>
      <trkpt lat="17.150552030" lon="-96.437145860">
        <ele>3100.700</ele>
        <time>2020-02-04T18:55:39Z</time>
      </trkpt>
      <trkpt lat="17.150520250" lon="-96.437168930">
        <ele>3098.900</ele>
        <time>2020-02-04T18:55:48Z</time>
      </trkpt>
      <trkpt lat="17.150485580" lon="-96.437182520">
        <ele>3098.600</ele>
        <time>2020-02-04T18:55:52Z</time>
      </trkpt>
      <trkpt lat="17.150452060" lon="-96.437196920">
        <ele>3096.700</ele>
        <time>2020-02-04T18:55:56Z</time>
      </trkpt>
      <trkpt lat="17.150414250" lon="-96.437204400">
        <ele>3101.800</ele>
        <time>2020-02-04T18:56:01Z</time>
      </trkpt>
      <trkpt lat="17.150375900" lon="-96.437226540">
        <ele>3102.300</ele>
        <time>2020-02-04T18:56:05Z</time>
      </trkpt>
      <trkpt lat="17.150339420" lon="-96.437245310">
        <ele>3103.100</ele>
        <time>2020-02-04T18:56:10Z</time>
      </trkpt>
      <trkpt lat="17.150298250" lon="-96.437258680">
        <ele>3099.800</ele>
        <time>2020-02-04T18:56:14Z</time>
      </trkpt>
      <trkpt lat="17.150253730" lon="-96.437258020">
        <ele>3100.200</ele>
        <time>2020-02-04T18:56:18Z</time>
      </trkpt>
      <trkpt lat="17.150224980" lon="-96.437287100">
        <ele>3102.300</ele>
        <time>2020-02-04T18:56:25Z</time>
      </trkpt>
      <trkpt lat="17.150192850" lon="-96.437308970">
        <ele>3102.400</ele>
        <time>2020-02-04T18:56:34Z</time>
      </trkpt>
      <trkpt lat="17.150159790" lon="-96.437329450">
        <ele>3102.900</ele>
        <time>2020-02-04T18:56:39Z</time>
      </trkpt>
      <trkpt lat="17.150119140" lon="-96.437330700">
        <ele>3103.800</ele>
        <time>2020-02-04T18:56:44Z</time>
      </trkpt>
      <trkpt lat="17.150076320" lon="-96.437349530">
        <ele>3102.600</ele>
        <time>2020-02-04T18:56:50Z</time>
      </trkpt>
      <trkpt lat="17.150037980" lon="-96.437371770">
        <ele>3101.900</ele>
        <time>2020-02-04T18:56:54Z</time>
      </trkpt>
      <trkpt lat="17.150011790" lon="-96.437401870">
        <ele>3100.300</ele>
        <time>2020-02-04T18:56:58Z</time>
      </trkpt>
      <trkpt lat="17.149981460" lon="-96.437429790">
        <ele>3099.400</ele>
        <time>2020-02-04T18:57:02Z</time>
      </trkpt>
      <trkpt lat="17.149944660" lon="-96.437456600">
        <ele>3097.400</ele>
        <time>2020-02-04T18:57:07Z</time>
      </trkpt>
      <trkpt lat="17.149913620" lon="-96.437481920">
        <ele>3094.500</ele>
        <time>2020-02-04T18:57:13Z</time>
      </trkpt>
      <trkpt lat="17.149878390" lon="-96.437506610">
        <ele>3093.600</ele>
        <time>2020-02-04T18:57:20Z</time>
      </trkpt>
      <trkpt lat="17.149838440" lon="-96.437529260">
        <ele>3095.800</ele>
        <time>2020-02-04T18:57:24Z</time>
      </trkpt>
      <trkpt lat="17.149807170" lon="-96.437550050">
        <ele>3096.900</ele>
        <time>2020-02-04T18:57:28Z</time>
      </trkpt>
      <trkpt lat="17.149775600" lon="-96.437580980">
        <ele>3094.300</ele>
        <time>2020-02-04T18:57:32Z</time>
      </trkpt>
      <trkpt lat="17.149740530" lon="-96.437601550">
        <ele>3095.100</ele>
        <time>2020-02-04T18:57:36Z</time>
      </trkpt>
      <trkpt lat="17.149704290" lon="-96.437624470">
        <ele>3096.000</ele>
        <time>2020-02-04T18:57:41Z</time>
      </trkpt>
      <trkpt lat="17.149678090" lon="-96.437653790">
        <ele>3094.100</ele>
        <time>2020-02-04T18:57:46Z</time>
      </trkpt>
      <trkpt lat="17.149645790" lon="-96.437680670">
        <ele>3094.200</ele>
        <time>2020-02-04T18:57:51Z</time>
      </trkpt>
      <trkpt lat="17.149610980" lon="-96.437691240">
        <ele>3094.100</ele>
        <time>2020-02-04T18:57:58Z</time>
      </trkpt>
      <trkpt lat="17.149570970" lon="-96.437698220">
        <ele>3094.100</ele>
        <time>2020-02-04T18:58:04Z</time>
      </trkpt>
      <trkpt lat="17.149531560" lon="-96.437704980">
        <ele>3094.300</ele>
        <time>2020-02-04T18:58:09Z</time>
      </trkpt>
      <trkpt lat="17.149492000" lon="-96.437705920">
        <ele>3093.100</ele>
        <time>2020-02-04T18:58:15Z</time>
      </trkpt>
      <trkpt lat="17.149457890" lon="-96.437723420">
        <ele>3091.900</ele>
        <time>2020-02-04T18:58:19Z</time>
      </trkpt>
      <trkpt lat="17.149422460" lon="-96.437735010">
        <ele>3088.900</ele>
        <time>2020-02-04T18:58:25Z</time>
      </trkpt>
      <trkpt lat="17.149383410" lon="-96.437747500">
        <ele>3091.300</ele>
        <time>2020-02-04T18:58:30Z</time>
      </trkpt>
      <trkpt lat="17.149345340" lon="-96.437758020">
        <ele>3092.300</ele>
        <time>2020-02-04T18:58:36Z</time>
      </trkpt>
      <trkpt lat="17.149305040" lon="-96.437765050">
        <ele>3093.200</ele>
        <time>2020-02-04T18:58:41Z</time>
      </trkpt>
      <trkpt lat="17.149275130" lon="-96.437787190">
        <ele>3092.300</ele>
        <time>2020-02-04T18:58:49Z</time>
      </trkpt>
      <trkpt lat="17.149236170" lon="-96.437776690">
        <ele>3093.800</ele>
        <time>2020-02-04T18:58:57Z</time>
      </trkpt>
      <trkpt lat="17.149197250" lon="-96.437786370">
        <ele>3092.700</ele>
        <time>2020-02-04T18:59:02Z</time>
      </trkpt>
      <trkpt lat="17.149162960" lon="-96.437804850">
        <ele>3093.100</ele>
        <time>2020-02-04T18:59:18Z</time>
      </trkpt>
      <trkpt lat="17.149122010" lon="-96.437817250">
        <ele>3094.300</ele>
        <time>2020-02-04T18:59:23Z</time>
      </trkpt>
      <trkpt lat="17.149081050" lon="-96.437827420">
        <ele>3095.700</ele>
        <time>2020-02-04T18:59:28Z</time>
      </trkpt>
      <trkpt lat="17.149044580" lon="-96.437814530">
        <ele>3098.000</ele>
        <time>2020-02-04T18:59:33Z</time>
      </trkpt>
      <trkpt lat="17.149008990" lon="-96.437826140">
        <ele>3097.000</ele>
        <time>2020-02-04T18:59:44Z</time>
      </trkpt>
      <trkpt lat="17.148967120" lon="-96.437831750">
        <ele>3097.800</ele>
        <time>2020-02-04T18:59:49Z</time>
      </trkpt>
      <trkpt lat="17.148929510" lon="-96.437824940">
        <ele>3099.100</ele>
        <time>2020-02-04T18:59:54Z</time>
      </trkpt>
      <trkpt lat="17.148897150" lon="-96.437845420">
        <ele>3096.100</ele>
        <time>2020-02-04T18:59:59Z</time>
      </trkpt>
      <trkpt lat="17.148859490" lon="-96.437870460">
        <ele>3093.100</ele>
        <time>2020-02-04T19:00:03Z</time>
      </trkpt>
      <trkpt lat="17.148864400" lon="-96.437917770">
        <ele>3082.300</ele>
        <time>2020-02-04T19:00:06Z</time>
      </trkpt>
      <trkpt lat="17.148823470" lon="-96.437935370">
        <ele>3081.100</ele>
        <time>2020-02-04T19:00:17Z</time>
      </trkpt>
      <trkpt lat="17.148785040" lon="-96.437952880">
        <ele>3079.400</ele>
        <time>2020-02-04T19:00:22Z</time>
      </trkpt>
      <trkpt lat="17.148747870" lon="-96.437959250">
        <ele>3078.500</ele>
        <time>2020-02-04T19:00:28Z</time>
      </trkpt>
      <trkpt lat="17.148712320" lon="-96.437951390">
        <ele>3079.200</ele>
        <time>2020-02-04T19:00:36Z</time>
      </trkpt>
      <trkpt lat="17.148672220" lon="-96.437967410">
        <ele>3080.000</ele>
        <time>2020-02-04T19:01:05Z</time>
      </trkpt>
      <trkpt lat="17.148636120" lon="-96.437969650">
        <ele>3081.200</ele>
        <time>2020-02-04T19:01:09Z</time>
      </trkpt>
      <trkpt lat="17.148593640" lon="-96.437965920">
        <ele>3083.800</ele>
        <time>2020-02-04T19:01:14Z</time>
      </trkpt>
      <trkpt lat="17.148559610" lon="-96.437942420">
        <ele>3083.500</ele>
        <time>2020-02-04T19:01:19Z</time>
      </trkpt>
      <trkpt lat="17.148522910" lon="-96.437926510">
        <ele>3084.300</ele>
        <time>2020-02-04T19:01:24Z</time>
      </trkpt>
      <trkpt lat="17.148486760" lon="-96.437926780">
        <ele>3086.600</ele>
        <time>2020-02-04T19:01:31Z</time>
      </trkpt>
      <trkpt lat="17.148451040" lon="-96.437942530">
        <ele>3088.000</ele>
        <time>2020-02-04T19:01:36Z</time>
      </trkpt>
      <trkpt lat="17.148411930" lon="-96.437949520">
        <ele>3089.600</ele>
        <time>2020-02-04T19:01:43Z</time>
      </trkpt>
      <trkpt lat="17.148376470" lon="-96.437963110">
        <ele>3091.500</ele>
        <time>2020-02-04T19:01:49Z</time>
      </trkpt>
      <trkpt lat="17.148338530" lon="-96.437965120">
        <ele>3093.900</ele>
        <time>2020-02-04T19:01:55Z</time>
      </trkpt>
      <trkpt lat="17.148302200" lon="-96.437969590">
        <ele>3097.200</ele>
        <time>2020-02-04T19:01:59Z</time>
      </trkpt>
      <trkpt lat="17.148264680" lon="-96.437969650">
        <ele>3098.900</ele>
        <time>2020-02-04T19:02:03Z</time>
      </trkpt>
      <trkpt lat="17.148225080" lon="-96.437987430">
        <ele>3099.300</ele>
        <time>2020-02-04T19:02:08Z</time>
      </trkpt>
      <trkpt lat="17.148186850" lon="-96.437990050">
        <ele>3099.600</ele>
        <time>2020-02-04T19:02:13Z</time>
      </trkpt>
      <trkpt lat="17.148149840" lon="-96.438000840">
        <ele>3101.700</ele>
        <time>2020-02-04T19:02:17Z</time>
      </trkpt>
      <trkpt lat="17.148111100" lon="-96.437993660">
        <ele>3101.300</ele>
        <time>2020-02-04T19:02:21Z</time>
      </trkpt>
      <trkpt lat="17.148075260" lon="-96.437980570">
        <ele>3102.800</ele>
        <time>2020-02-04T19:02:26Z</time>
      </trkpt>
      <trkpt lat="17.148034300" lon="-96.437982440">
        <ele>3106.200</ele>
        <time>2020-02-04T19:02:35Z</time>
      </trkpt>
      <trkpt lat="17.147996810" lon="-96.437991040">
        <ele>3107.700</ele>
        <time>2020-02-04T19:02:41Z</time>
      </trkpt>
      <trkpt lat="17.147968460" lon="-96.438014370">
        <ele>3103.900</ele>
        <time>2020-02-04T19:03:56Z</time>
      </trkpt>
      <trkpt lat="17.147939580" lon="-96.438037790">
        <ele>3105.400</ele>
        <time>2020-02-04T19:04:08Z</time>
      </trkpt>
      <trkpt lat="17.147904050" lon="-96.438051900">
        <ele>3106.500</ele>
        <time>2020-02-04T19:04:14Z</time>
      </trkpt>
      <trkpt lat="17.147866440" lon="-96.438047730">
        <ele>3108.200</ele>
        <time>2020-02-04T19:04:20Z</time>
      </trkpt>
      <trkpt lat="17.147829240" lon="-96.438045750">
        <ele>3110.400</ele>
        <time>2020-02-04T19:04:28Z</time>
      </trkpt>
      <trkpt lat="17.147788090" lon="-96.438046560">
        <ele>3106.500</ele>
        <time>2020-02-04T19:04:35Z</time>
      </trkpt>
      <trkpt lat="17.147748490" lon="-96.438047030">
        <ele>3109.000</ele>
        <time>2020-02-04T19:04:42Z</time>
      </trkpt>
      <trkpt lat="17.147706820" lon="-96.438057500">
        <ele>3105.800</ele>
        <time>2020-02-04T19:04:50Z</time>
      </trkpt>
      <trkpt lat="17.147669350" lon="-96.438057490">
        <ele>3108.300</ele>
        <time>2020-02-04T19:04:57Z</time>
      </trkpt>
      <trkpt lat="17.147642270" lon="-96.438091730">
        <ele>3108.400</ele>
        <time>2020-02-04T19:05:02Z</time>
      </trkpt>
      <trkpt lat="17.147616250" lon="-96.438124890">
        <ele>3109.600</ele>
        <time>2020-02-04T19:05:08Z</time>
      </trkpt>
      <trkpt lat="17.147580500" lon="-96.438142990">
        <ele>3112.300</ele>
        <time>2020-02-04T19:05:16Z</time>
      </trkpt>
      <trkpt lat="17.147548380" lon="-96.438162310">
        <ele>3114.300</ele>
        <time>2020-02-04T19:05:20Z</time>
      </trkpt>
      <trkpt lat="17.147517730" lon="-96.438194750">
        <ele>3115.800</ele>
        <time>2020-02-04T19:05:26Z</time>
      </trkpt>
      <trkpt lat="17.147498060" lon="-96.438228730">
        <ele>3114.200</ele>
        <time>2020-02-04T19:05:30Z</time>
      </trkpt>
      <trkpt lat="17.147492320" lon="-96.438269750">
        <ele>3111.400</ele>
        <time>2020-02-04T19:05:33Z</time>
      </trkpt>
      <trkpt lat="17.147476650" lon="-96.438306270">
        <ele>3111.000</ele>
        <time>2020-02-04T19:05:36Z</time>
      </trkpt>
      <trkpt lat="17.147449510" lon="-96.438347010">
        <ele>3113.500</ele>
        <time>2020-02-04T19:05:40Z</time>
      </trkpt>
      <trkpt lat="17.147435700" lon="-96.438383450">
        <ele>3113.600</ele>
        <time>2020-02-04T19:05:43Z</time>
      </trkpt>
      <trkpt lat="17.147417260" lon="-96.438421710">
        <ele>3112.300</ele>
        <time>2020-02-04T19:05:47Z</time>
      </trkpt>
      <trkpt lat="17.147401150" lon="-96.438456150">
        <ele>3114.800</ele>
        <time>2020-02-04T19:07:53Z</time>
      </trkpt>
      <trkpt lat="17.147385210" lon="-96.438491950">
        <ele>3116.700</ele>
        <time>2020-02-04T19:08:21Z</time>
      </trkpt>
      <trkpt lat="17.147379540" lon="-96.438529260">
        <ele>3116.600</ele>
        <time>2020-02-04T19:08:26Z</time>
      </trkpt>
      <trkpt lat="17.147376160" lon="-96.438567170">
        <ele>3114.200</ele>
        <time>2020-02-04T19:08:30Z</time>
      </trkpt>
      <trkpt lat="17.147370010" lon="-96.438611740">
        <ele>3113.600</ele>
        <time>2020-02-04T19:08:35Z</time>
      </trkpt>
      <trkpt lat="17.147356320" lon="-96.438646790">
        <ele>3114.000</ele>
        <time>2020-02-04T19:08:40Z</time>
      </trkpt>
      <trkpt lat="17.147326050" lon="-96.438670330">
        <ele>3117.700</ele>
        <time>2020-02-04T19:08:46Z</time>
      </trkpt>
      <trkpt lat="17.147303940" lon="-96.438703670">
        <ele>3117.900</ele>
        <time>2020-02-04T19:08:57Z</time>
      </trkpt>
      <trkpt lat="17.147290390" lon="-96.438738860">
        <ele>3116.500</ele>
        <time>2020-02-04T19:09:02Z</time>
      </trkpt>
      <trkpt lat="17.147279030" lon="-96.438778690">
        <ele>3113.200</ele>
        <time>2020-02-04T19:09:09Z</time>
      </trkpt>
      <trkpt lat="17.147280370" lon="-96.438817490">
        <ele>3110.700</ele>
        <time>2020-02-04T19:09:19Z</time>
      </trkpt>
      <trkpt lat="17.147249310" lon="-96.438837110">
        <ele>3102.700</ele>
        <time>2020-02-04T19:09:48Z</time>
      </trkpt>
      <trkpt lat="17.147227500" lon="-96.438867930">
        <ele>3100.800</ele>
        <time>2020-02-04T19:09:54Z</time>
      </trkpt>
      <trkpt lat="17.147234160" lon="-96.438907700">
        <ele>3097.200</ele>
        <time>2020-02-04T19:09:59Z</time>
      </trkpt>
      <trkpt lat="17.147240020" lon="-96.438955570">
        <ele>3096.600</ele>
        <time>2020-02-04T19:10:04Z</time>
      </trkpt>
      <trkpt lat="17.147240320" lon="-96.438998220">
        <ele>3096.700</ele>
        <time>2020-02-04T19:10:10Z</time>
      </trkpt>
      <trkpt lat="17.147231440" lon="-96.439037420">
        <ele>3098.100</ele>
        <time>2020-02-04T19:10:17Z</time>
      </trkpt>
      <trkpt lat="17.147215390" lon="-96.439077440">
        <ele>3098.600</ele>
        <time>2020-02-04T19:10:25Z</time>
      </trkpt>
      <trkpt lat="17.147211620" lon="-96.439119200">
        <ele>3095.100</ele>
        <time>2020-02-04T19:10:32Z</time>
      </trkpt>
      <trkpt lat="17.147208440" lon="-96.439161000">
        <ele>3094.300</ele>
        <time>2020-02-04T19:10:40Z</time>
      </trkpt>
      <trkpt lat="17.147200330" lon="-96.439200820">
        <ele>3094.200</ele>
        <time>2020-02-04T19:10:47Z</time>
      </trkpt>
      <trkpt lat="17.147210750" lon="-96.439241930">
        <ele>3091.200</ele>
        <time>2020-02-04T19:10:56Z</time>
      </trkpt>
      <trkpt lat="17.147188460" lon="-96.439274150">
        <ele>3090.800</ele>
        <time>2020-02-04T19:11:01Z</time>
      </trkpt>
      <trkpt lat="17.147168020" lon="-96.439311880">
        <ele>3091.900</ele>
        <time>2020-02-04T19:11:10Z</time>
      </trkpt>
      <trkpt lat="17.147166180" lon="-96.439349450">
        <ele>3089.300</ele>
        <time>2020-02-04T19:11:14Z</time>
      </trkpt>
      <trkpt lat="17.147162610" lon="-96.439393840">
        <ele>3090.700</ele>
        <time>2020-02-04T19:11:19Z</time>
      </trkpt>
      <trkpt lat="17.147136220" lon="-96.439428730">
        <ele>3090.900</ele>
        <time>2020-02-04T19:11:24Z</time>
      </trkpt>
      <trkpt lat="17.147108570" lon="-96.439459820">
        <ele>3090.400</ele>
        <time>2020-02-04T19:11:29Z</time>
      </trkpt>
      <trkpt lat="17.147091630" lon="-96.439497670">
        <ele>3090.100</ele>
        <time>2020-02-04T19:11:35Z</time>
      </trkpt>
      <trkpt lat="17.147131790" lon="-96.439506910">
        <ele>3089.100</ele>
        <time>2020-02-04T19:11:44Z</time>
      </trkpt>
      <trkpt lat="17.147121260" lon="-96.439544980">
        <ele>3087.600</ele>
        <time>2020-02-04T19:13:02Z</time>
      </trkpt>
      <trkpt lat="17.147087090" lon="-96.439568500">
        <ele>3087.600</ele>
        <time>2020-02-04T19:13:10Z</time>
      </trkpt>
      <trkpt lat="17.147059160" lon="-96.439595090">
        <ele>3088.300</ele>
        <time>2020-02-04T19:13:17Z</time>
      </trkpt>
      <trkpt lat="17.147060550" lon="-96.439637210">
        <ele>3086.500</ele>
        <time>2020-02-04T19:13:23Z</time>
      </trkpt>
      <trkpt lat="17.147039130" lon="-96.439671710">
        <ele>3085.600</ele>
        <time>2020-02-04T19:13:29Z</time>
      </trkpt>
      <trkpt lat="17.147008810" lon="-96.439696940">
        <ele>3084.200</ele>
        <time>2020-02-04T19:13:34Z</time>
      </trkpt>
      <trkpt lat="17.146983310" lon="-96.439724680">
        <ele>3084.900</ele>
        <time>2020-02-04T19:13:51Z</time>
      </trkpt>
      <trkpt lat="17.146955800" lon="-96.439753130">
        <ele>3084.400</ele>
        <time>2020-02-04T19:13:59Z</time>
      </trkpt>
      <trkpt lat="17.146917170" lon="-96.439770690">
        <ele>3084.700</ele>
        <time>2020-02-04T19:14:06Z</time>
      </trkpt>
      <trkpt lat="17.146883810" lon="-96.439790930">
        <ele>3083.100</ele>
        <time>2020-02-04T19:14:12Z</time>
      </trkpt>
      <trkpt lat="17.146848630" lon="-96.439811650">
        <ele>3082.600</ele>
        <time>2020-02-04T19:14:16Z</time>
      </trkpt>
      <trkpt lat="17.146806120" lon="-96.439814590">
        <ele>3081.400</ele>
        <time>2020-02-04T19:14:22Z</time>
      </trkpt>
      <trkpt lat="17.146772380" lon="-96.439790920">
        <ele>3085.300</ele>
        <time>2020-02-04T19:14:27Z</time>
      </trkpt>
      <trkpt lat="17.146737190" lon="-96.439775050">
        <ele>3085.600</ele>
        <time>2020-02-04T19:14:33Z</time>
      </trkpt>
      <trkpt lat="17.146695920" lon="-96.439787800">
        <ele>3084.600</ele>
        <time>2020-02-04T19:14:37Z</time>
      </trkpt>
      <trkpt lat="17.146657090" lon="-96.439809130">
        <ele>3085.800</ele>
        <time>2020-02-04T19:14:42Z</time>
      </trkpt>
      <trkpt lat="17.146614720" lon="-96.439817660">
        <ele>3087.800</ele>
        <time>2020-02-04T19:14:48Z</time>
      </trkpt>
      <trkpt lat="17.146577880" lon="-96.439808960">
        <ele>3088.300</ele>
        <time>2020-02-04T19:14:52Z</time>
      </trkpt>
      <trkpt lat="17.146547690" lon="-96.439839920">
        <ele>3088.000</ele>
        <time>2020-02-04T19:14:59Z</time>
      </trkpt>
      <trkpt lat="17.146515090" lon="-96.439859800">
        <ele>3088.200</ele>
        <time>2020-02-04T19:15:05Z</time>
      </trkpt>
      <trkpt lat="17.146477590" lon="-96.439873090">
        <ele>3088.400</ele>
        <time>2020-02-04T19:15:10Z</time>
      </trkpt>
      <trkpt lat="17.146439810" lon="-96.439883660">
        <ele>3089.200</ele>
        <time>2020-02-04T19:15:15Z</time>
      </trkpt>
      <trkpt lat="17.146395400" lon="-96.439884070">
        <ele>3088.300</ele>
        <time>2020-02-04T19:15:21Z</time>
      </trkpt>
      <trkpt lat="17.146360260" lon="-96.439900100">
        <ele>3088.600</ele>
        <time>2020-02-04T19:15:26Z</time>
      </trkpt>
      <trkpt lat="17.146321130" lon="-96.439906500">
        <ele>3087.100</ele>
        <time>2020-02-04T19:15:32Z</time>
      </trkpt>
      <trkpt lat="17.146286200" lon="-96.439919010">
        <ele>3085.800</ele>
        <time>2020-02-04T19:15:39Z</time>
      </trkpt>
      <trkpt lat="17.146245500" lon="-96.439926220">
        <ele>3087.200</ele>
        <time>2020-02-04T19:15:53Z</time>
      </trkpt>
      <trkpt lat="17.146219710" lon="-96.439899880">
        <ele>3086.700</ele>
        <time>2020-02-04T19:16:00Z</time>
      </trkpt>
      <trkpt lat="17.146186940" lon="-96.439921500">
        <ele>3085.600</ele>
        <time>2020-02-04T19:16:07Z</time>
      </trkpt>
      <trkpt lat="17.146144130" lon="-96.439936090">
        <ele>3086.500</ele>
        <time>2020-02-04T19:16:12Z</time>
      </trkpt>
      <trkpt lat="17.146117550" lon="-96.439962700">
        <ele>3083.500</ele>
        <time>2020-02-04T19:16:17Z</time>
      </trkpt>
      <trkpt lat="17.146086310" lon="-96.439985650">
        <ele>3083.200</ele>
        <time>2020-02-04T19:16:21Z</time>
      </trkpt>
      <trkpt lat="17.146077250" lon="-96.440022820">
        <ele>3083.100</ele>
        <time>2020-02-04T19:18:16Z</time>
      </trkpt>
      <trkpt lat="17.146050510" lon="-96.440054910">
        <ele>3082.200</ele>
        <time>2020-02-04T19:18:23Z</time>
      </trkpt>
      <trkpt lat="17.146020750" lon="-96.440090160">
        <ele>3078.400</ele>
        <time>2020-02-04T19:18:31Z</time>
      </trkpt>
      <trkpt lat="17.145990330" lon="-96.440111920">
        <ele>3077.000</ele>
        <time>2020-02-04T19:18:38Z</time>
      </trkpt>
      <trkpt lat="17.145955810" lon="-96.440129880">
        <ele>3073.600</ele>
        <time>2020-02-04T19:18:59Z</time>
      </trkpt>
      <trkpt lat="17.145931860" lon="-96.440163470">
        <ele>3072.700</ele>
        <time>2020-02-04T19:19:06Z</time>
      </trkpt>
      <trkpt lat="17.145902720" lon="-96.440188970">
        <ele>3072.400</ele>
        <time>2020-02-04T19:19:11Z</time>
      </trkpt>
      <trkpt lat="17.145871930" lon="-96.440208670">
        <ele>3072.200</ele>
        <time>2020-02-04T19:19:16Z</time>
      </trkpt>
      <trkpt lat="17.145834050" lon="-96.440215920">
        <ele>3069.700</ele>
        <time>2020-02-04T19:19:30Z</time>
      </trkpt>
      <trkpt lat="17.145796850" lon="-96.440221660">
        <ele>3068.600</ele>
        <time>2020-02-04T19:19:37Z</time>
      </trkpt>
      <trkpt lat="17.145771660" lon="-96.440253360">
        <ele>3068.600</ele>
        <time>2020-02-04T19:19:45Z</time>
      </trkpt>
      <trkpt lat="17.145738600" lon="-96.440283210">
        <ele>3067.500</ele>
        <time>2020-02-04T19:19:51Z</time>
      </trkpt>
      <trkpt lat="17.145706190" lon="-96.440303820">
        <ele>3068.300</ele>
        <time>2020-02-04T19:19:57Z</time>
      </trkpt>
      <trkpt lat="17.145669440" lon="-96.440310120">
        <ele>3069.200</ele>
        <time>2020-02-04T19:20:04Z</time>
      </trkpt>
      <trkpt lat="17.145642370" lon="-96.440335640">
        <ele>3068.200</ele>
        <time>2020-02-04T19:20:09Z</time>
      </trkpt>
      <trkpt lat="17.145609620" lon="-96.440362880">
        <ele>3067.200</ele>
        <time>2020-02-04T19:20:15Z</time>
      </trkpt>
      <trkpt lat="17.145577580" lon="-96.440380340">
        <ele>3066.900</ele>
        <time>2020-02-04T19:20:21Z</time>
      </trkpt>
      <trkpt lat="17.145540930" lon="-96.440371970">
        <ele>3067.600</ele>
        <time>2020-02-04T19:20:31Z</time>
      </trkpt>
      <trkpt lat="17.145498870" lon="-96.440373320">
        <ele>3063.700</ele>
        <time>2020-02-04T19:20:37Z</time>
      </trkpt>
      <trkpt lat="17.145462820" lon="-96.440389010">
        <ele>3063.600</ele>
        <time>2020-02-04T19:20:41Z</time>
      </trkpt>
      <trkpt lat="17.145429030" lon="-96.440402850">
        <ele>3063.600</ele>
        <time>2020-02-04T19:20:45Z</time>
      </trkpt>
      <trkpt lat="17.145386300" lon="-96.440414510">
        <ele>3064.400</ele>
        <time>2020-02-04T19:20:49Z</time>
      </trkpt>
      <trkpt lat="17.145346230" lon="-96.440422070">
        <ele>3064.300</ele>
        <time>2020-02-04T19:20:53Z</time>
      </trkpt>
      <trkpt lat="17.145305770" lon="-96.440438380">
        <ele>3065.200</ele>
        <time>2020-02-04T19:20:57Z</time>
      </trkpt>
      <trkpt lat="17.145265680" lon="-96.440454470">
        <ele>3064.500</ele>
        <time>2020-02-04T19:21:03Z</time>
      </trkpt>
      <trkpt lat="17.145235120" lon="-96.440475550">
        <ele>3064.700</ele>
        <time>2020-02-04T19:21:09Z</time>
      </trkpt>
      <trkpt lat="17.145200510" lon="-96.440489790">
        <ele>3063.400</ele>
        <time>2020-02-04T19:21:14Z</time>
      </trkpt>
      <trkpt lat="17.145160020" lon="-96.440495500">
        <ele>3060.900</ele>
        <time>2020-02-04T19:21:21Z</time>
      </trkpt>
      <trkpt lat="17.145140570" lon="-96.440530270">
        <ele>3060.000</ele>
        <time>2020-02-04T19:21:25Z</time>
      </trkpt>
      <trkpt lat="17.145111520" lon="-96.440565250">
        <ele>3059.200</ele>
        <time>2020-02-04T19:21:29Z</time>
      </trkpt>
      <trkpt lat="17.145082630" lon="-96.440595580">
        <ele>3059.800</ele>
        <time>2020-02-04T19:21:33Z</time>
      </trkpt>
      <trkpt lat="17.145071070" lon="-96.440634640">
        <ele>3057.800</ele>
        <time>2020-02-04T19:21:36Z</time>
      </trkpt>
      <trkpt lat="17.145054880" lon="-96.440676200">
        <ele>3055.300</ele>
        <time>2020-02-04T19:21:40Z</time>
      </trkpt>
      <trkpt lat="17.145021920" lon="-96.440704590">
        <ele>3056.500</ele>
        <time>2020-02-04T19:21:44Z</time>
      </trkpt>
      <trkpt lat="17.144977720" lon="-96.440707910">
        <ele>3056.000</ele>
        <time>2020-02-04T19:21:47Z</time>
      </trkpt>
      <trkpt lat="17.144939180" lon="-96.440731200">
        <ele>3056.200</ele>
        <time>2020-02-04T19:21:52Z</time>
      </trkpt>
      <trkpt lat="17.144902320" lon="-96.440736360">
        <ele>3056.200</ele>
        <time>2020-02-04T19:21:56Z</time>
      </trkpt>
      <trkpt lat="17.144865880" lon="-96.440735650">
        <ele>3058.300</ele>
        <time>2020-02-04T19:22:01Z</time>
      </trkpt>
      <trkpt lat="17.144827360" lon="-96.440743620">
        <ele>3059.100</ele>
        <time>2020-02-04T19:24:11Z</time>
      </trkpt>
      <trkpt lat="17.144785660" lon="-96.440752010">
        <ele>3058.600</ele>
        <time>2020-02-04T19:24:17Z</time>
      </trkpt>
      <trkpt lat="17.144749580" lon="-96.440766400">
        <ele>3057.400</ele>
        <time>2020-02-04T19:24:22Z</time>
      </trkpt>
      <trkpt lat="17.144712890" lon="-96.440784150">
        <ele>3057.300</ele>
        <time>2020-02-04T19:24:27Z</time>
      </trkpt>
      <trkpt lat="17.144679520" lon="-96.440801660">
        <ele>3055.800</ele>
        <time>2020-02-04T19:24:32Z</time>
      </trkpt>
      <trkpt lat="17.144636940" lon="-96.440807680">
        <ele>3054.500</ele>
        <time>2020-02-04T19:24:37Z</time>
      </trkpt>
      <trkpt lat="17.144605850" lon="-96.440828190">
        <ele>3054.200</ele>
        <time>2020-02-04T19:24:41Z</time>
      </trkpt>
      <trkpt lat="17.144567390" lon="-96.440849440">
        <ele>3052.700</ele>
        <time>2020-02-04T19:24:46Z</time>
      </trkpt>
      <trkpt lat="17.144526650" lon="-96.440844260">
        <ele>3053.400</ele>
        <time>2020-02-04T19:24:51Z</time>
      </trkpt>
      <trkpt lat="17.144493400" lon="-96.440866090">
        <ele>3052.000</ele>
        <time>2020-02-04T19:24:55Z</time>
      </trkpt>
      <trkpt lat="17.144451910" lon="-96.440889440">
        <ele>3053.700</ele>
        <time>2020-02-04T19:24:59Z</time>
      </trkpt>
      <trkpt lat="17.144416030" lon="-96.440912070">
        <ele>3054.600</ele>
        <time>2020-02-04T19:25:03Z</time>
      </trkpt>
      <trkpt lat="17.144374770" lon="-96.440917960">
        <ele>3056.700</ele>
        <time>2020-02-04T19:25:07Z</time>
      </trkpt>
      <trkpt lat="17.144333620" lon="-96.440926960">
        <ele>3055.500</ele>
        <time>2020-02-04T19:25:12Z</time>
      </trkpt>
      <trkpt lat="17.144294270" lon="-96.440930220">
        <ele>3056.300</ele>
        <time>2020-02-04T19:25:17Z</time>
      </trkpt>
      <trkpt lat="17.144255460" lon="-96.440948770">
        <ele>3057.000</ele>
        <time>2020-02-04T19:25:21Z</time>
      </trkpt>
      <trkpt lat="17.144213410" lon="-96.440966640">
        <ele>3057.600</ele>
        <time>2020-02-04T19:25:25Z</time>
      </trkpt>
      <trkpt lat="17.144181610" lon="-96.440995920">
        <ele>3056.300</ele>
        <time>2020-02-04T19:25:29Z</time>
      </trkpt>
      <trkpt lat="17.144136220" lon="-96.441007910">
        <ele>3055.600</ele>
        <time>2020-02-04T19:25:34Z</time>
      </trkpt>
      <trkpt lat="17.144104370" lon="-96.441028800">
        <ele>3055.500</ele>
        <time>2020-02-04T19:25:37Z</time>
      </trkpt>
      <trkpt lat="17.144068840" lon="-96.441057940">
        <ele>3054.300</ele>
        <time>2020-02-04T19:25:41Z</time>
      </trkpt>
      <trkpt lat="17.144047320" lon="-96.441093730">
        <ele>3052.900</ele>
        <time>2020-02-04T19:25:43Z</time>
      </trkpt>
      <trkpt lat="17.144025730" lon="-96.441124060">
        <ele>3052.800</ele>
        <time>2020-02-04T19:25:45Z</time>
      </trkpt>
      <trkpt lat="17.143995540" lon="-96.441154830">
        <ele>3051.300</ele>
        <time>2020-02-04T19:25:48Z</time>
      </trkpt>
      <trkpt lat="17.143964020" lon="-96.441192250">
        <ele>3049.900</ele>
        <time>2020-02-04T19:25:51Z</time>
      </trkpt>
      <trkpt lat="17.143942920" lon="-96.441225040">
        <ele>3050.900</ele>
        <time>2020-02-04T19:25:54Z</time>
      </trkpt>
      <trkpt lat="17.143902280" lon="-96.441235930">
        <ele>3050.300</ele>
        <time>2020-02-04T19:25:59Z</time>
      </trkpt>
      <trkpt lat="17.143865750" lon="-96.441234470">
        <ele>3050.100</ele>
        <time>2020-02-04T19:26:03Z</time>
      </trkpt>
      <trkpt lat="17.143827790" lon="-96.441246850">
        <ele>3051.400</ele>
        <time>2020-02-04T19:26:08Z</time>
      </trkpt>
      <trkpt lat="17.143793130" lon="-96.441273400">
        <ele>3052.800</ele>
        <time>2020-02-04T19:26:12Z</time>
      </trkpt>
      <trkpt lat="17.143762910" lon="-96.441298360">
        <ele>3053.700</ele>
        <time>2020-02-04T19:26:16Z</time>
      </trkpt>
      <trkpt lat="17.143727570" lon="-96.441322780">
        <ele>3054.000</ele>
        <time>2020-02-04T19:26:20Z</time>
      </trkpt>
      <trkpt lat="17.143694880" lon="-96.441346710">
        <ele>3054.900</ele>
        <time>2020-02-04T19:26:24Z</time>
      </trkpt>
      <trkpt lat="17.143662240" lon="-96.441363930">
        <ele>3055.300</ele>
        <time>2020-02-04T19:26:28Z</time>
      </trkpt>
      <trkpt lat="17.143626060" lon="-96.441389180">
        <ele>3054.000</ele>
        <time>2020-02-04T19:26:32Z</time>
      </trkpt>
      <trkpt lat="17.143584460" lon="-96.441406410">
        <ele>3054.000</ele>
        <time>2020-02-04T19:26:37Z</time>
      </trkpt>
      <trkpt lat="17.143552080" lon="-96.441426110">
        <ele>3053.200</ele>
        <time>2020-02-04T19:26:41Z</time>
      </trkpt>
      <trkpt lat="17.143519220" lon="-96.441453760">
        <ele>3052.200</ele>
        <time>2020-02-04T19:26:45Z</time>
      </trkpt>
      <trkpt lat="17.143486410" lon="-96.441477070">
        <ele>3051.900</ele>
        <time>2020-02-04T19:26:49Z</time>
      </trkpt>
      <trkpt lat="17.143455780" lon="-96.441502830">
        <ele>3050.800</ele>
        <time>2020-02-04T19:26:53Z</time>
      </trkpt>
      <trkpt lat="17.143423680" lon="-96.441536730">
        <ele>3050.800</ele>
        <time>2020-02-04T19:26:57Z</time>
      </trkpt>
      <trkpt lat="17.143395340" lon="-96.441560560">
        <ele>3051.500</ele>
        <time>2020-02-04T19:27:01Z</time>
      </trkpt>
      <trkpt lat="17.143357910" lon="-96.441578210">
        <ele>3050.700</ele>
        <time>2020-02-04T19:27:05Z</time>
      </trkpt>
      <trkpt lat="17.143324700" lon="-96.441597880">
        <ele>3049.600</ele>
        <time>2020-02-04T19:27:08Z</time>
      </trkpt>
      <trkpt lat="17.143282030" lon="-96.441616300">
        <ele>3050.000</ele>
        <time>2020-02-04T19:27:12Z</time>
      </trkpt>
      <trkpt lat="17.143242840" lon="-96.441624360">
        <ele>3051.900</ele>
        <time>2020-02-04T19:27:16Z</time>
      </trkpt>
      <trkpt lat="17.143201390" lon="-96.441624640">
        <ele>3051.900</ele>
        <time>2020-02-04T19:27:21Z</time>
      </trkpt>
      <trkpt lat="17.143154070" lon="-96.441630770">
        <ele>3051.900</ele>
        <time>2020-02-04T19:27:26Z</time>
      </trkpt>
      <trkpt lat="17.143111740" lon="-96.441631520">
        <ele>3051.400</ele>
        <time>2020-02-04T19:27:31Z</time>
      </trkpt>
      <trkpt lat="17.143074210" lon="-96.441636050">
        <ele>3051.600</ele>
        <time>2020-02-04T19:27:35Z</time>
      </trkpt>
      <trkpt lat="17.143038630" lon="-96.441665240">
        <ele>3052.100</ele>
        <time>2020-02-04T19:27:39Z</time>
      </trkpt>
      <trkpt lat="17.143002300" lon="-96.441672050">
        <ele>3053.800</ele>
        <time>2020-02-04T19:27:43Z</time>
      </trkpt>
      <trkpt lat="17.142962220" lon="-96.441672920">
        <ele>3054.600</ele>
        <time>2020-02-04T19:27:48Z</time>
      </trkpt>
      <trkpt lat="17.142946460" lon="-96.441710780">
        <ele>3053.500</ele>
        <time>2020-02-04T19:27:53Z</time>
      </trkpt>
      <trkpt lat="17.142949960" lon="-96.441755730">
        <ele>3051.500</ele>
        <time>2020-02-04T19:27:58Z</time>
      </trkpt>
      <trkpt lat="17.142952790" lon="-96.441801270">
        <ele>3048.900</ele>
        <time>2020-02-04T19:28:02Z</time>
      </trkpt>
      <trkpt lat="17.142954930" lon="-96.441843400">
        <ele>3049.400</ele>
        <time>2020-02-04T19:28:07Z</time>
      </trkpt>
      <trkpt lat="17.142948000" lon="-96.441882780">
        <ele>3051.600</ele>
        <time>2020-02-04T19:28:11Z</time>
      </trkpt>
      <trkpt lat="17.142937970" lon="-96.441922780">
        <ele>3054.800</ele>
        <time>2020-02-04T19:28:16Z</time>
      </trkpt>
      <trkpt lat="17.142925970" lon="-96.441960240">
        <ele>3057.500</ele>
        <time>2020-02-04T19:28:21Z</time>
      </trkpt>
      <trkpt lat="17.142922010" lon="-96.441998660">
        <ele>3056.600</ele>
        <time>2020-02-04T19:28:25Z</time>
      </trkpt>
      <trkpt lat="17.142918590" lon="-96.442044060">
        <ele>3057.500</ele>
        <time>2020-02-04T19:28:30Z</time>
      </trkpt>
      <trkpt lat="17.142924460" lon="-96.442081930">
        <ele>3056.200</ele>
        <time>2020-02-04T19:28:35Z</time>
      </trkpt>
      <trkpt lat="17.142922200" lon="-96.442124730">
        <ele>3058.000</ele>
        <time>2020-02-04T19:28:41Z</time>
      </trkpt>
      <trkpt lat="17.142908390" lon="-96.442163510">
        <ele>3056.900</ele>
        <time>2020-02-04T19:28:47Z</time>
      </trkpt>
      <trkpt lat="17.142898010" lon="-96.442201570">
        <ele>3057.700</ele>
        <time>2020-02-04T19:28:54Z</time>
      </trkpt>
      <trkpt lat="17.142894810" lon="-96.442240310">
        <ele>3059.100</ele>
        <time>2020-02-04T19:29:01Z</time>
      </trkpt>
      <trkpt lat="17.142896680" lon="-96.442279910">
        <ele>3063.400</ele>
        <time>2020-02-04T19:29:08Z</time>
      </trkpt>
      <trkpt lat="17.142892080" lon="-96.442319740">
        <ele>3066.600</ele>
        <time>2020-02-04T19:29:14Z</time>
      </trkpt>
      <trkpt lat="17.142892010" lon="-96.442359410">
        <ele>3068.400</ele>
        <time>2020-02-04T19:29:21Z</time>
      </trkpt>
      <trkpt lat="17.142894320" lon="-96.442397840">
        <ele>3069.600</ele>
        <time>2020-02-04T19:29:25Z</time>
      </trkpt>
      <trkpt lat="17.142894960" lon="-96.442438690">
        <ele>3070.200</ele>
        <time>2020-02-04T19:29:32Z</time>
      </trkpt>
      <trkpt lat="17.142889660" lon="-96.442476180">
        <ele>3068.800</ele>
        <time>2020-02-04T19:29:35Z</time>
      </trkpt>
      <trkpt lat="17.142892740" lon="-96.442513990">
        <ele>3067.700</ele>
        <time>2020-02-04T19:29:40Z</time>
      </trkpt>
      <trkpt lat="17.142897950" lon="-96.442553440">
        <ele>3066.100</ele>
        <time>2020-02-04T19:29:46Z</time>
      </trkpt>
      <trkpt lat="17.142889890" lon="-96.442591910">
        <ele>3071.500</ele>
        <time>2020-02-04T19:29:53Z</time>
      </trkpt>
      <trkpt lat="17.142874270" lon="-96.442633170">
        <ele>3068.300</ele>
        <time>2020-02-04T19:29:59Z</time>
      </trkpt>
      <trkpt lat="17.142876070" lon="-96.442672430">
        <ele>3067.100</ele>
        <time>2020-02-04T19:30:15Z</time>
      </trkpt>
      <trkpt lat="17.142881570" lon="-96.442714410">
        <ele>3066.500</ele>
        <time>2020-02-04T19:31:18Z</time>
      </trkpt>
      <trkpt lat="17.142883900" lon="-96.442756300">
        <ele>3064.500</ele>
        <time>2020-02-04T19:31:22Z</time>
      </trkpt>
      <trkpt lat="17.142889660" lon="-96.442794440">
        <ele>3066.200</ele>
        <time>2020-02-04T19:31:25Z</time>
      </trkpt>
      <trkpt lat="17.142891370" lon="-96.442838570">
        <ele>3068.400</ele>
        <time>2020-02-04T19:31:30Z</time>
      </trkpt>
      <trkpt lat="17.142895770" lon="-96.442886790">
        <ele>3067.500</ele>
        <time>2020-02-04T19:31:35Z</time>
      </trkpt>
      <trkpt lat="17.142907550" lon="-96.442927410">
        <ele>3069.200</ele>
        <time>2020-02-04T19:31:39Z</time>
      </trkpt>
      <trkpt lat="17.142912090" lon="-96.442968120">
        <ele>3069.000</ele>
        <time>2020-02-04T19:31:43Z</time>
      </trkpt>
      <trkpt lat="17.142918590" lon="-96.443009850">
        <ele>3070.400</ele>
        <time>2020-02-04T19:31:47Z</time>
      </trkpt>
      <trkpt lat="17.142921730" lon="-96.443050110">
        <ele>3069.500</ele>
        <time>2020-02-04T19:31:51Z</time>
      </trkpt>
      <trkpt lat="17.142929110" lon="-96.443094660">
        <ele>3070.300</ele>
        <time>2020-02-04T19:31:55Z</time>
      </trkpt>
      <trkpt lat="17.142933190" lon="-96.443141800">
        <ele>3072.600</ele>
        <time>2020-02-04T19:32:00Z</time>
      </trkpt>
      <trkpt lat="17.142934590" lon="-96.443185820">
        <ele>3075.800</ele>
        <time>2020-02-04T19:32:04Z</time>
      </trkpt>
      <trkpt lat="17.142921500" lon="-96.443222130">
        <ele>3078.200</ele>
        <time>2020-02-04T19:32:09Z</time>
      </trkpt>
      <trkpt lat="17.142924760" lon="-96.443264480">
        <ele>3079.500</ele>
        <time>2020-02-04T19:32:15Z</time>
      </trkpt>
      <trkpt lat="17.142928370" lon="-96.443302240">
        <ele>3079.600</ele>
        <time>2020-02-04T19:33:29Z</time>
      </trkpt>
      <trkpt lat="17.142900780" lon="-96.443331600">
        <ele>3080.700</ele>
        <time>2020-02-04T19:34:33Z</time>
      </trkpt>
      <trkpt lat="17.142864460" lon="-96.443356950">
        <ele>3082.400</ele>
        <time>2020-02-04T19:34:37Z</time>
      </trkpt>
      <trkpt lat="17.142832980" lon="-96.443387360">
        <ele>3087.600</ele>
        <time>2020-02-04T19:34:43Z</time>
      </trkpt>
      <trkpt lat="17.142807160" lon="-96.443418260">
        <ele>3087.600</ele>
        <time>2020-02-04T19:34:49Z</time>
      </trkpt>
      <trkpt lat="17.142785410" lon="-96.443449330">
        <ele>3091.100</ele>
        <time>2020-02-04T19:34:54Z</time>
      </trkpt>
      <trkpt lat="17.142766690" lon="-96.443485520">
        <ele>3092.100</ele>
        <time>2020-02-04T19:34:59Z</time>
      </trkpt>
      <trkpt lat="17.142742780" lon="-96.443518890">
        <ele>3093.400</ele>
        <time>2020-02-04T19:35:03Z</time>
      </trkpt>
      <trkpt lat="17.142740470" lon="-96.443563920">
        <ele>3088.700</ele>
        <time>2020-02-04T19:35:07Z</time>
      </trkpt>
      <trkpt lat="17.142753250" lon="-96.443599670">
        <ele>3085.300</ele>
        <time>2020-02-04T19:36:22Z</time>
      </trkpt>
      <trkpt lat="17.142711940" lon="-96.443611470">
        <ele>3083.100</ele>
        <time>2020-02-04T19:38:04Z</time>
      </trkpt>
      <trkpt lat="17.142668440" lon="-96.443624110">
        <ele>3083.900</ele>
        <time>2020-02-04T19:38:10Z</time>
      </trkpt>
      <trkpt lat="17.142632880" lon="-96.443636150">
        <ele>3084.400</ele>
        <time>2020-02-04T19:38:16Z</time>
      </trkpt>
      <trkpt lat="17.142591140" lon="-96.443654380">
        <ele>3082.800</ele>
        <time>2020-02-04T19:38:21Z</time>
      </trkpt>
      <trkpt lat="17.142555010" lon="-96.443684060">
        <ele>3082.300</ele>
        <time>2020-02-04T19:38:25Z</time>
      </trkpt>
      <trkpt lat="17.142526540" lon="-96.443713190">
        <ele>3083.400</ele>
        <time>2020-02-04T19:38:29Z</time>
      </trkpt>
      <trkpt lat="17.142504010" lon="-96.443752740">
        <ele>3084.100</ele>
        <time>2020-02-04T19:38:34Z</time>
      </trkpt>
      <trkpt lat="17.142503230" lon="-96.443797080">
        <ele>3083.000</ele>
        <time>2020-02-04T19:38:38Z</time>
      </trkpt>
      <trkpt lat="17.142486180" lon="-96.443836690">
        <ele>3085.400</ele>
        <time>2020-02-04T19:38:42Z</time>
      </trkpt>
      <trkpt lat="17.142467200" lon="-96.443872710">
        <ele>3088.700</ele>
        <time>2020-02-04T19:38:46Z</time>
      </trkpt>
      <trkpt lat="17.142456890" lon="-96.443916060">
        <ele>3092.200</ele>
        <time>2020-02-04T19:38:50Z</time>
      </trkpt>
      <trkpt lat="17.142447280" lon="-96.443956380">
        <ele>3093.500</ele>
        <time>2020-02-04T19:38:55Z</time>
      </trkpt>
      <trkpt lat="17.142451450" lon="-96.443996180">
        <ele>3093.300</ele>
        <time>2020-02-04T19:38:59Z</time>
      </trkpt>
      <trkpt lat="17.142442490" lon="-96.444039720">
        <ele>3093.900</ele>
        <time>2020-02-04T19:39:04Z</time>
      </trkpt>
      <trkpt lat="17.142437520" lon="-96.444077440">
        <ele>3093.500</ele>
        <time>2020-02-04T19:39:07Z</time>
      </trkpt>
      <trkpt lat="17.142436460" lon="-96.444121310">
        <ele>3090.200</ele>
        <time>2020-02-04T19:39:11Z</time>
      </trkpt>
      <trkpt lat="17.142449550" lon="-96.444165940">
        <ele>3092.600</ele>
        <time>2020-02-04T19:39:17Z</time>
      </trkpt>
      <trkpt lat="17.142475920" lon="-96.444194450">
        <ele>3092.500</ele>
        <time>2020-02-04T19:39:22Z</time>
      </trkpt>
      <trkpt lat="17.142503790" lon="-96.444224130">
        <ele>3095.800</ele>
        <time>2020-02-04T19:39:26Z</time>
      </trkpt>
      <trkpt lat="17.142527650" lon="-96.444265310">
        <ele>3093.200</ele>
        <time>2020-02-04T19:39:30Z</time>
      </trkpt>
      <trkpt lat="17.142545410" lon="-96.444301000">
        <ele>3092.500</ele>
        <time>2020-02-04T19:39:33Z</time>
      </trkpt>
      <trkpt lat="17.142575690" lon="-96.444325400">
        <ele>3090.300</ele>
        <time>2020-02-04T19:39:37Z</time>
      </trkpt>
      <trkpt lat="17.142592690" lon="-96.444363100">
        <ele>3089.200</ele>
        <time>2020-02-04T19:39:42Z</time>
      </trkpt>
      <trkpt lat="17.142606610" lon="-96.444401390">
        <ele>3092.800</ele>
        <time>2020-02-04T19:39:52Z</time>
      </trkpt>
      <trkpt lat="17.142611910" lon="-96.444439220">
        <ele>3093.700</ele>
        <time>2020-02-04T19:39:58Z</time>
      </trkpt>
      <trkpt lat="17.142610860" lon="-96.444477000">
        <ele>3093.900</ele>
        <time>2020-02-04T19:40:01Z</time>
      </trkpt>
      <trkpt lat="17.142599080" lon="-96.444520890">
        <ele>3093.400</ele>
        <time>2020-02-04T19:40:05Z</time>
      </trkpt>
      <trkpt lat="17.142597180" lon="-96.444566090">
        <ele>3093.800</ele>
        <time>2020-02-04T19:40:09Z</time>
      </trkpt>
      <trkpt lat="17.142590250" lon="-96.444614230">
        <ele>3097.300</ele>
        <time>2020-02-04T19:40:13Z</time>
      </trkpt>
      <trkpt lat="17.142584900" lon="-96.444654420">
        <ele>3100.500</ele>
        <time>2020-02-04T19:40:17Z</time>
      </trkpt>
      <trkpt lat="17.142596660" lon="-96.444695730">
        <ele>3098.100</ele>
        <time>2020-02-04T19:40:22Z</time>
      </trkpt>
      <trkpt lat="17.142607630" lon="-96.444735880">
        <ele>3098.400</ele>
        <time>2020-02-04T19:40:28Z</time>
      </trkpt>
      <trkpt lat="17.142622370" lon="-96.444774390">
        <ele>3095.600</ele>
        <time>2020-02-04T19:40:34Z</time>
      </trkpt>
      <trkpt lat="17.142630510" lon="-96.444818870">
        <ele>3094.600</ele>
        <time>2020-02-04T19:40:41Z</time>
      </trkpt>
      <trkpt lat="17.142644280" lon="-96.444859270">
        <ele>3093.000</ele>
        <time>2020-02-04T19:40:46Z</time>
      </trkpt>
      <trkpt lat="17.142637850" lon="-96.444899020">
        <ele>3095.500</ele>
        <time>2020-02-04T19:40:52Z</time>
      </trkpt>
      <trkpt lat="17.142653620" lon="-96.444935200">
        <ele>3094.200</ele>
        <time>2020-02-04T19:40:59Z</time>
      </trkpt>
      <trkpt lat="17.142653390" lon="-96.444974550">
        <ele>3089.600</ele>
        <time>2020-02-04T19:41:05Z</time>
      </trkpt>
      <trkpt lat="17.142649660" lon="-96.445020410">
        <ele>3089.900</ele>
        <time>2020-02-04T19:41:10Z</time>
      </trkpt>
      <trkpt lat="17.142640980" lon="-96.445059630">
        <ele>3088.900</ele>
        <time>2020-02-04T19:41:15Z</time>
      </trkpt>
      <trkpt lat="17.142628430" lon="-96.445098050">
        <ele>3088.600</ele>
        <time>2020-02-04T19:41:20Z</time>
      </trkpt>
      <trkpt lat="17.142623890" lon="-96.445138090">
        <ele>3083.800</ele>
        <time>2020-02-04T19:41:25Z</time>
      </trkpt>
      <trkpt lat="17.142609280" lon="-96.445177480">
        <ele>3084.200</ele>
        <time>2020-02-04T19:41:30Z</time>
      </trkpt>
      <trkpt lat="17.142595910" lon="-96.445213720">
        <ele>3083.800</ele>
        <time>2020-02-04T19:41:35Z</time>
      </trkpt>
      <trkpt lat="17.142614500" lon="-96.445256250">
        <ele>3085.600</ele>
        <time>2020-02-04T19:41:39Z</time>
      </trkpt>
      <trkpt lat="17.142642090" lon="-96.445292250">
        <ele>3086.800</ele>
        <time>2020-02-04T19:41:43Z</time>
      </trkpt>
      <trkpt lat="17.142669550" lon="-96.445322280">
        <ele>3086.300</ele>
        <time>2020-02-04T19:41:46Z</time>
      </trkpt>
      <trkpt lat="17.142696800" lon="-96.445356960">
        <ele>3088.600</ele>
        <time>2020-02-04T19:41:50Z</time>
      </trkpt>
      <trkpt lat="17.142722690" lon="-96.445386130">
        <ele>3090.500</ele>
        <time>2020-02-04T19:41:55Z</time>
      </trkpt>
      <trkpt lat="17.142752220" lon="-96.445419310">
        <ele>3092.400</ele>
        <time>2020-02-04T19:42:00Z</time>
      </trkpt>
      <trkpt lat="17.142774220" lon="-96.445455210">
        <ele>3097.100</ele>
        <time>2020-02-04T19:42:08Z</time>
      </trkpt>
      <trkpt lat="17.142803540" lon="-96.445482260">
        <ele>3100.100</ele>
        <time>2020-02-04T19:42:15Z</time>
      </trkpt>
      <trkpt lat="17.142835440" lon="-96.445500490">
        <ele>3101.000</ele>
        <time>2020-02-04T19:42:20Z</time>
      </trkpt>
      <trkpt lat="17.142872910" lon="-96.445520760">
        <ele>3101.500</ele>
        <time>2020-02-04T19:42:25Z</time>
      </trkpt>
      <trkpt lat="17.142909080" lon="-96.445545290">
        <ele>3098.600</ele>
        <time>2020-02-04T19:42:31Z</time>
      </trkpt>
      <trkpt lat="17.142940220" lon="-96.445564510">
        <ele>3098.500</ele>
        <time>2020-02-04T19:42:36Z</time>
      </trkpt>
      <trkpt lat="17.142965370" lon="-96.445606690">
        <ele>3099.400</ele>
        <time>2020-02-04T19:42:40Z</time>
      </trkpt>
      <trkpt lat="17.142998490" lon="-96.445630350">
        <ele>3099.200</ele>
        <time>2020-02-04T19:42:44Z</time>
      </trkpt>
      <trkpt lat="17.143034590" lon="-96.445645270">
        <ele>3096.000</ele>
        <time>2020-02-04T19:42:48Z</time>
      </trkpt>
      <trkpt lat="17.143048660" lon="-96.445685630">
        <ele>3092.800</ele>
        <time>2020-02-04T19:42:53Z</time>
      </trkpt>
      <trkpt lat="17.143037040" lon="-96.445725990">
        <ele>3094.500</ele>
        <time>2020-02-04T19:42:59Z</time>
      </trkpt>
      <trkpt lat="17.143072360" lon="-96.445734990">
        <ele>3093.400</ele>
        <time>2020-02-04T19:43:12Z</time>
      </trkpt>
      <trkpt lat="17.143037850" lon="-96.445747110">
        <ele>3092.700</ele>
        <time>2020-02-04T19:44:57Z</time>
      </trkpt>
      <trkpt lat="17.143020050" lon="-96.445780320">
        <ele>3096.700</ele>
        <time>2020-02-04T19:45:03Z</time>
      </trkpt>
      <trkpt lat="17.142996620" lon="-96.445815860">
        <ele>3099.700</ele>
        <time>2020-02-04T19:45:14Z</time>
      </trkpt>
      <trkpt lat="17.142969940" lon="-96.445848970">
        <ele>3099.700</ele>
        <time>2020-02-04T19:45:19Z</time>
      </trkpt>
      <trkpt lat="17.142946660" lon="-96.445878830">
        <ele>3098.500</ele>
        <time>2020-02-04T19:45:23Z</time>
      </trkpt>
      <trkpt lat="17.142924280" lon="-96.445914370">
        <ele>3099.900</ele>
        <time>2020-02-04T19:45:28Z</time>
      </trkpt>
      <trkpt lat="17.142898800" lon="-96.445947580">
        <ele>3100.000</ele>
        <time>2020-02-04T19:45:32Z</time>
      </trkpt>
      <trkpt lat="17.142883590" lon="-96.445984520">
        <ele>3104.700</ele>
        <time>2020-02-04T19:45:38Z</time>
      </trkpt>
      <trkpt lat="17.142865830" lon="-96.446024270">
        <ele>3109.000</ele>
        <time>2020-02-04T19:45:47Z</time>
      </trkpt>
      <trkpt lat="17.142858570" lon="-96.446070030">
        <ele>3111.100</ele>
        <time>2020-02-04T19:45:51Z</time>
      </trkpt>
      <trkpt lat="17.142862760" lon="-96.446109780">
        <ele>3110.900</ele>
        <time>2020-02-04T19:45:54Z</time>
      </trkpt>
      <trkpt lat="17.142877070" lon="-96.446149630">
        <ele>3109.500</ele>
        <time>2020-02-04T19:45:57Z</time>
      </trkpt>
      <trkpt lat="17.142888710" lon="-96.446189040">
        <ele>3106.400</ele>
        <time>2020-02-04T19:46:00Z</time>
      </trkpt>
      <trkpt lat="17.142885650" lon="-96.446234480">
        <ele>3104.300</ele>
        <time>2020-02-04T19:46:04Z</time>
      </trkpt>
      <trkpt lat="17.142869430" lon="-96.446271460">
        <ele>3101.800</ele>
        <time>2020-02-04T19:46:49Z</time>
      </trkpt>
      <trkpt lat="17.142865440" lon="-96.446317300">
        <ele>3101.100</ele>
        <time>2020-02-04T19:46:56Z</time>
      </trkpt>
      <trkpt lat="17.142860980" lon="-96.446355020">
        <ele>3099.800</ele>
        <time>2020-02-04T19:47:00Z</time>
      </trkpt>
      <trkpt lat="17.142838250" lon="-96.446389340">
        <ele>3100.400</ele>
        <time>2020-02-04T19:47:06Z</time>
      </trkpt>
      <trkpt lat="17.142826130" lon="-96.446424940">
        <ele>3101.500</ele>
        <time>2020-02-04T19:47:11Z</time>
      </trkpt>
      <trkpt lat="17.142818520" lon="-96.446462840">
        <ele>3096.800</ele>
        <time>2020-02-04T19:47:15Z</time>
      </trkpt>
      <trkpt lat="17.142807550" lon="-96.446506640">
        <ele>3100.700</ele>
        <time>2020-02-04T19:47:20Z</time>
      </trkpt>
      <trkpt lat="17.142793840" lon="-96.446545090">
        <ele>3101.100</ele>
        <time>2020-02-04T19:47:24Z</time>
      </trkpt>
      <trkpt lat="17.142771960" lon="-96.446580150">
        <ele>3104.400</ele>
        <time>2020-02-04T19:47:29Z</time>
      </trkpt>
      <trkpt lat="17.142740740" lon="-96.446599790">
        <ele>3105.900</ele>
        <time>2020-02-04T19:47:35Z</time>
      </trkpt>
      <trkpt lat="17.142700480" lon="-96.446609660">
        <ele>3109.100</ele>
        <time>2020-02-04T19:47:47Z</time>
      </trkpt>
      <trkpt lat="17.142674880" lon="-96.446639670">
        <ele>3110.000</ele>
        <time>2020-02-04T19:47:52Z</time>
      </trkpt>
      <trkpt lat="17.142640120" lon="-96.446658430">
        <ele>3110.000</ele>
        <time>2020-02-04T19:48:05Z</time>
      </trkpt>
      <trkpt lat="17.142614730" lon="-96.446696600">
        <ele>3107.700</ele>
        <time>2020-02-04T19:48:12Z</time>
      </trkpt>
      <trkpt lat="17.142604790" lon="-96.446735330">
        <ele>3108.800</ele>
        <time>2020-02-04T19:48:18Z</time>
      </trkpt>
      <trkpt lat="17.142577980" lon="-96.446762360">
        <ele>3106.300</ele>
        <time>2020-02-04T19:48:22Z</time>
      </trkpt>
      <trkpt lat="17.142551770" lon="-96.446789740">
        <ele>3106.100</ele>
        <time>2020-02-04T19:48:26Z</time>
      </trkpt>
      <trkpt lat="17.142518570" lon="-96.446813840">
        <ele>3105.700</ele>
        <time>2020-02-04T19:48:30Z</time>
      </trkpt>
      <trkpt lat="17.142485140" lon="-96.446828880">
        <ele>3106.100</ele>
        <time>2020-02-04T19:48:35Z</time>
      </trkpt>
      <trkpt lat="17.142451570" lon="-96.446856450">
        <ele>3105.000</ele>
        <time>2020-02-04T19:48:41Z</time>
      </trkpt>
      <trkpt lat="17.142423490" lon="-96.446880520">
        <ele>3106.200</ele>
        <time>2020-02-04T19:48:46Z</time>
      </trkpt>
      <trkpt lat="17.142384380" lon="-96.446886540">
        <ele>3105.800</ele>
        <time>2020-02-04T19:48:53Z</time>
      </trkpt>
      <trkpt lat="17.142351540" lon="-96.446903840">
        <ele>3106.100</ele>
        <time>2020-02-04T19:49:05Z</time>
      </trkpt>
      <trkpt lat="17.142314000" lon="-96.446926120">
        <ele>3103.100</ele>
        <time>2020-02-04T19:49:23Z</time>
      </trkpt>
      <trkpt lat="17.142277230" lon="-96.446924120">
        <ele>3101.600</ele>
        <time>2020-02-04T19:49:28Z</time>
      </trkpt>
      <trkpt lat="17.142240400" lon="-96.446932300">
        <ele>3101.800</ele>
        <time>2020-02-04T19:49:33Z</time>
      </trkpt>
      <trkpt lat="17.142197490" lon="-96.446932220">
        <ele>3102.300</ele>
        <time>2020-02-04T19:49:38Z</time>
      </trkpt>
      <trkpt lat="17.142153730" lon="-96.446933900">
        <ele>3102.700</ele>
        <time>2020-02-04T19:49:42Z</time>
      </trkpt>
      <trkpt lat="17.142115940" lon="-96.446914500">
        <ele>3102.100</ele>
        <time>2020-02-04T19:49:46Z</time>
      </trkpt>
      <trkpt lat="17.142073640" lon="-96.446915910">
        <ele>3100.300</ele>
        <time>2020-02-04T19:49:50Z</time>
      </trkpt>
      <trkpt lat="17.142043660" lon="-96.446942040">
        <ele>3101.500</ele>
        <time>2020-02-04T19:49:54Z</time>
      </trkpt>
      <trkpt lat="17.142013390" lon="-96.446967910">
        <ele>3101.700</ele>
        <time>2020-02-04T19:49:58Z</time>
      </trkpt>
      <trkpt lat="17.141978560" lon="-96.446989360">
        <ele>3101.000</ele>
        <time>2020-02-04T19:50:03Z</time>
      </trkpt>
      <trkpt lat="17.141945930" lon="-96.447005960">
        <ele>3100.600</ele>
        <time>2020-02-04T19:50:34Z</time>
      </trkpt>
      <trkpt lat="17.141909930" lon="-96.447027260">
        <ele>3101.900</ele>
        <time>2020-02-04T19:50:39Z</time>
      </trkpt>
      <trkpt lat="17.141873980" lon="-96.447050880">
        <ele>3102.300</ele>
        <time>2020-02-04T19:50:43Z</time>
      </trkpt>
      <trkpt lat="17.141847510" lon="-96.447076960">
        <ele>3101.700</ele>
        <time>2020-02-04T19:50:46Z</time>
      </trkpt>
      <trkpt lat="17.141810600" lon="-96.447097480">
        <ele>3101.800</ele>
        <time>2020-02-04T19:50:50Z</time>
      </trkpt>
      <trkpt lat="17.141772540" lon="-96.447118820">
        <ele>3100.400</ele>
        <time>2020-02-04T19:50:54Z</time>
      </trkpt>
      <trkpt lat="17.141734600" lon="-96.447139650">
        <ele>3102.300</ele>
        <time>2020-02-04T19:50:59Z</time>
      </trkpt>
      <trkpt lat="17.141706500" lon="-96.447173320">
        <ele>3100.800</ele>
        <time>2020-02-04T19:51:16Z</time>
      </trkpt>
      <trkpt lat="17.141673900" lon="-96.447195090">
        <ele>3098.500</ele>
        <time>2020-02-04T19:51:45Z</time>
      </trkpt>
      <trkpt lat="17.141646960" lon="-96.447228170">
        <ele>3097.800</ele>
        <time>2020-02-04T19:51:50Z</time>
      </trkpt>
      <trkpt lat="17.141611020" lon="-96.447249740">
        <ele>3097.000</ele>
        <time>2020-02-04T19:51:54Z</time>
      </trkpt>
      <trkpt lat="17.141568830" lon="-96.447258510">
        <ele>3099.000</ele>
        <time>2020-02-04T19:52:01Z</time>
      </trkpt>
      <trkpt lat="17.141536180" lon="-96.447281770">
        <ele>3101.700</ele>
        <time>2020-02-04T19:52:07Z</time>
      </trkpt>
      <trkpt lat="17.141498380" lon="-96.447306290">
        <ele>3104.400</ele>
        <time>2020-02-04T19:52:11Z</time>
      </trkpt>
      <trkpt lat="17.141469950" lon="-96.447334630">
        <ele>3105.500</ele>
        <time>2020-02-04T19:52:14Z</time>
      </trkpt>
      <trkpt lat="17.141441960" lon="-96.447360490">
        <ele>3107.200</ele>
        <time>2020-02-04T19:52:17Z</time>
      </trkpt>
      <trkpt lat="17.141414350" lon="-96.447394070">
        <ele>3109.900</ele>
        <time>2020-02-04T19:52:20Z</time>
      </trkpt>
      <trkpt lat="17.141392850" lon="-96.447424770">
        <ele>3111.400</ele>
        <time>2020-02-04T19:52:23Z</time>
      </trkpt>
      <trkpt lat="17.141364510" lon="-96.447457300">
        <ele>3110.900</ele>
        <time>2020-02-04T19:52:29Z</time>
      </trkpt>
      <trkpt lat="17.141338410" lon="-96.447496040">
        <ele>3110.000</ele>
        <time>2020-02-04T19:52:34Z</time>
      </trkpt>
      <trkpt lat="17.141305730" lon="-96.447515690">
        <ele>3109.300</ele>
        <time>2020-02-04T19:52:38Z</time>
      </trkpt>
      <trkpt lat="17.141281570" lon="-96.447543880">
        <ele>3106.200</ele>
        <time>2020-02-04T19:52:42Z</time>
      </trkpt>
      <trkpt lat="17.141247460" lon="-96.447564370">
        <ele>3104.300</ele>
        <time>2020-02-04T19:52:49Z</time>
      </trkpt>
      <trkpt lat="17.141217010" lon="-96.447595230">
        <ele>3105.100</ele>
        <time>2020-02-04T19:52:53Z</time>
      </trkpt>
      <trkpt lat="17.141180890" lon="-96.447613180">
        <ele>3107.400</ele>
        <time>2020-02-04T19:52:58Z</time>
      </trkpt>
      <trkpt lat="17.141153070" lon="-96.447641840">
        <ele>3109.900</ele>
        <time>2020-02-04T19:53:05Z</time>
      </trkpt>
      <trkpt lat="17.141120590" lon="-96.447664340">
        <ele>3112.500</ele>
        <time>2020-02-04T19:53:12Z</time>
      </trkpt>
      <trkpt lat="17.141098960" lon="-96.447697160">
        <ele>3109.500</ele>
        <time>2020-02-04T19:53:16Z</time>
      </trkpt>
      <trkpt lat="17.141065710" lon="-96.447722570">
        <ele>3107.200</ele>
        <time>2020-02-04T19:53:20Z</time>
      </trkpt>
      <trkpt lat="17.141035230" lon="-96.447751540">
        <ele>3107.300</ele>
        <time>2020-02-04T19:53:25Z</time>
      </trkpt>
      <trkpt lat="17.141009530" lon="-96.447780190">
        <ele>3107.400</ele>
        <time>2020-02-04T19:53:29Z</time>
      </trkpt>
      <trkpt lat="17.140979510" lon="-96.447804710">
        <ele>3108.500</ele>
        <time>2020-02-04T19:53:33Z</time>
      </trkpt>
      <trkpt lat="17.140957090" lon="-96.447834980">
        <ele>3109.100</ele>
        <time>2020-02-04T19:53:37Z</time>
      </trkpt>
      <trkpt lat="17.140941340" lon="-96.447876940">
        <ele>3108.500</ele>
        <time>2020-02-04T19:53:41Z</time>
      </trkpt>
      <trkpt lat="17.140940680" lon="-96.447921250">
        <ele>3106.200</ele>
        <time>2020-02-04T19:53:46Z</time>
      </trkpt>
      <trkpt lat="17.140912100" lon="-96.447960560">
        <ele>3106.200</ele>
        <time>2020-02-04T19:53:50Z</time>
      </trkpt>
      <trkpt lat="17.140881510" lon="-96.447982810">
        <ele>3107.500</ele>
        <time>2020-02-04T19:53:53Z</time>
      </trkpt>
      <trkpt lat="17.140851050" lon="-96.448004540">
        <ele>3109.700</ele>
        <time>2020-02-04T19:53:56Z</time>
      </trkpt>
      <trkpt lat="17.140824370" lon="-96.448032740">
        <ele>3111.500</ele>
        <time>2020-02-04T19:54:00Z</time>
      </trkpt>
      <trkpt lat="17.140805890" lon="-96.448067220">
        <ele>3111.400</ele>
        <time>2020-02-04T19:54:04Z</time>
      </trkpt>
      <trkpt lat="17.140791520" lon="-96.448108600">
        <ele>3112.400</ele>
        <time>2020-02-04T19:54:08Z</time>
      </trkpt>
      <trkpt lat="17.140774630" lon="-96.448147750">
        <ele>3111.500</ele>
        <time>2020-02-04T19:54:12Z</time>
      </trkpt>
      <trkpt lat="17.140765860" lon="-96.448190460">
        <ele>3107.900</ele>
        <time>2020-02-04T19:54:17Z</time>
      </trkpt>
      <trkpt lat="17.140759440" lon="-96.448228170">
        <ele>3106.300</ele>
        <time>2020-02-04T19:54:23Z</time>
      </trkpt>
      <trkpt lat="17.140743040" lon="-96.448262660">
        <ele>3105.500</ele>
        <time>2020-02-04T19:54:32Z</time>
      </trkpt>
      <trkpt lat="17.140723560" lon="-96.448300830">
        <ele>3104.200</ele>
        <time>2020-02-04T19:54:39Z</time>
      </trkpt>
      <trkpt lat="17.140701460" lon="-96.448333950">
        <ele>3103.100</ele>
        <time>2020-02-04T19:55:42Z</time>
      </trkpt>
      <trkpt lat="17.140664560" lon="-96.448363350">
        <ele>3106.000</ele>
        <time>2020-02-04T19:55:47Z</time>
      </trkpt>
      <trkpt lat="17.140624950" lon="-96.448384070">
        <ele>3106.700</ele>
        <time>2020-02-04T19:55:52Z</time>
      </trkpt>
      <trkpt lat="17.140605630" lon="-96.448416860">
        <ele>3107.300</ele>
        <time>2020-02-04T19:55:57Z</time>
      </trkpt>
      <trkpt lat="17.140621070" lon="-96.448453550">
        <ele>3104.200</ele>
        <time>2020-02-04T19:56:01Z</time>
      </trkpt>
      <trkpt lat="17.140620140" lon="-96.448497410">
        <ele>3102.300</ele>
        <time>2020-02-04T19:56:14Z</time>
      </trkpt>
      <trkpt lat="17.140601640" lon="-96.448537230">
        <ele>3103.100</ele>
        <time>2020-02-04T19:56:19Z</time>
      </trkpt>
      <trkpt lat="17.140577030" lon="-96.448574850">
        <ele>3104.800</ele>
        <time>2020-02-04T19:56:23Z</time>
      </trkpt>
      <trkpt lat="17.140557520" lon="-96.448611420">
        <ele>3107.600</ele>
        <time>2020-02-04T19:56:27Z</time>
      </trkpt>
      <trkpt lat="17.140529470" lon="-96.448644030">
        <ele>3106.800</ele>
        <time>2020-02-04T19:56:31Z</time>
      </trkpt>
      <trkpt lat="17.140506470" lon="-96.448680700">
        <ele>3107.700</ele>
        <time>2020-02-04T19:56:35Z</time>
      </trkpt>
      <trkpt lat="17.140502170" lon="-96.448725530">
        <ele>3108.500</ele>
        <time>2020-02-04T19:56:39Z</time>
      </trkpt>
      <trkpt lat="17.140496450" lon="-96.448764860">
        <ele>3109.600</ele>
        <time>2020-02-04T19:56:43Z</time>
      </trkpt>
      <trkpt lat="17.140484370" lon="-96.448803030">
        <ele>3108.900</ele>
        <time>2020-02-04T19:56:47Z</time>
      </trkpt>
      <trkpt lat="17.140473230" lon="-96.448840740">
        <ele>3109.100</ele>
        <time>2020-02-04T19:56:58Z</time>
      </trkpt>
      <trkpt lat="17.140473430" lon="-96.448885030">
        <ele>3104.600</ele>
        <time>2020-02-04T19:57:04Z</time>
      </trkpt>
      <trkpt lat="17.140470900" lon="-96.448924040">
        <ele>3105.900</ele>
        <time>2020-02-04T19:57:11Z</time>
      </trkpt>
      <trkpt lat="17.140463160" lon="-96.448963730">
        <ele>3106.900</ele>
        <time>2020-02-04T19:57:15Z</time>
      </trkpt>
      <trkpt lat="17.140465540" lon="-96.449007740">
        <ele>3105.000</ele>
        <time>2020-02-04T19:57:21Z</time>
      </trkpt>
      <trkpt lat="17.140472810" lon="-96.449048450">
        <ele>3106.500</ele>
        <time>2020-02-04T19:57:26Z</time>
      </trkpt>
      <trkpt lat="17.140490070" lon="-96.449083760">
        <ele>3104.500</ele>
        <time>2020-02-04T19:57:29Z</time>
      </trkpt>
      <trkpt lat="17.140514630" lon="-96.449120560">
        <ele>3105.200</ele>
        <time>2020-02-04T19:57:33Z</time>
      </trkpt>
      <trkpt lat="17.140516320" lon="-96.449163230">
        <ele>3105.500</ele>
        <time>2020-02-04T19:57:37Z</time>
      </trkpt>
      <trkpt lat="17.140516350" lon="-96.449211070">
        <ele>3106.700</ele>
        <time>2020-02-04T19:57:41Z</time>
      </trkpt>
      <trkpt lat="17.140519840" lon="-96.449248570">
        <ele>3104.900</ele>
        <time>2020-02-04T19:57:46Z</time>
      </trkpt>
      <trkpt lat="17.140513450" lon="-96.449293480">
        <ele>3105.700</ele>
        <time>2020-02-04T19:57:51Z</time>
      </trkpt>
      <trkpt lat="17.140493230" lon="-96.449328090">
        <ele>3105.900</ele>
        <time>2020-02-04T19:57:56Z</time>
      </trkpt>
      <trkpt lat="17.140474920" lon="-96.449365040">
        <ele>3105.400</ele>
        <time>2020-02-04T19:58:02Z</time>
      </trkpt>
      <trkpt lat="17.140455220" lon="-96.449402210">
        <ele>3105.700</ele>
        <time>2020-02-04T19:58:09Z</time>
      </trkpt>
      <trkpt lat="17.140449530" lon="-96.449441490">
        <ele>3104.500</ele>
        <time>2020-02-04T19:58:14Z</time>
      </trkpt>
      <trkpt lat="17.140419990" lon="-96.449484750">
        <ele>3104.800</ele>
        <time>2020-02-04T19:58:19Z</time>
      </trkpt>
      <trkpt lat="17.140396780" lon="-96.449520840">
        <ele>3109.100</ele>
        <time>2020-02-04T19:58:22Z</time>
      </trkpt>
      <trkpt lat="17.140406470" lon="-96.449558670">
        <ele>3109.400</ele>
        <time>2020-02-04T20:01:06Z</time>
      </trkpt>
      <trkpt lat="17.140445770" lon="-96.449562200">
        <ele>3107.100</ele>
        <time>2020-02-04T20:01:39Z</time>
      </trkpt>
      <trkpt lat="17.140473900" lon="-96.449531870">
        <ele>3108.000</ele>
        <time>2020-02-04T20:01:43Z</time>
      </trkpt>
      <trkpt lat="17.140506410" lon="-96.449512790">
        <ele>3107.000</ele>
        <time>2020-02-04T20:01:47Z</time>
      </trkpt>
      <trkpt lat="17.140466790" lon="-96.449512600">
        <ele>3103.800</ele>
        <time>2020-02-04T20:02:47Z</time>
      </trkpt>
      <trkpt lat="17.140431070" lon="-96.449535320">
        <ele>3106.100</ele>
        <time>2020-02-04T20:02:51Z</time>
      </trkpt>
      <trkpt lat="17.140401560" lon="-96.449563650">
        <ele>3106.100</ele>
        <time>2020-02-04T20:02:56Z</time>
      </trkpt>
      <trkpt lat="17.140362010" lon="-96.449585930">
        <ele>3105.800</ele>
        <time>2020-02-04T20:03:00Z</time>
      </trkpt>
      <trkpt lat="17.140325110" lon="-96.449602590">
        <ele>3104.900</ele>
        <time>2020-02-04T20:03:04Z</time>
      </trkpt>
      <trkpt lat="17.140293330" lon="-96.449624230">
        <ele>3104.100</ele>
        <time>2020-02-04T20:03:08Z</time>
      </trkpt>
      <trkpt lat="17.140256820" lon="-96.449644340">
        <ele>3106.100</ele>
        <time>2020-02-04T20:03:12Z</time>
      </trkpt>
      <trkpt lat="17.140223180" lon="-96.449665560">
        <ele>3108.800</ele>
        <time>2020-02-04T20:03:16Z</time>
      </trkpt>
      <trkpt lat="17.140184600" lon="-96.449684940">
        <ele>3110.700</ele>
        <time>2020-02-04T20:03:20Z</time>
      </trkpt>
      <trkpt lat="17.140155170" lon="-96.449708920">
        <ele>3110.800</ele>
        <time>2020-02-04T20:03:24Z</time>
      </trkpt>
      <trkpt lat="17.140127770" lon="-96.449748650">
        <ele>3109.600</ele>
        <time>2020-02-04T20:03:28Z</time>
      </trkpt>
      <trkpt lat="17.140086390" lon="-96.449769060">
        <ele>3108.100</ele>
        <time>2020-02-04T20:03:32Z</time>
      </trkpt>
      <trkpt lat="17.140047080" lon="-96.449789650">
        <ele>3109.100</ele>
        <time>2020-02-04T20:03:35Z</time>
      </trkpt>
      <trkpt lat="17.140011480" lon="-96.449809840">
        <ele>3108.800</ele>
        <time>2020-02-04T20:03:39Z</time>
      </trkpt>
      <trkpt lat="17.139973930" lon="-96.449837500">
        <ele>3108.700</ele>
        <time>2020-02-04T20:03:42Z</time>
      </trkpt>
      <trkpt lat="17.139945640" lon="-96.449876380">
        <ele>3109.300</ele>
        <time>2020-02-04T20:03:45Z</time>
      </trkpt>
      <trkpt lat="17.139922830" lon="-96.449911210">
        <ele>3108.900</ele>
        <time>2020-02-04T20:03:48Z</time>
      </trkpt>
      <trkpt lat="17.139926450" lon="-96.449959710">
        <ele>3108.500</ele>
        <time>2020-02-04T20:03:54Z</time>
      </trkpt>
      <trkpt lat="17.139920330" lon="-96.449998520">
        <ele>3106.500</ele>
        <time>2020-02-04T20:04:15Z</time>
      </trkpt>
      <trkpt lat="17.139916410" lon="-96.450039280">
        <ele>3102.300</ele>
        <time>2020-02-04T20:08:40Z</time>
      </trkpt>
      <trkpt lat="17.139881310" lon="-96.450054900">
        <ele>3100.000</ele>
        <time>2020-02-04T20:16:28Z</time>
      </trkpt>
      <trkpt lat="17.139844860" lon="-96.450042940">
        <ele>3100.300</ele>
        <time>2020-02-04T20:16:38Z</time>
      </trkpt>
      <trkpt lat="17.139808830" lon="-96.450033540">
        <ele>3099.300</ele>
        <time>2020-02-04T20:16:42Z</time>
      </trkpt>
      <trkpt lat="17.139768910" lon="-96.450046330">
        <ele>3100.800</ele>
        <time>2020-02-04T20:16:48Z</time>
      </trkpt>
      <trkpt lat="17.139727970" lon="-96.450057120">
        <ele>3100.700</ele>
        <time>2020-02-04T20:16:53Z</time>
      </trkpt>
      <trkpt lat="17.139683430" lon="-96.450066740">
        <ele>3102.800</ele>
        <time>2020-02-04T20:16:59Z</time>
      </trkpt>
      <trkpt lat="17.139645120" lon="-96.450090770">
        <ele>3103.300</ele>
        <time>2020-02-04T20:17:03Z</time>
      </trkpt>
      <trkpt lat="17.139597910" lon="-96.450102620">
        <ele>3101.700</ele>
        <time>2020-02-04T20:17:06Z</time>
      </trkpt>
      <trkpt lat="17.139557470" lon="-96.450115300">
        <ele>3103.700</ele>
        <time>2020-02-04T20:17:10Z</time>
      </trkpt>
      <trkpt lat="17.139527520" lon="-96.450140980">
        <ele>3105.000</ele>
        <time>2020-02-04T20:17:14Z</time>
      </trkpt>
      <trkpt lat="17.139497540" lon="-96.450167600">
        <ele>3105.200</ele>
        <time>2020-02-04T20:17:18Z</time>
      </trkpt>
      <trkpt lat="17.139464550" lon="-96.450184950">
        <ele>3105.900</ele>
        <time>2020-02-04T20:17:22Z</time>
      </trkpt>
      <trkpt lat="17.139434260" lon="-96.450208870">
        <ele>3107.700</ele>
        <time>2020-02-04T20:17:26Z</time>
      </trkpt>
      <trkpt lat="17.139397470" lon="-96.450230290">
        <ele>3108.500</ele>
        <time>2020-02-04T20:17:30Z</time>
      </trkpt>
      <trkpt lat="17.139371890" lon="-96.450268780">
        <ele>3113.400</ele>
        <time>2020-02-04T20:17:35Z</time>
      </trkpt>
      <trkpt lat="17.139356710" lon="-96.450307730">
        <ele>3115.300</ele>
        <time>2020-02-04T20:17:40Z</time>
      </trkpt>
      <trkpt lat="17.139370640" lon="-96.450342640">
        <ele>3118.000</ele>
        <time>2020-02-04T20:18:59Z</time>
      </trkpt>
      <trkpt lat="17.139347180" lon="-96.450375130">
        <ele>3119.000</ele>
        <time>2020-02-04T20:19:04Z</time>
      </trkpt>
      <trkpt lat="17.139323210" lon="-96.450405510">
        <ele>3120.000</ele>
        <time>2020-02-04T20:19:07Z</time>
      </trkpt>
      <trkpt lat="17.139307360" lon="-96.450454160">
        <ele>3120.000</ele>
        <time>2020-02-04T20:19:11Z</time>
      </trkpt>
      <trkpt lat="17.139291830" lon="-96.450498160">
        <ele>3119.900</ele>
        <time>2020-02-04T20:19:15Z</time>
      </trkpt>
      <trkpt lat="17.139285770" lon="-96.450538410">
        <ele>3117.800</ele>
        <time>2020-02-04T20:19:19Z</time>
      </trkpt>
      <trkpt lat="17.139267290" lon="-96.450574060">
        <ele>3116.000</ele>
        <time>2020-02-04T20:19:24Z</time>
      </trkpt>
      <trkpt lat="17.139241720" lon="-96.450602360">
        <ele>3116.900</ele>
        <time>2020-02-04T20:19:28Z</time>
      </trkpt>
      <trkpt lat="17.139216700" lon="-96.450634590">
        <ele>3117.500</ele>
        <time>2020-02-04T20:19:33Z</time>
      </trkpt>
      <trkpt lat="17.139184760" lon="-96.450662470">
        <ele>3114.500</ele>
        <time>2020-02-04T20:19:37Z</time>
      </trkpt>
      <trkpt lat="17.139155640" lon="-96.450694780">
        <ele>3116.800</ele>
        <time>2020-02-04T20:19:41Z</time>
      </trkpt>
      <trkpt lat="17.139134200" lon="-96.450726160">
        <ele>3120.000</ele>
        <time>2020-02-04T20:19:46Z</time>
      </trkpt>
      <trkpt lat="17.139098950" lon="-96.450754320">
        <ele>3119.300</ele>
        <time>2020-02-04T20:19:51Z</time>
      </trkpt>
      <trkpt lat="17.139068130" lon="-96.450774120">
        <ele>3116.700</ele>
        <time>2020-02-04T20:19:55Z</time>
      </trkpt>
      <trkpt lat="17.139031510" lon="-96.450802750">
        <ele>3116.700</ele>
        <time>2020-02-04T20:20:00Z</time>
      </trkpt>
      <trkpt lat="17.138995000" lon="-96.450825930">
        <ele>3116.900</ele>
        <time>2020-02-04T20:20:05Z</time>
      </trkpt>
      <trkpt lat="17.138967520" lon="-96.450854530">
        <ele>3119.400</ele>
        <time>2020-02-04T20:20:10Z</time>
      </trkpt>
      <trkpt lat="17.138952690" lon="-96.450896770">
        <ele>3116.900</ele>
        <time>2020-02-04T20:20:17Z</time>
      </trkpt>
      <trkpt lat="17.138935660" lon="-96.450935450">
        <ele>3119.100</ele>
        <time>2020-02-04T20:20:23Z</time>
      </trkpt>
      <trkpt lat="17.138904940" lon="-96.450961610">
        <ele>3121.000</ele>
        <time>2020-02-04T20:20:28Z</time>
      </trkpt>
      <trkpt lat="17.138864470" lon="-96.450980860">
        <ele>3121.900</ele>
        <time>2020-02-04T20:20:33Z</time>
      </trkpt>
      <trkpt lat="17.138840090" lon="-96.451016360">
        <ele>3123.500</ele>
        <time>2020-02-04T20:20:39Z</time>
      </trkpt>
      <trkpt lat="17.138812520" lon="-96.451042530">
        <ele>3123.900</ele>
        <time>2020-02-04T20:20:42Z</time>
      </trkpt>
      <trkpt lat="17.138781830" lon="-96.451070120">
        <ele>3122.800</ele>
        <time>2020-02-04T20:20:45Z</time>
      </trkpt>
      <trkpt lat="17.138750010" lon="-96.451097630">
        <ele>3122.600</ele>
        <time>2020-02-04T20:20:49Z</time>
      </trkpt>
      <trkpt lat="17.138708220" lon="-96.451118460">
        <ele>3121.300</ele>
        <time>2020-02-04T20:20:53Z</time>
      </trkpt>
      <trkpt lat="17.138666400" lon="-96.451122680">
        <ele>3118.300</ele>
        <time>2020-02-04T20:20:56Z</time>
      </trkpt>
      <trkpt lat="17.138623120" lon="-96.451121590">
        <ele>3116.100</ele>
        <time>2020-02-04T20:21:00Z</time>
      </trkpt>
      <trkpt lat="17.138583070" lon="-96.451125110">
        <ele>3115.800</ele>
        <time>2020-02-04T20:21:04Z</time>
      </trkpt>
      <trkpt lat="17.138540160" lon="-96.451136520">
        <ele>3115.500</ele>
        <time>2020-02-04T20:21:09Z</time>
      </trkpt>
      <trkpt lat="17.138498060" lon="-96.451137970">
        <ele>3117.000</ele>
        <time>2020-02-04T20:21:14Z</time>
      </trkpt>
      <trkpt lat="17.138461870" lon="-96.451142910">
        <ele>3116.900</ele>
        <time>2020-02-04T20:21:18Z</time>
      </trkpt>
      <trkpt lat="17.138417170" lon="-96.451141780">
        <ele>3119.300</ele>
        <time>2020-02-04T20:21:22Z</time>
      </trkpt>
      <trkpt lat="17.138381590" lon="-96.451149270">
        <ele>3117.900</ele>
        <time>2020-02-04T20:21:25Z</time>
      </trkpt>
      <trkpt lat="17.138344800" lon="-96.451149050">
        <ele>3117.300</ele>
        <time>2020-02-04T20:21:30Z</time>
      </trkpt>
      <trkpt lat="17.138307590" lon="-96.451138110">
        <ele>3118.400</ele>
        <time>2020-02-04T20:21:36Z</time>
      </trkpt>
      <trkpt lat="17.138270610" lon="-96.451136320">
        <ele>3120.500</ele>
        <time>2020-02-04T20:21:41Z</time>
      </trkpt>
      <trkpt lat="17.138232630" lon="-96.451139170">
        <ele>3119.500</ele>
        <time>2020-02-04T20:21:45Z</time>
      </trkpt>
      <trkpt lat="17.138198240" lon="-96.451123970">
        <ele>3121.000</ele>
        <time>2020-02-04T20:21:51Z</time>
      </trkpt>
      <trkpt lat="17.138155540" lon="-96.451106350">
        <ele>3120.700</ele>
        <time>2020-02-04T20:21:55Z</time>
      </trkpt>
      <trkpt lat="17.138110380" lon="-96.451089080">
        <ele>3120.500</ele>
        <time>2020-02-04T20:21:59Z</time>
      </trkpt>
      <trkpt lat="17.138067890" lon="-96.451068750">
        <ele>3122.900</ele>
        <time>2020-02-04T20:22:03Z</time>
      </trkpt>
      <trkpt lat="17.138030650" lon="-96.451056130">
        <ele>3121.900</ele>
        <time>2020-02-04T20:22:08Z</time>
      </trkpt>
      <trkpt lat="17.137994090" lon="-96.451045390">
        <ele>3121.700</ele>
        <time>2020-02-04T20:22:12Z</time>
      </trkpt>
      <trkpt lat="17.137945720" lon="-96.451036110">
        <ele>3124.100</ele>
        <time>2020-02-04T20:22:17Z</time>
      </trkpt>
      <trkpt lat="17.137906010" lon="-96.451032260">
        <ele>3124.500</ele>
        <time>2020-02-04T20:22:21Z</time>
      </trkpt>
      <trkpt lat="17.137868860" lon="-96.451020030">
        <ele>3125.900</ele>
        <time>2020-02-04T20:22:27Z</time>
      </trkpt>
      <trkpt lat="17.137832890" lon="-96.451004310">
        <ele>3124.400</ele>
        <time>2020-02-04T20:22:32Z</time>
      </trkpt>
      <trkpt lat="17.137804060" lon="-96.450981040">
        <ele>3126.600</ele>
        <time>2020-02-04T20:22:37Z</time>
      </trkpt>
      <trkpt lat="17.137764300" lon="-96.450970820">
        <ele>3127.900</ele>
        <time>2020-02-04T20:22:42Z</time>
      </trkpt>
      <trkpt lat="17.137728020" lon="-96.450959350">
        <ele>3127.400</ele>
        <time>2020-02-04T20:22:46Z</time>
      </trkpt>
      <trkpt lat="17.137686370" lon="-96.450954010">
        <ele>3125.100</ele>
        <time>2020-02-04T20:22:49Z</time>
      </trkpt>
      <trkpt lat="17.137650080" lon="-96.450931500">
        <ele>3126.500</ele>
        <time>2020-02-04T20:22:53Z</time>
      </trkpt>
      <trkpt lat="17.137607770" lon="-96.450924140">
        <ele>3127.500</ele>
        <time>2020-02-04T20:22:57Z</time>
      </trkpt>
      <trkpt lat="17.137566960" lon="-96.450913290">
        <ele>3127.600</ele>
        <time>2020-02-04T20:23:02Z</time>
      </trkpt>
      <trkpt lat="17.137526830" lon="-96.450903650">
        <ele>3129.800</ele>
        <time>2020-02-04T20:23:07Z</time>
      </trkpt>
      <trkpt lat="17.137482350" lon="-96.450908280">
        <ele>3129.900</ele>
        <time>2020-02-04T20:23:11Z</time>
      </trkpt>
      <trkpt lat="17.137444380" lon="-96.450897030">
        <ele>3129.700</ele>
        <time>2020-02-04T20:23:15Z</time>
      </trkpt>
      <trkpt lat="17.137409690" lon="-96.450881910">
        <ele>3130.200</ele>
        <time>2020-02-04T20:23:19Z</time>
      </trkpt>
      <trkpt lat="17.137364920" lon="-96.450880060">
        <ele>3130.700</ele>
        <time>2020-02-04T20:23:24Z</time>
      </trkpt>
      <trkpt lat="17.137322100" lon="-96.450881550">
        <ele>3130.300</ele>
        <time>2020-02-04T20:23:28Z</time>
      </trkpt>
      <trkpt lat="17.137285100" lon="-96.450881970">
        <ele>3129.600</ele>
        <time>2020-02-04T20:23:32Z</time>
      </trkpt>
      <trkpt lat="17.137246020" lon="-96.450882630">
        <ele>3131.400</ele>
        <time>2020-02-04T20:23:36Z</time>
      </trkpt>
      <trkpt lat="17.137203380" lon="-96.450881680">
        <ele>3129.700</ele>
        <time>2020-02-04T20:23:40Z</time>
      </trkpt>
      <trkpt lat="17.137163500" lon="-96.450889500">
        <ele>3130.200</ele>
        <time>2020-02-04T20:23:44Z</time>
      </trkpt>
      <trkpt lat="17.137130010" lon="-96.450904110">
        <ele>3130.900</ele>
        <time>2020-02-04T20:23:48Z</time>
      </trkpt>
      <trkpt lat="17.137088790" lon="-96.450912370">
        <ele>3132.000</ele>
        <time>2020-02-04T20:23:53Z</time>
      </trkpt>
      <trkpt lat="17.137051570" lon="-96.450914060">
        <ele>3130.400</ele>
        <time>2020-02-04T20:24:00Z</time>
      </trkpt>
      <trkpt lat="17.137022990" lon="-96.450938010">
        <ele>3128.700</ele>
        <time>2020-02-04T20:24:43Z</time>
      </trkpt>
      <trkpt lat="17.136981210" lon="-96.450950570">
        <ele>3130.100</ele>
        <time>2020-02-04T20:24:48Z</time>
      </trkpt>
      <trkpt lat="17.136946460" lon="-96.450969680">
        <ele>3129.300</ele>
        <time>2020-02-04T20:24:52Z</time>
      </trkpt>
      <trkpt lat="17.136904630" lon="-96.450983040">
        <ele>3127.000</ele>
        <time>2020-02-04T20:24:56Z</time>
      </trkpt>
      <trkpt lat="17.136862010" lon="-96.450993570">
        <ele>3126.800</ele>
        <time>2020-02-04T20:25:00Z</time>
      </trkpt>
      <trkpt lat="17.136828350" lon="-96.451023490">
        <ele>3127.900</ele>
        <time>2020-02-04T20:25:05Z</time>
      </trkpt>
      <trkpt lat="17.136795490" lon="-96.451054140">
        <ele>3128.300</ele>
        <time>2020-02-04T20:25:09Z</time>
      </trkpt>
      <trkpt lat="17.136764310" lon="-96.451079220">
        <ele>3127.600</ele>
        <time>2020-02-04T20:25:12Z</time>
      </trkpt>
      <trkpt lat="17.136733400" lon="-96.451104490">
        <ele>3128.700</ele>
        <time>2020-02-04T20:25:17Z</time>
      </trkpt>
      <trkpt lat="17.136696470" lon="-96.451129010">
        <ele>3128.400</ele>
        <time>2020-02-04T20:25:23Z</time>
      </trkpt>
      <trkpt lat="17.136658780" lon="-96.451150030">
        <ele>3132.800</ele>
        <time>2020-02-04T20:25:27Z</time>
      </trkpt>
      <trkpt lat="17.136630430" lon="-96.451178250">
        <ele>3133.700</ele>
        <time>2020-02-04T20:25:31Z</time>
      </trkpt>
      <trkpt lat="17.136597570" lon="-96.451205970">
        <ele>3134.000</ele>
        <time>2020-02-04T20:25:35Z</time>
      </trkpt>
      <trkpt lat="17.136565280" lon="-96.451225960">
        <ele>3134.100</ele>
        <time>2020-02-04T20:25:39Z</time>
      </trkpt>
      <trkpt lat="17.136523150" lon="-96.451227550">
        <ele>3133.900</ele>
        <time>2020-02-04T20:25:45Z</time>
      </trkpt>
      <trkpt lat="17.136483580" lon="-96.451227680">
        <ele>3133.200</ele>
        <time>2020-02-04T20:25:53Z</time>
      </trkpt>
      <trkpt lat="17.136446750" lon="-96.451211470">
        <ele>3132.200</ele>
        <time>2020-02-04T20:25:59Z</time>
      </trkpt>
      <trkpt lat="17.136412740" lon="-96.451195010">
        <ele>3130.700</ele>
        <time>2020-02-04T20:26:03Z</time>
      </trkpt>
      <trkpt lat="17.136380100" lon="-96.451175880">
        <ele>3131.400</ele>
        <time>2020-02-04T20:26:08Z</time>
      </trkpt>
      <trkpt lat="17.136343670" lon="-96.451165160">
        <ele>3131.200</ele>
        <time>2020-02-04T20:26:13Z</time>
      </trkpt>
      <trkpt lat="17.136298190" lon="-96.451161040">
        <ele>3129.700</ele>
        <time>2020-02-04T20:26:18Z</time>
      </trkpt>
      <trkpt lat="17.136257910" lon="-96.451153520">
        <ele>3129.600</ele>
        <time>2020-02-04T20:26:22Z</time>
      </trkpt>
      <trkpt lat="17.136216040" lon="-96.451139050">
        <ele>3129.600</ele>
        <time>2020-02-04T20:26:27Z</time>
      </trkpt>
      <trkpt lat="17.136176590" lon="-96.451130900">
        <ele>3128.700</ele>
        <time>2020-02-04T20:26:33Z</time>
      </trkpt>
      <trkpt lat="17.136135600" lon="-96.451114840">
        <ele>3129.500</ele>
        <time>2020-02-04T20:26:38Z</time>
      </trkpt>
      <trkpt lat="17.136092990" lon="-96.451105830">
        <ele>3129.300</ele>
        <time>2020-02-04T20:26:43Z</time>
      </trkpt>
      <trkpt lat="17.136056730" lon="-96.451095450">
        <ele>3129.600</ele>
        <time>2020-02-04T20:26:47Z</time>
      </trkpt>
      <trkpt lat="17.136018490" lon="-96.451090570">
        <ele>3129.400</ele>
        <time>2020-02-04T20:26:51Z</time>
      </trkpt>
      <trkpt lat="17.135974780" lon="-96.451079010">
        <ele>3127.700</ele>
        <time>2020-02-04T20:26:56Z</time>
      </trkpt>
      <trkpt lat="17.135939310" lon="-96.451063050">
        <ele>3128.600</ele>
        <time>2020-02-04T20:27:00Z</time>
      </trkpt>
      <trkpt lat="17.135903630" lon="-96.451052990">
        <ele>3129.300</ele>
        <time>2020-02-04T20:27:05Z</time>
      </trkpt>
      <trkpt lat="17.135862460" lon="-96.451043600">
        <ele>3128.800</ele>
        <time>2020-02-04T20:27:10Z</time>
      </trkpt>
      <trkpt lat="17.135830170" lon="-96.451022920">
        <ele>3129.700</ele>
        <time>2020-02-04T20:27:15Z</time>
      </trkpt>
      <trkpt lat="17.135788780" lon="-96.451009660">
        <ele>3131.300</ele>
        <time>2020-02-04T20:27:20Z</time>
      </trkpt>
      <trkpt lat="17.135743460" lon="-96.451004060">
        <ele>3131.100</ele>
        <time>2020-02-04T20:27:24Z</time>
      </trkpt>
      <trkpt lat="17.135703450" lon="-96.450998360">
        <ele>3131.400</ele>
        <time>2020-02-04T20:27:28Z</time>
      </trkpt>
      <trkpt lat="17.135660580" lon="-96.450999950">
        <ele>3131.200</ele>
        <time>2020-02-04T20:27:32Z</time>
      </trkpt>
      <trkpt lat="17.135620640" lon="-96.451001120">
        <ele>3132.400</ele>
        <time>2020-02-04T20:27:36Z</time>
      </trkpt>
      <trkpt lat="17.135574490" lon="-96.450992260">
        <ele>3136.300</ele>
        <time>2020-02-04T20:27:40Z</time>
      </trkpt>
      <trkpt lat="17.135534830" lon="-96.450985980">
        <ele>3138.200</ele>
        <time>2020-02-04T20:27:44Z</time>
      </trkpt>
      <trkpt lat="17.135498100" lon="-96.450986740">
        <ele>3138.800</ele>
        <time>2020-02-04T20:27:48Z</time>
      </trkpt>
      <trkpt lat="17.135463440" lon="-96.450997500">
        <ele>3138.800</ele>
        <time>2020-02-04T20:27:51Z</time>
      </trkpt>
      <trkpt lat="17.135426040" lon="-96.450993730">
        <ele>3138.300</ele>
        <time>2020-02-04T20:27:55Z</time>
      </trkpt>
      <trkpt lat="17.135387030" lon="-96.450998790">
        <ele>3136.600</ele>
        <time>2020-02-04T20:27:59Z</time>
      </trkpt>
      <trkpt lat="17.135349900" lon="-96.451005820">
        <ele>3136.400</ele>
        <time>2020-02-04T20:28:04Z</time>
      </trkpt>
      <trkpt lat="17.135310290" lon="-96.451007770">
        <ele>3136.100</ele>
        <time>2020-02-04T20:28:08Z</time>
      </trkpt>
      <trkpt lat="17.135268470" lon="-96.451011640">
        <ele>3137.300</ele>
        <time>2020-02-04T20:28:12Z</time>
      </trkpt>
      <trkpt lat="17.135232130" lon="-96.451016030">
        <ele>3136.400</ele>
        <time>2020-02-04T20:28:17Z</time>
      </trkpt>
      <trkpt lat="17.135194900" lon="-96.451023040">
        <ele>3134.700</ele>
        <time>2020-02-04T20:28:22Z</time>
      </trkpt>
      <trkpt lat="17.135156080" lon="-96.451036460">
        <ele>3135.700</ele>
        <time>2020-02-04T20:28:27Z</time>
      </trkpt>
      <trkpt lat="17.135121240" lon="-96.451049020">
        <ele>3135.600</ele>
        <time>2020-02-04T20:28:31Z</time>
      </trkpt>
      <trkpt lat="17.135084800" lon="-96.451063330">
        <ele>3135.900</ele>
        <time>2020-02-04T20:28:35Z</time>
      </trkpt>
      <trkpt lat="17.135056780" lon="-96.451092530">
        <ele>3136.500</ele>
        <time>2020-02-04T20:28:39Z</time>
      </trkpt>
      <trkpt lat="17.135022890" lon="-96.451118660">
        <ele>3136.300</ele>
        <time>2020-02-04T20:28:42Z</time>
      </trkpt>
      <trkpt lat="17.134991200" lon="-96.451142290">
        <ele>3136.800</ele>
        <time>2020-02-04T20:28:45Z</time>
      </trkpt>
      <trkpt lat="17.134956790" lon="-96.451165680">
        <ele>3136.700</ele>
        <time>2020-02-04T20:28:49Z</time>
      </trkpt>
      <trkpt lat="17.134924890" lon="-96.451197970">
        <ele>3137.300</ele>
        <time>2020-02-04T20:28:53Z</time>
      </trkpt>
      <trkpt lat="17.134895210" lon="-96.451223260">
        <ele>3137.400</ele>
        <time>2020-02-04T20:28:58Z</time>
      </trkpt>
      <trkpt lat="17.134860910" lon="-96.451242660">
        <ele>3139.400</ele>
        <time>2020-02-04T20:29:04Z</time>
      </trkpt>
      <trkpt lat="17.134831420" lon="-96.451264540">
        <ele>3140.700</ele>
        <time>2020-02-04T20:29:08Z</time>
      </trkpt>
      <trkpt lat="17.134796600" lon="-96.451297750">
        <ele>3142.700</ele>
        <time>2020-02-04T20:29:12Z</time>
      </trkpt>
      <trkpt lat="17.134768530" lon="-96.451324200">
        <ele>3142.400</ele>
        <time>2020-02-04T20:29:15Z</time>
      </trkpt>
      <trkpt lat="17.134733830" lon="-96.451347500">
        <ele>3143.500</ele>
        <time>2020-02-04T20:29:19Z</time>
      </trkpt>
      <trkpt lat="17.134702640" lon="-96.451373580">
        <ele>3142.700</ele>
        <time>2020-02-04T20:29:24Z</time>
      </trkpt>
      <trkpt lat="17.134668020" lon="-96.451387340">
        <ele>3142.400</ele>
        <time>2020-02-04T20:29:31Z</time>
      </trkpt>
      <trkpt lat="17.134628320" lon="-96.451402020">
        <ele>3142.600</ele>
        <time>2020-02-04T20:29:38Z</time>
      </trkpt>
      <trkpt lat="17.134587560" lon="-96.451418490">
        <ele>3140.300</ele>
        <time>2020-02-04T20:29:43Z</time>
      </trkpt>
      <trkpt lat="17.134550270" lon="-96.451432840">
        <ele>3140.400</ele>
        <time>2020-02-04T20:29:47Z</time>
      </trkpt>
      <trkpt lat="17.134515880" lon="-96.451454380">
        <ele>3138.700</ele>
        <time>2020-02-04T20:29:51Z</time>
      </trkpt>
      <trkpt lat="17.134484820" lon="-96.451474080">
        <ele>3137.200</ele>
        <time>2020-02-04T20:29:54Z</time>
      </trkpt>
      <trkpt lat="17.134446950" lon="-96.451498330">
        <ele>3136.700</ele>
        <time>2020-02-04T20:29:58Z</time>
      </trkpt>
      <trkpt lat="17.134411580" lon="-96.451516370">
        <ele>3136.600</ele>
        <time>2020-02-04T20:30:02Z</time>
      </trkpt>
      <trkpt lat="17.134376340" lon="-96.451529890">
        <ele>3136.900</ele>
        <time>2020-02-04T20:30:18Z</time>
      </trkpt>
      <trkpt lat="17.134340690" lon="-96.451548650">
        <ele>3136.100</ele>
        <time>2020-02-04T20:30:22Z</time>
      </trkpt>
      <trkpt lat="17.134303870" lon="-96.451555890">
        <ele>3139.200</ele>
        <time>2020-02-04T20:30:27Z</time>
      </trkpt>
      <trkpt lat="17.134262740" lon="-96.451557170">
        <ele>3141.200</ele>
        <time>2020-02-04T20:30:32Z</time>
      </trkpt>
      <trkpt lat="17.134224170" lon="-96.451557010">
        <ele>3142.600</ele>
        <time>2020-02-04T20:30:37Z</time>
      </trkpt>
      <trkpt lat="17.134179830" lon="-96.451566440">
        <ele>3141.200</ele>
        <time>2020-02-04T20:30:42Z</time>
      </trkpt>
      <trkpt lat="17.134143730" lon="-96.451560130">
        <ele>3142.600</ele>
        <time>2020-02-04T20:30:45Z</time>
      </trkpt>
      <trkpt lat="17.134104690" lon="-96.451562790">
        <ele>3142.900</ele>
        <time>2020-02-04T20:30:49Z</time>
      </trkpt>
      <trkpt lat="17.134066700" lon="-96.451565950">
        <ele>3142.900</ele>
        <time>2020-02-04T20:30:54Z</time>
      </trkpt>
      <trkpt lat="17.134031820" lon="-96.451576660">
        <ele>3142.800</ele>
        <time>2020-02-04T20:30:58Z</time>
      </trkpt>
      <trkpt lat="17.133991940" lon="-96.451569470">
        <ele>3142.600</ele>
        <time>2020-02-04T20:31:03Z</time>
      </trkpt>
      <trkpt lat="17.133955170" lon="-96.451567210">
        <ele>3141.400</ele>
        <time>2020-02-04T20:31:09Z</time>
      </trkpt>
      <trkpt lat="17.133919030" lon="-96.451566650">
        <ele>3141.800</ele>
        <time>2020-02-04T20:31:15Z</time>
      </trkpt>
      <trkpt lat="17.133881730" lon="-96.451561460">
        <ele>3142.500</ele>
        <time>2020-02-04T20:31:21Z</time>
      </trkpt>
      <trkpt lat="17.133846150" lon="-96.451551210">
        <ele>3144.000</ele>
        <time>2020-02-04T20:31:26Z</time>
      </trkpt>
      <trkpt lat="17.133806260" lon="-96.451553350">
        <ele>3142.200</ele>
        <time>2020-02-04T20:31:30Z</time>
      </trkpt>
      <trkpt lat="17.133759450" lon="-96.451549940">
        <ele>3142.800</ele>
        <time>2020-02-04T20:31:35Z</time>
      </trkpt>
      <trkpt lat="17.133718850" lon="-96.451545390">
        <ele>3140.900</ele>
        <time>2020-02-04T20:31:39Z</time>
      </trkpt>
      <trkpt lat="17.133677090" lon="-96.451534830">
        <ele>3141.100</ele>
        <time>2020-02-04T20:31:44Z</time>
      </trkpt>
      <trkpt lat="17.133637200" lon="-96.451543430">
        <ele>3137.100</ele>
        <time>2020-02-04T20:31:48Z</time>
      </trkpt>
      <trkpt lat="17.133600260" lon="-96.451544650">
        <ele>3136.900</ele>
        <time>2020-02-04T20:31:56Z</time>
      </trkpt>
      <trkpt lat="17.133566940" lon="-96.451527460">
        <ele>3136.500</ele>
        <time>2020-02-04T20:32:02Z</time>
      </trkpt>
      <trkpt lat="17.133531330" lon="-96.451513540">
        <ele>3137.900</ele>
        <time>2020-02-04T20:32:06Z</time>
      </trkpt>
      <trkpt lat="17.133494040" lon="-96.451509790">
        <ele>3136.100</ele>
        <time>2020-02-04T20:32:12Z</time>
      </trkpt>
      <trkpt lat="17.133461800" lon="-96.451491990">
        <ele>3133.800</ele>
        <time>2020-02-04T20:32:33Z</time>
      </trkpt>
      <trkpt lat="17.133424120" lon="-96.451491490">
        <ele>3132.700</ele>
        <time>2020-02-04T20:32:37Z</time>
      </trkpt>
      <trkpt lat="17.133384020" lon="-96.451487140">
        <ele>3134.700</ele>
        <time>2020-02-04T20:32:43Z</time>
      </trkpt>
      <trkpt lat="17.133347250" lon="-96.451473940">
        <ele>3134.800</ele>
        <time>2020-02-04T20:32:49Z</time>
      </trkpt>
      <trkpt lat="17.133308920" lon="-96.451488300">
        <ele>3134.900</ele>
        <time>2020-02-04T20:32:55Z</time>
      </trkpt>
      <trkpt lat="17.133263890" lon="-96.451494260">
        <ele>3134.300</ele>
        <time>2020-02-04T20:33:00Z</time>
      </trkpt>
      <trkpt lat="17.133226110" lon="-96.451493410">
        <ele>3133.800</ele>
        <time>2020-02-04T20:33:03Z</time>
      </trkpt>
      <trkpt lat="17.133187940" lon="-96.451490540">
        <ele>3133.800</ele>
        <time>2020-02-04T20:33:13Z</time>
      </trkpt>
      <trkpt lat="17.133149560" lon="-96.451489090">
        <ele>3132.800</ele>
        <time>2020-02-04T20:33:19Z</time>
      </trkpt>
      <trkpt lat="17.133112760" lon="-96.451475110">
        <ele>3132.300</ele>
        <time>2020-02-04T20:33:27Z</time>
      </trkpt>
      <trkpt lat="17.133075980" lon="-96.451476860">
        <ele>3130.400</ele>
        <time>2020-02-04T20:33:31Z</time>
      </trkpt>
      <trkpt lat="17.133032780" lon="-96.451487360">
        <ele>3128.500</ele>
        <time>2020-02-04T20:33:36Z</time>
      </trkpt>
      <trkpt lat="17.132994270" lon="-96.451492810">
        <ele>3129.200</ele>
        <time>2020-02-04T20:33:41Z</time>
      </trkpt>
      <trkpt lat="17.132960950" lon="-96.451507580">
        <ele>3129.300</ele>
        <time>2020-02-04T20:33:46Z</time>
      </trkpt>
      <trkpt lat="17.132921270" lon="-96.451518480">
        <ele>3128.300</ele>
        <time>2020-02-04T20:33:53Z</time>
      </trkpt>
      <trkpt lat="17.132881710" lon="-96.451535740">
        <ele>3126.100</ele>
        <time>2020-02-04T20:34:15Z</time>
      </trkpt>
      <trkpt lat="17.132844280" lon="-96.451546860">
        <ele>3125.400</ele>
        <time>2020-02-04T20:34:20Z</time>
      </trkpt>
      <trkpt lat="17.132800810" lon="-96.451552710">
        <ele>3125.100</ele>
        <time>2020-02-04T20:34:26Z</time>
      </trkpt>
      <trkpt lat="17.132759270" lon="-96.451551230">
        <ele>3125.000</ele>
        <time>2020-02-04T20:34:32Z</time>
      </trkpt>
      <trkpt lat="17.132719690" lon="-96.451553960">
        <ele>3126.500</ele>
        <time>2020-02-04T20:34:37Z</time>
      </trkpt>
      <trkpt lat="17.132676670" lon="-96.451562490">
        <ele>3128.000</ele>
        <time>2020-02-04T20:34:42Z</time>
      </trkpt>
      <trkpt lat="17.132644210" lon="-96.451584720">
        <ele>3127.900</ele>
        <time>2020-02-04T20:34:46Z</time>
      </trkpt>
      <trkpt lat="17.132601740" lon="-96.451591810">
        <ele>3124.500</ele>
        <time>2020-02-04T20:34:50Z</time>
      </trkpt>
      <trkpt lat="17.132569350" lon="-96.451613280">
        <ele>3122.500</ele>
        <time>2020-02-04T20:35:32Z</time>
      </trkpt>
      <trkpt lat="17.132532440" lon="-96.451633320">
        <ele>3124.300</ele>
        <time>2020-02-04T20:35:37Z</time>
      </trkpt>
      <trkpt lat="17.132494520" lon="-96.451641930">
        <ele>3126.600</ele>
        <time>2020-02-04T20:35:42Z</time>
      </trkpt>
      <trkpt lat="17.132457600" lon="-96.451652580">
        <ele>3128.900</ele>
        <time>2020-02-04T20:35:47Z</time>
      </trkpt>
      <trkpt lat="17.132420840" lon="-96.451646780">
        <ele>3127.400</ele>
        <time>2020-02-04T20:35:52Z</time>
      </trkpt>
      <trkpt lat="17.132375600" lon="-96.451646510">
        <ele>3127.200</ele>
        <time>2020-02-04T20:35:57Z</time>
      </trkpt>
      <trkpt lat="17.132335110" lon="-96.451646330">
        <ele>3123.600</ele>
        <time>2020-02-04T20:36:02Z</time>
      </trkpt>
      <trkpt lat="17.132293570" lon="-96.451646320">
        <ele>3122.700</ele>
        <time>2020-02-04T20:36:08Z</time>
      </trkpt>
      <trkpt lat="17.132268370" lon="-96.451614040">
        <ele>3121.200</ele>
        <time>2020-02-04T20:36:14Z</time>
      </trkpt>
      <trkpt lat="17.132240040" lon="-96.451583010">
        <ele>3122.300</ele>
        <time>2020-02-04T20:36:21Z</time>
      </trkpt>
      <trkpt lat="17.132202900" lon="-96.451573230">
        <ele>3123.600</ele>
        <time>2020-02-04T20:36:25Z</time>
      </trkpt>
      <trkpt lat="17.132162220" lon="-96.451556570">
        <ele>3123.200</ele>
        <time>2020-02-04T20:36:30Z</time>
      </trkpt>
      <trkpt lat="17.132124090" lon="-96.451536910">
        <ele>3121.800</ele>
        <time>2020-02-04T20:36:35Z</time>
      </trkpt>
      <trkpt lat="17.132092630" lon="-96.451510830">
        <ele>3122.400</ele>
        <time>2020-02-04T20:36:41Z</time>
      </trkpt>
      <trkpt lat="17.132058610" lon="-96.451490230">
        <ele>3121.900</ele>
        <time>2020-02-04T20:36:47Z</time>
      </trkpt>
      <trkpt lat="17.132024370" lon="-96.451473300">
        <ele>3121.100</ele>
        <time>2020-02-04T20:36:52Z</time>
      </trkpt>
      <trkpt lat="17.131992740" lon="-96.451450380">
        <ele>3122.500</ele>
        <time>2020-02-04T20:36:56Z</time>
      </trkpt>
      <trkpt lat="17.131953530" lon="-96.451439980">
        <ele>3121.700</ele>
        <time>2020-02-04T20:37:00Z</time>
      </trkpt>
      <trkpt lat="17.131917160" lon="-96.451434060">
        <ele>3122.000</ele>
        <time>2020-02-04T20:37:03Z</time>
      </trkpt>
      <trkpt lat="17.131877170" lon="-96.451440080">
        <ele>3120.700</ele>
        <time>2020-02-04T20:37:06Z</time>
      </trkpt>
      <trkpt lat="17.131850240" lon="-96.451466130">
        <ele>3121.000</ele>
        <time>2020-02-04T20:37:16Z</time>
      </trkpt>
      <trkpt lat="17.131805500" lon="-96.451472390">
        <ele>3119.400</ele>
        <time>2020-02-04T20:37:24Z</time>
      </trkpt>
      <trkpt lat="17.131759630" lon="-96.451466720">
        <ele>3119.200</ele>
        <time>2020-02-04T20:37:29Z</time>
      </trkpt>
      <trkpt lat="17.131722950" lon="-96.451462380">
        <ele>3120.400</ele>
        <time>2020-02-04T20:37:34Z</time>
      </trkpt>
      <trkpt lat="17.131687410" lon="-96.451453220">
        <ele>3120.500</ele>
        <time>2020-02-04T20:37:48Z</time>
      </trkpt>
      <trkpt lat="17.131648610" lon="-96.451441740">
        <ele>3120.600</ele>
        <time>2020-02-04T20:37:53Z</time>
      </trkpt>
      <trkpt lat="17.131610470" lon="-96.451429120">
        <ele>3119.900</ele>
        <time>2020-02-04T20:37:57Z</time>
      </trkpt>
      <trkpt lat="17.131569720" lon="-96.451437990">
        <ele>3118.300</ele>
        <time>2020-02-04T20:38:02Z</time>
      </trkpt>
      <trkpt lat="17.131537880" lon="-96.451456530">
        <ele>3116.300</ele>
        <time>2020-02-04T20:38:09Z</time>
      </trkpt>
      <trkpt lat="17.131500950" lon="-96.451452680">
        <ele>3115.800</ele>
        <time>2020-02-04T20:39:06Z</time>
      </trkpt>
      <trkpt lat="17.131464430" lon="-96.451434720">
        <ele>3116.100</ele>
        <time>2020-02-04T20:39:11Z</time>
      </trkpt>
      <trkpt lat="17.131424660" lon="-96.451419460">
        <ele>3117.100</ele>
        <time>2020-02-04T20:39:16Z</time>
      </trkpt>
      <trkpt lat="17.131400070" lon="-96.451387360">
        <ele>3116.600</ele>
        <time>2020-02-04T20:39:23Z</time>
      </trkpt>
      <trkpt lat="17.131369540" lon="-96.451362600">
        <ele>3119.600</ele>
        <time>2020-02-04T20:39:28Z</time>
      </trkpt>
      <trkpt lat="17.131349210" lon="-96.451328060">
        <ele>3120.500</ele>
        <time>2020-02-04T20:39:33Z</time>
      </trkpt>
      <trkpt lat="17.131310340" lon="-96.451313090">
        <ele>3118.300</ele>
        <time>2020-02-04T20:39:39Z</time>
      </trkpt>
      <trkpt lat="17.131267420" lon="-96.451313090">
        <ele>3115.600</ele>
        <time>2020-02-04T20:39:42Z</time>
      </trkpt>
      <trkpt lat="17.131225620" lon="-96.451295070">
        <ele>3113.900</ele>
        <time>2020-02-04T20:39:46Z</time>
      </trkpt>
      <trkpt lat="17.131184810" lon="-96.451290850">
        <ele>3113.600</ele>
        <time>2020-02-04T20:39:50Z</time>
      </trkpt>
      <trkpt lat="17.131147770" lon="-96.451281770">
        <ele>3113.000</ele>
        <time>2020-02-04T20:39:54Z</time>
      </trkpt>
      <trkpt lat="17.131111030" lon="-96.451272790">
        <ele>3113.600</ele>
        <time>2020-02-04T20:39:58Z</time>
      </trkpt>
      <trkpt lat="17.131066210" lon="-96.451257620">
        <ele>3114.600</ele>
        <time>2020-02-04T20:40:02Z</time>
      </trkpt>
      <trkpt lat="17.131017100" lon="-96.451249990">
        <ele>3114.700</ele>
        <time>2020-02-04T20:40:06Z</time>
      </trkpt>
      <trkpt lat="17.130981670" lon="-96.451235930">
        <ele>3115.800</ele>
        <time>2020-02-04T20:40:10Z</time>
      </trkpt>
      <trkpt lat="17.130942920" lon="-96.451214350">
        <ele>3118.100</ele>
        <time>2020-02-04T20:40:15Z</time>
      </trkpt>
      <trkpt lat="17.130909960" lon="-96.451194290">
        <ele>3120.900</ele>
        <time>2020-02-04T20:40:19Z</time>
      </trkpt>
      <trkpt lat="17.130876620" lon="-96.451177120">
        <ele>3121.900</ele>
        <time>2020-02-04T20:40:23Z</time>
      </trkpt>
      <trkpt lat="17.130835440" lon="-96.451163720">
        <ele>3121.700</ele>
        <time>2020-02-04T20:40:27Z</time>
      </trkpt>
      <trkpt lat="17.130802250" lon="-96.451142740">
        <ele>3121.000</ele>
        <time>2020-02-04T20:40:31Z</time>
      </trkpt>
      <trkpt lat="17.130769540" lon="-96.451121850">
        <ele>3120.600</ele>
        <time>2020-02-04T20:40:35Z</time>
      </trkpt>
      <trkpt lat="17.130734030" lon="-96.451104570">
        <ele>3120.900</ele>
        <time>2020-02-04T20:40:39Z</time>
      </trkpt>
      <trkpt lat="17.130697110" lon="-96.451085250">
        <ele>3120.600</ele>
        <time>2020-02-04T20:40:43Z</time>
      </trkpt>
      <trkpt lat="17.130660970" lon="-96.451059190">
        <ele>3120.900</ele>
        <time>2020-02-04T20:40:47Z</time>
      </trkpt>
      <trkpt lat="17.130629500" lon="-96.451036160">
        <ele>3119.700</ele>
        <time>2020-02-04T20:40:51Z</time>
      </trkpt>
      <trkpt lat="17.130596870" lon="-96.451013860">
        <ele>3119.200</ele>
        <time>2020-02-04T20:40:55Z</time>
      </trkpt>
      <trkpt lat="17.130554820" lon="-96.450997610">
        <ele>3120.700</ele>
        <time>2020-02-04T20:41:11Z</time>
      </trkpt>
      <trkpt lat="17.130523100" lon="-96.450979000">
        <ele>3119.800</ele>
        <time>2020-02-04T20:41:15Z</time>
      </trkpt>
      <trkpt lat="17.130483120" lon="-96.450973570">
        <ele>3120.000</ele>
        <time>2020-02-04T20:41:19Z</time>
      </trkpt>
      <trkpt lat="17.130446270" lon="-96.450967190">
        <ele>3120.600</ele>
        <time>2020-02-04T20:41:23Z</time>
      </trkpt>
      <trkpt lat="17.130405800" lon="-96.450945550">
        <ele>3120.100</ele>
        <time>2020-02-04T20:41:28Z</time>
      </trkpt>
      <trkpt lat="17.130365030" lon="-96.450930000">
        <ele>3119.400</ele>
        <time>2020-02-04T20:41:33Z</time>
      </trkpt>
      <trkpt lat="17.130326590" lon="-96.450927710">
        <ele>3120.400</ele>
        <time>2020-02-04T20:41:37Z</time>
      </trkpt>
      <trkpt lat="17.130286470" lon="-96.450918340">
        <ele>3120.300</ele>
        <time>2020-02-04T20:41:41Z</time>
      </trkpt>
      <trkpt lat="17.130245770" lon="-96.450907830">
        <ele>3119.900</ele>
        <time>2020-02-04T20:41:45Z</time>
      </trkpt>
      <trkpt lat="17.130209660" lon="-96.450911320">
        <ele>3120.800</ele>
        <time>2020-02-04T20:41:48Z</time>
      </trkpt>
      <trkpt lat="17.130169770" lon="-96.450909240">
        <ele>3121.200</ele>
        <time>2020-02-04T20:41:52Z</time>
      </trkpt>
      <trkpt lat="17.130133040" lon="-96.450894430">
        <ele>3121.900</ele>
        <time>2020-02-04T20:41:56Z</time>
      </trkpt>
      <trkpt lat="17.130094400" lon="-96.450882400">
        <ele>3122.100</ele>
        <time>2020-02-04T20:42:00Z</time>
      </trkpt>
      <trkpt lat="17.130058750" lon="-96.450857670">
        <ele>3122.500</ele>
        <time>2020-02-04T20:42:06Z</time>
      </trkpt>
      <trkpt lat="17.130023080" lon="-96.450834210">
        <ele>3123.500</ele>
        <time>2020-02-04T20:42:11Z</time>
      </trkpt>
      <trkpt lat="17.129989160" lon="-96.450813630">
        <ele>3123.400</ele>
        <time>2020-02-04T20:42:30Z</time>
      </trkpt>
      <trkpt lat="17.129948360" lon="-96.450807660">
        <ele>3122.600</ele>
        <time>2020-02-04T20:42:35Z</time>
      </trkpt>
      <trkpt lat="17.129910420" lon="-96.450820390">
        <ele>3121.400</ele>
        <time>2020-02-04T20:42:43Z</time>
      </trkpt>
      <trkpt lat="17.129882610" lon="-96.450793020">
        <ele>3121.800</ele>
        <time>2020-02-04T20:42:51Z</time>
      </trkpt>
      <trkpt lat="17.129846190" lon="-96.450780110">
        <ele>3121.900</ele>
        <time>2020-02-04T20:42:54Z</time>
      </trkpt>
      <trkpt lat="17.129809830" lon="-96.450747550">
        <ele>3123.800</ele>
        <time>2020-02-04T20:42:58Z</time>
      </trkpt>
      <trkpt lat="17.129778700" lon="-96.450727000">
        <ele>3123.000</ele>
        <time>2020-02-04T20:43:01Z</time>
      </trkpt>
      <trkpt lat="17.129740600" lon="-96.450707460">
        <ele>3125.200</ele>
        <time>2020-02-04T20:43:05Z</time>
      </trkpt>
      <trkpt lat="17.129693150" lon="-96.450711290">
        <ele>3124.900</ele>
        <time>2020-02-04T20:43:09Z</time>
      </trkpt>
      <trkpt lat="17.129648740" lon="-96.450711110">
        <ele>3126.700</ele>
        <time>2020-02-04T20:43:13Z</time>
      </trkpt>
      <trkpt lat="17.129609830" lon="-96.450714580">
        <ele>3127.200</ele>
        <time>2020-02-04T20:43:17Z</time>
      </trkpt>
      <trkpt lat="17.129570760" lon="-96.450723540">
        <ele>3127.400</ele>
        <time>2020-02-04T20:43:21Z</time>
      </trkpt>
      <trkpt lat="17.129526330" lon="-96.450724720">
        <ele>3127.200</ele>
        <time>2020-02-04T20:43:26Z</time>
      </trkpt>
      <trkpt lat="17.129486440" lon="-96.450729340">
        <ele>3128.200</ele>
        <time>2020-02-04T20:43:30Z</time>
      </trkpt>
      <trkpt lat="17.129445720" lon="-96.450737760">
        <ele>3126.600</ele>
        <time>2020-02-04T20:43:35Z</time>
      </trkpt>
      <trkpt lat="17.129404710" lon="-96.450736860">
        <ele>3128.400</ele>
        <time>2020-02-04T20:43:41Z</time>
      </trkpt>
      <trkpt lat="17.129363110" lon="-96.450746830">
        <ele>3129.600</ele>
        <time>2020-02-04T20:43:46Z</time>
      </trkpt>
      <trkpt lat="17.129336140" lon="-96.450777050">
        <ele>3129.300</ele>
        <time>2020-02-04T20:44:12Z</time>
      </trkpt>
      <trkpt lat="17.129304230" lon="-96.450805350">
        <ele>3129.800</ele>
        <time>2020-02-04T20:44:16Z</time>
      </trkpt>
      <trkpt lat="17.129274580" lon="-96.450835620">
        <ele>3129.700</ele>
        <time>2020-02-04T20:44:20Z</time>
      </trkpt>
      <trkpt lat="17.129241910" lon="-96.450858510">
        <ele>3131.000</ele>
        <time>2020-02-04T20:44:24Z</time>
      </trkpt>
      <trkpt lat="17.129207180" lon="-96.450887220">
        <ele>3131.200</ele>
        <time>2020-02-04T20:44:29Z</time>
      </trkpt>
      <trkpt lat="17.129171750" lon="-96.450907810">
        <ele>3131.700</ele>
        <time>2020-02-04T20:44:34Z</time>
      </trkpt>
      <trkpt lat="17.129132980" lon="-96.450925510">
        <ele>3131.700</ele>
        <time>2020-02-04T20:44:39Z</time>
      </trkpt>
      <trkpt lat="17.129100090" lon="-96.450947290">
        <ele>3130.000</ele>
        <time>2020-02-04T20:44:48Z</time>
      </trkpt>
      <trkpt lat="17.129058750" lon="-96.450955460">
        <ele>3131.200</ele>
        <time>2020-02-04T20:44:54Z</time>
      </trkpt>
      <trkpt lat="17.129018300" lon="-96.450959970">
        <ele>3131.900</ele>
        <time>2020-02-04T20:44:59Z</time>
      </trkpt>
      <trkpt lat="17.128981100" lon="-96.450965660">
        <ele>3132.000</ele>
        <time>2020-02-04T20:45:03Z</time>
      </trkpt>
      <trkpt lat="17.128935380" lon="-96.450961190">
        <ele>3132.600</ele>
        <time>2020-02-04T20:45:08Z</time>
      </trkpt>
      <trkpt lat="17.128897070" lon="-96.450963220">
        <ele>3133.300</ele>
        <time>2020-02-04T20:45:12Z</time>
      </trkpt>
      <trkpt lat="17.128856340" lon="-96.450967940">
        <ele>3133.400</ele>
        <time>2020-02-04T20:45:17Z</time>
      </trkpt>
      <trkpt lat="17.128817040" lon="-96.450973700">
        <ele>3134.600</ele>
        <time>2020-02-04T20:45:23Z</time>
      </trkpt>
      <trkpt lat="17.128785670" lon="-96.450998030">
        <ele>3135.200</ele>
        <time>2020-02-04T20:45:38Z</time>
      </trkpt>
      <trkpt lat="17.128746150" lon="-96.450995970">
        <ele>3135.300</ele>
        <time>2020-02-04T20:46:02Z</time>
      </trkpt>
      <trkpt lat="17.128710990" lon="-96.451017530">
        <ele>3135.900</ele>
        <time>2020-02-04T20:46:32Z</time>
      </trkpt>
      <trkpt lat="17.128671690" lon="-96.451021020">
        <ele>3137.600</ele>
        <time>2020-02-04T20:46:36Z</time>
      </trkpt>
      <trkpt lat="17.128633960" lon="-96.451032060">
        <ele>3139.500</ele>
        <time>2020-02-04T20:46:40Z</time>
      </trkpt>
      <trkpt lat="17.128591550" lon="-96.451045410">
        <ele>3139.300</ele>
        <time>2020-02-04T20:46:44Z</time>
      </trkpt>
      <trkpt lat="17.128552240" lon="-96.451060710">
        <ele>3138.400</ele>
        <time>2020-02-04T20:46:48Z</time>
      </trkpt>
      <trkpt lat="17.128518720" lon="-96.451089860">
        <ele>3139.700</ele>
        <time>2020-02-04T20:46:53Z</time>
      </trkpt>
      <trkpt lat="17.128477260" lon="-96.451101590">
        <ele>3142.600</ele>
        <time>2020-02-04T20:46:58Z</time>
      </trkpt>
      <trkpt lat="17.128444220" lon="-96.451123220">
        <ele>3142.800</ele>
        <time>2020-02-04T20:47:02Z</time>
      </trkpt>
      <trkpt lat="17.128403880" lon="-96.451127270">
        <ele>3142.700</ele>
        <time>2020-02-04T20:47:07Z</time>
      </trkpt>
      <trkpt lat="17.128368870" lon="-96.451139170">
        <ele>3143.700</ele>
        <time>2020-02-04T20:47:11Z</time>
      </trkpt>
      <trkpt lat="17.128333970" lon="-96.451157730">
        <ele>3143.700</ele>
        <time>2020-02-04T20:47:15Z</time>
      </trkpt>
      <trkpt lat="17.128291820" lon="-96.451161870">
        <ele>3143.800</ele>
        <time>2020-02-04T20:47:21Z</time>
      </trkpt>
      <trkpt lat="17.128252050" lon="-96.451160600">
        <ele>3143.900</ele>
        <time>2020-02-04T20:47:29Z</time>
      </trkpt>
      <trkpt lat="17.128215300" lon="-96.451173800">
        <ele>3142.800</ele>
        <time>2020-02-04T20:47:34Z</time>
      </trkpt>
      <trkpt lat="17.128176470" lon="-96.451181340">
        <ele>3139.700</ele>
        <time>2020-02-04T20:47:37Z</time>
      </trkpt>
      <trkpt lat="17.128142610" lon="-96.451198170">
        <ele>3142.100</ele>
        <time>2020-02-04T20:47:40Z</time>
      </trkpt>
      <trkpt lat="17.128108210" lon="-96.451211110">
        <ele>3144.500</ele>
        <time>2020-02-04T20:47:44Z</time>
      </trkpt>
      <trkpt lat="17.128070990" lon="-96.451215350">
        <ele>3145.200</ele>
        <time>2020-02-04T20:47:48Z</time>
      </trkpt>
      <trkpt lat="17.128026830" lon="-96.451221710">
        <ele>3145.500</ele>
        <time>2020-02-04T20:47:53Z</time>
      </trkpt>
      <trkpt lat="17.127979040" lon="-96.451230810">
        <ele>3145.100</ele>
        <time>2020-02-04T20:47:58Z</time>
      </trkpt>
      <trkpt lat="17.127937240" lon="-96.451236170">
        <ele>3143.900</ele>
        <time>2020-02-04T20:48:03Z</time>
      </trkpt>
      <trkpt lat="17.127898620" lon="-96.451233520">
        <ele>3142.700</ele>
        <time>2020-02-04T20:48:07Z</time>
      </trkpt>
      <trkpt lat="17.127862180" lon="-96.451247040">
        <ele>3142.000</ele>
        <time>2020-02-04T20:48:12Z</time>
      </trkpt>
      <trkpt lat="17.127836860" lon="-96.451279850">
        <ele>3150.200</ele>
        <time>2020-02-04T20:48:19Z</time>
      </trkpt>
      <trkpt lat="17.127802230" lon="-96.451299340">
        <ele>3150.600</ele>
        <time>2020-02-04T20:48:23Z</time>
      </trkpt>
      <trkpt lat="17.127759250" lon="-96.451321370">
        <ele>3153.800</ele>
        <time>2020-02-04T20:48:30Z</time>
      </trkpt>
      <trkpt lat="17.127723290" lon="-96.451345550">
        <ele>3154.000</ele>
        <time>2020-02-04T20:48:34Z</time>
      </trkpt>
      <trkpt lat="17.127688970" lon="-96.451363320">
        <ele>3153.900</ele>
        <time>2020-02-04T20:48:38Z</time>
      </trkpt>
      <trkpt lat="17.127655230" lon="-96.451377600">
        <ele>3152.800</ele>
        <time>2020-02-04T20:48:41Z</time>
      </trkpt>
      <trkpt lat="17.127624260" lon="-96.451397710">
        <ele>3154.100</ele>
        <time>2020-02-04T20:48:46Z</time>
      </trkpt>
      <trkpt lat="17.127588260" lon="-96.451404130">
        <ele>3154.800</ele>
        <time>2020-02-04T20:48:53Z</time>
      </trkpt>
      <trkpt lat="17.127549710" lon="-96.451412560">
        <ele>3158.200</ele>
        <time>2020-02-04T20:49:01Z</time>
      </trkpt>
      <trkpt lat="17.127502640" lon="-96.451422060">
        <ele>3155.000</ele>
        <time>2020-02-04T20:49:05Z</time>
      </trkpt>
      <trkpt lat="17.127460220" lon="-96.451418790">
        <ele>3157.100</ele>
        <time>2020-02-04T20:49:12Z</time>
      </trkpt>
      <trkpt lat="17.127420220" lon="-96.451430090">
        <ele>3159.600</ele>
        <time>2020-02-04T20:49:17Z</time>
      </trkpt>
      <trkpt lat="17.127380890" lon="-96.451447310">
        <ele>3157.800</ele>
        <time>2020-02-04T20:49:21Z</time>
      </trkpt>
      <trkpt lat="17.127338550" lon="-96.451464300">
        <ele>3155.400</ele>
        <time>2020-02-04T20:49:24Z</time>
      </trkpt>
      <trkpt lat="17.127293390" lon="-96.451470840">
        <ele>3156.400</ele>
        <time>2020-02-04T20:49:29Z</time>
      </trkpt>
      <trkpt lat="17.127254370" lon="-96.451484620">
        <ele>3156.200</ele>
        <time>2020-02-04T20:49:33Z</time>
      </trkpt>
      <trkpt lat="17.127213740" lon="-96.451492800">
        <ele>3154.800</ele>
        <time>2020-02-04T20:49:37Z</time>
      </trkpt>
      <trkpt lat="17.127174580" lon="-96.451493800">
        <ele>3156.500</ele>
        <time>2020-02-04T20:49:43Z</time>
      </trkpt>
      <trkpt lat="17.127137420" lon="-96.451509810">
        <ele>3158.300</ele>
        <time>2020-02-04T20:49:49Z</time>
      </trkpt>
      <trkpt lat="17.127102170" lon="-96.451526270">
        <ele>3161.200</ele>
        <time>2020-02-04T20:49:54Z</time>
      </trkpt>
      <trkpt lat="17.127065090" lon="-96.451537570">
        <ele>3161.200</ele>
        <time>2020-02-04T20:49:58Z</time>
      </trkpt>
      <trkpt lat="17.127030710" lon="-96.451552800">
        <ele>3159.200</ele>
        <time>2020-02-04T20:50:01Z</time>
      </trkpt>
      <trkpt lat="17.126994620" lon="-96.451559960">
        <ele>3160.000</ele>
        <time>2020-02-04T20:50:05Z</time>
      </trkpt>
      <trkpt lat="17.126953430" lon="-96.451568210">
        <ele>3161.700</ele>
        <time>2020-02-04T20:50:10Z</time>
      </trkpt>
      <trkpt lat="17.126917270" lon="-96.451568070">
        <ele>3165.200</ele>
        <time>2020-02-04T20:50:14Z</time>
      </trkpt>
      <trkpt lat="17.126879560" lon="-96.451573680">
        <ele>3164.900</ele>
        <time>2020-02-04T20:50:18Z</time>
      </trkpt>
      <trkpt lat="17.126834240" lon="-96.451587170">
        <ele>3165.400</ele>
        <time>2020-02-04T20:50:23Z</time>
      </trkpt>
      <trkpt lat="17.126795400" lon="-96.451604750">
        <ele>3162.900</ele>
        <time>2020-02-04T20:50:28Z</time>
      </trkpt>
      <trkpt lat="17.126759410" lon="-96.451616520">
        <ele>3163.500</ele>
        <time>2020-02-04T20:50:33Z</time>
      </trkpt>
      <trkpt lat="17.126759240" lon="-96.451654970">
        <ele>3159.700</ele>
        <time>2020-02-04T20:50:56Z</time>
      </trkpt>
      <trkpt lat="17.126756210" lon="-96.451692630">
        <ele>3160.700</ele>
        <time>2020-02-04T20:52:00Z</time>
      </trkpt>
      <trkpt lat="17.126720380" lon="-96.451717170">
        <ele>3159.200</ele>
        <time>2020-02-04T20:52:44Z</time>
      </trkpt>
      <trkpt lat="17.126676670" lon="-96.451722390">
        <ele>3157.700</ele>
        <time>2020-02-04T20:52:48Z</time>
      </trkpt>
      <trkpt lat="17.126630470" lon="-96.451713880">
        <ele>3158.300</ele>
        <time>2020-02-04T20:52:54Z</time>
      </trkpt>
      <trkpt lat="17.126593590" lon="-96.451710800">
        <ele>3160.500</ele>
        <time>2020-02-04T20:52:58Z</time>
      </trkpt>
      <trkpt lat="17.126558010" lon="-96.451723370">
        <ele>3159.100</ele>
        <time>2020-02-04T20:53:01Z</time>
      </trkpt>
      <trkpt lat="17.126517540" lon="-96.451735520">
        <ele>3160.400</ele>
        <time>2020-02-04T20:53:06Z</time>
      </trkpt>
      <trkpt lat="17.126483890" lon="-96.451754210">
        <ele>3160.600</ele>
        <time>2020-02-04T20:53:09Z</time>
      </trkpt>
      <trkpt lat="17.126440540" lon="-96.451758340">
        <ele>3163.600</ele>
        <time>2020-02-04T20:53:14Z</time>
      </trkpt>
      <trkpt lat="17.126404360" lon="-96.451759740">
        <ele>3165.900</ele>
        <time>2020-02-04T20:53:18Z</time>
      </trkpt>
      <trkpt lat="17.126361640" lon="-96.451774730">
        <ele>3165.100</ele>
        <time>2020-02-04T20:53:25Z</time>
      </trkpt>
      <trkpt lat="17.126336880" lon="-96.451802740">
        <ele>3164.700</ele>
        <time>2020-02-04T20:53:29Z</time>
      </trkpt>
      <trkpt lat="17.126297660" lon="-96.451800320">
        <ele>3164.100</ele>
        <time>2020-02-04T20:53:34Z</time>
      </trkpt>
      <trkpt lat="17.126254010" lon="-96.451802160">
        <ele>3161.200</ele>
        <time>2020-02-04T20:53:38Z</time>
      </trkpt>
      <trkpt lat="17.126214590" lon="-96.451804500">
        <ele>3159.800</ele>
        <time>2020-02-04T20:53:42Z</time>
      </trkpt>
      <trkpt lat="17.126177360" lon="-96.451811040">
        <ele>3158.800</ele>
        <time>2020-02-04T20:53:45Z</time>
      </trkpt>
      <trkpt lat="17.126136530" lon="-96.451823170">
        <ele>3158.700</ele>
        <time>2020-02-04T20:53:49Z</time>
      </trkpt>
      <trkpt lat="17.126096570" lon="-96.451833450">
        <ele>3161.500</ele>
        <time>2020-02-04T20:53:53Z</time>
      </trkpt>
      <trkpt lat="17.126059080" lon="-96.451823310">
        <ele>3164.100</ele>
        <time>2020-02-04T20:53:59Z</time>
      </trkpt>
      <trkpt lat="17.126019030" lon="-96.451817990">
        <ele>3164.400</ele>
        <time>2020-02-04T20:54:05Z</time>
      </trkpt>
      <trkpt lat="17.125982030" lon="-96.451830680">
        <ele>3163.400</ele>
        <time>2020-02-04T20:54:20Z</time>
      </trkpt>
      <trkpt lat="17.125936170" lon="-96.451829750">
        <ele>3164.100</ele>
        <time>2020-02-04T20:55:41Z</time>
      </trkpt>
      <trkpt lat="17.125899050" lon="-96.451824130">
        <ele>3160.000</ele>
        <time>2020-02-04T20:55:44Z</time>
      </trkpt>
      <trkpt lat="17.125856490" lon="-96.451821740">
        <ele>3159.800</ele>
        <time>2020-02-04T20:55:48Z</time>
      </trkpt>
      <trkpt lat="17.125816510" lon="-96.451818190">
        <ele>3159.700</ele>
        <time>2020-02-04T20:55:53Z</time>
      </trkpt>
      <trkpt lat="17.125775920" lon="-96.451821750">
        <ele>3159.900</ele>
        <time>2020-02-04T20:55:58Z</time>
      </trkpt>
      <trkpt lat="17.125736150" lon="-96.451806160">
        <ele>3160.700</ele>
        <time>2020-02-04T20:56:03Z</time>
      </trkpt>
      <trkpt lat="17.125696620" lon="-96.451792220">
        <ele>3161.100</ele>
        <time>2020-02-04T20:56:08Z</time>
      </trkpt>
      <trkpt lat="17.125656260" lon="-96.451776230">
        <ele>3160.300</ele>
        <time>2020-02-04T20:56:14Z</time>
      </trkpt>
      <trkpt lat="17.125616840" lon="-96.451758760">
        <ele>3160.900</ele>
        <time>2020-02-04T20:56:19Z</time>
      </trkpt>
      <trkpt lat="17.125581720" lon="-96.451734600">
        <ele>3160.100</ele>
        <time>2020-02-04T20:56:25Z</time>
      </trkpt>
      <trkpt lat="17.125547030" lon="-96.451720150">
        <ele>3160.600</ele>
        <time>2020-02-04T20:56:30Z</time>
      </trkpt>
      <trkpt lat="17.125514470" lon="-96.451693740">
        <ele>3161.300</ele>
        <time>2020-02-04T20:56:38Z</time>
      </trkpt>
      <trkpt lat="17.125477780" lon="-96.451675580">
        <ele>3160.600</ele>
        <time>2020-02-04T20:56:42Z</time>
      </trkpt>
      <trkpt lat="17.125435060" lon="-96.451672100">
        <ele>3161.500</ele>
        <time>2020-02-04T20:56:46Z</time>
      </trkpt>
      <trkpt lat="17.125396360" lon="-96.451663610">
        <ele>3161.100</ele>
        <time>2020-02-04T20:56:50Z</time>
      </trkpt>
      <trkpt lat="17.125364610" lon="-96.451639580">
        <ele>3163.600</ele>
        <time>2020-02-04T20:56:54Z</time>
      </trkpt>
      <trkpt lat="17.125336210" lon="-96.451615150">
        <ele>3165.100</ele>
        <time>2020-02-04T20:56:58Z</time>
      </trkpt>
      <trkpt lat="17.125303540" lon="-96.451594000">
        <ele>3166.400</ele>
        <time>2020-02-04T20:57:02Z</time>
      </trkpt>
      <trkpt lat="17.125265010" lon="-96.451581140">
        <ele>3166.500</ele>
        <time>2020-02-04T20:57:06Z</time>
      </trkpt>
      <trkpt lat="17.125228510" lon="-96.451556610">
        <ele>3169.200</ele>
        <time>2020-02-04T20:57:11Z</time>
      </trkpt>
      <trkpt lat="17.125188760" lon="-96.451555980">
        <ele>3169.200</ele>
        <time>2020-02-04T20:57:15Z</time>
      </trkpt>
      <trkpt lat="17.125148170" lon="-96.451546580">
        <ele>3167.700</ele>
        <time>2020-02-04T20:57:19Z</time>
      </trkpt>
      <trkpt lat="17.125105690" lon="-96.451530380">
        <ele>3168.100</ele>
        <time>2020-02-04T20:57:24Z</time>
      </trkpt>
      <trkpt lat="17.125065180" lon="-96.451527610">
        <ele>3168.600</ele>
        <time>2020-02-04T20:57:29Z</time>
      </trkpt>
      <trkpt lat="17.125027400" lon="-96.451514530">
        <ele>3169.700</ele>
        <time>2020-02-04T20:57:34Z</time>
      </trkpt>
      <trkpt lat="17.124993000" lon="-96.451495690">
        <ele>3170.900</ele>
        <time>2020-02-04T20:57:39Z</time>
      </trkpt>
      <trkpt lat="17.124949160" lon="-96.451485960">
        <ele>3173.600</ele>
        <time>2020-02-04T20:57:44Z</time>
      </trkpt>
      <trkpt lat="17.124910250" lon="-96.451472840">
        <ele>3173.300</ele>
        <time>2020-02-04T20:57:49Z</time>
      </trkpt>
      <trkpt lat="17.124869540" lon="-96.451456900">
        <ele>3175.700</ele>
        <time>2020-02-04T20:57:54Z</time>
      </trkpt>
      <trkpt lat="17.124826440" lon="-96.451449300">
        <ele>3175.200</ele>
        <time>2020-02-04T20:57:59Z</time>
      </trkpt>
      <trkpt lat="17.124788420" lon="-96.451433440">
        <ele>3174.800</ele>
        <time>2020-02-04T20:58:04Z</time>
      </trkpt>
      <trkpt lat="17.124749990" lon="-96.451423860">
        <ele>3176.600</ele>
        <time>2020-02-04T20:58:09Z</time>
      </trkpt>
      <trkpt lat="17.124713610" lon="-96.451406930">
        <ele>3178.700</ele>
        <time>2020-02-04T20:58:14Z</time>
      </trkpt>
      <trkpt lat="17.124674810" lon="-96.451400810">
        <ele>3180.700</ele>
        <time>2020-02-04T20:58:20Z</time>
      </trkpt>
      <trkpt lat="17.124635920" lon="-96.451405860">
        <ele>3180.300</ele>
        <time>2020-02-04T20:58:24Z</time>
      </trkpt>
      <trkpt lat="17.124599540" lon="-96.451414890">
        <ele>3178.000</ele>
        <time>2020-02-04T20:58:28Z</time>
      </trkpt>
      <trkpt lat="17.124567140" lon="-96.451437070">
        <ele>3175.600</ele>
        <time>2020-02-04T20:58:34Z</time>
      </trkpt>
      <trkpt lat="17.124529180" lon="-96.451448550">
        <ele>3176.000</ele>
        <time>2020-02-04T20:59:33Z</time>
      </trkpt>
      <trkpt lat="17.124488320" lon="-96.451447980">
        <ele>3177.000</ele>
        <time>2020-02-04T20:59:38Z</time>
      </trkpt>
      <trkpt lat="17.124446990" lon="-96.451444470">
        <ele>3174.800</ele>
        <time>2020-02-04T20:59:42Z</time>
      </trkpt>
      <trkpt lat="17.124401520" lon="-96.451444830">
        <ele>3175.000</ele>
        <time>2020-02-04T20:59:47Z</time>
      </trkpt>
      <trkpt lat="17.124358050" lon="-96.451429140">
        <ele>3175.700</ele>
        <time>2020-02-04T20:59:52Z</time>
      </trkpt>
      <trkpt lat="17.124320780" lon="-96.451435670">
        <ele>3173.800</ele>
        <time>2020-02-04T20:59:57Z</time>
      </trkpt>
      <trkpt lat="17.124274910" lon="-96.451441950">
        <ele>3174.600</ele>
        <time>2020-02-04T21:00:03Z</time>
      </trkpt>
      <trkpt lat="17.124235470" lon="-96.451445330">
        <ele>3174.500</ele>
        <time>2020-02-04T21:00:07Z</time>
      </trkpt>
      <trkpt lat="17.124200680" lon="-96.451432010">
        <ele>3175.700</ele>
        <time>2020-02-04T21:00:11Z</time>
      </trkpt>
      <trkpt lat="17.124164450" lon="-96.451409770">
        <ele>3178.100</ele>
        <time>2020-02-04T21:00:20Z</time>
      </trkpt>
      <trkpt lat="17.124122510" lon="-96.451406770">
        <ele>3179.600</ele>
        <time>2020-02-04T21:00:25Z</time>
      </trkpt>
      <trkpt lat="17.124080490" lon="-96.451414000">
        <ele>3180.600</ele>
        <time>2020-02-04T21:00:30Z</time>
      </trkpt>
      <trkpt lat="17.124038430" lon="-96.451413140">
        <ele>3179.600</ele>
        <time>2020-02-04T21:00:34Z</time>
      </trkpt>
      <trkpt lat="17.124002710" lon="-96.451398870">
        <ele>3180.600</ele>
        <time>2020-02-04T21:00:38Z</time>
      </trkpt>
      <trkpt lat="17.123966820" lon="-96.451385550">
        <ele>3181.600</ele>
        <time>2020-02-04T21:00:42Z</time>
      </trkpt>
      <trkpt lat="17.123923940" lon="-96.451372950">
        <ele>3185.200</ele>
        <time>2020-02-04T21:00:48Z</time>
      </trkpt>
      <trkpt lat="17.123885100" lon="-96.451375810">
        <ele>3187.200</ele>
        <time>2020-02-04T21:00:53Z</time>
      </trkpt>
      <trkpt lat="17.123841300" lon="-96.451373650">
        <ele>3187.000</ele>
        <time>2020-02-04T21:00:58Z</time>
      </trkpt>
      <trkpt lat="17.123804600" lon="-96.451369110">
        <ele>3187.600</ele>
        <time>2020-02-04T21:01:02Z</time>
      </trkpt>
      <trkpt lat="17.123768640" lon="-96.451352680">
        <ele>3189.500</ele>
        <time>2020-02-04T21:01:06Z</time>
      </trkpt>
      <trkpt lat="17.123731970" lon="-96.451338870">
        <ele>3191.100</ele>
        <time>2020-02-04T21:01:10Z</time>
      </trkpt>
      <trkpt lat="17.123695610" lon="-96.451328930">
        <ele>3190.600</ele>
        <time>2020-02-04T21:01:16Z</time>
      </trkpt>
      <trkpt lat="17.123652570" lon="-96.451334310">
        <ele>3190.700</ele>
        <time>2020-02-04T21:01:21Z</time>
      </trkpt>
      <trkpt lat="17.123614960" lon="-96.451337090">
        <ele>3192.600</ele>
        <time>2020-02-04T21:01:27Z</time>
      </trkpt>
      <trkpt lat="17.123579510" lon="-96.451320220">
        <ele>3194.600</ele>
        <time>2020-02-04T21:01:32Z</time>
      </trkpt>
      <trkpt lat="17.123549870" lon="-96.451297230">
        <ele>3196.100</ele>
        <time>2020-02-04T21:01:36Z</time>
      </trkpt>
      <trkpt lat="17.123517130" lon="-96.451271580">
        <ele>3200.400</ele>
        <time>2020-02-04T21:01:41Z</time>
      </trkpt>
      <trkpt lat="17.123473110" lon="-96.451259560">
        <ele>3199.700</ele>
        <time>2020-02-04T21:01:46Z</time>
      </trkpt>
      <trkpt lat="17.123436690" lon="-96.451253530">
        <ele>3201.400</ele>
        <time>2020-02-04T21:01:50Z</time>
      </trkpt>
      <trkpt lat="17.123395960" lon="-96.451243970">
        <ele>3201.600</ele>
        <time>2020-02-04T21:01:55Z</time>
      </trkpt>
      <trkpt lat="17.123352890" lon="-96.451247170">
        <ele>3202.400</ele>
        <time>2020-02-04T21:02:00Z</time>
      </trkpt>
      <trkpt lat="17.123314680" lon="-96.451225680">
        <ele>3204.500</ele>
        <time>2020-02-04T21:02:05Z</time>
      </trkpt>
      <trkpt lat="17.123280100" lon="-96.451214460">
        <ele>3203.300</ele>
        <time>2020-02-04T21:02:11Z</time>
      </trkpt>
      <trkpt lat="17.123245150" lon="-96.451191110">
        <ele>3207.500</ele>
        <time>2020-02-04T21:02:31Z</time>
      </trkpt>
      <trkpt lat="17.123210840" lon="-96.451177100">
        <ele>3207.000</ele>
        <time>2020-02-04T21:02:35Z</time>
      </trkpt>
      <trkpt lat="17.123172330" lon="-96.451174840">
        <ele>3203.400</ele>
        <time>2020-02-04T21:02:38Z</time>
      </trkpt>
      <trkpt lat="17.123134270" lon="-96.451181540">
        <ele>3200.600</ele>
        <time>2020-02-04T21:02:41Z</time>
      </trkpt>
      <trkpt lat="17.123095440" lon="-96.451183050">
        <ele>3199.700</ele>
        <time>2020-02-04T21:02:44Z</time>
      </trkpt>
      <trkpt lat="17.123050510" lon="-96.451184620">
        <ele>3200.900</ele>
        <time>2020-02-04T21:02:48Z</time>
      </trkpt>
      <trkpt lat="17.123011040" lon="-96.451181050">
        <ele>3197.100</ele>
        <time>2020-02-04T21:02:51Z</time>
      </trkpt>
      <trkpt lat="17.122971350" lon="-96.451179220">
        <ele>3197.400</ele>
        <time>2020-02-04T21:02:56Z</time>
      </trkpt>
      <trkpt lat="17.122935000" lon="-96.451182380">
        <ele>3201.500</ele>
        <time>2020-02-04T21:03:21Z</time>
      </trkpt>
      <trkpt lat="17.122908270" lon="-96.451208500">
        <ele>3203.700</ele>
        <time>2020-02-04T21:04:06Z</time>
      </trkpt>
      <trkpt lat="17.122868960" lon="-96.451205930">
        <ele>3201.400</ele>
        <time>2020-02-04T21:04:31Z</time>
      </trkpt>
      <trkpt lat="17.122828180" lon="-96.451222260">
        <ele>3202.300</ele>
        <time>2020-02-04T21:04:36Z</time>
      </trkpt>
      <trkpt lat="17.122782570" lon="-96.451222410">
        <ele>3201.800</ele>
        <time>2020-02-04T21:04:41Z</time>
      </trkpt>
      <trkpt lat="17.122746580" lon="-96.451234060">
        <ele>3200.400</ele>
        <time>2020-02-04T21:04:45Z</time>
      </trkpt>
      <trkpt lat="17.122709510" lon="-96.451237310">
        <ele>3200.300</ele>
        <time>2020-02-04T21:04:52Z</time>
      </trkpt>
      <trkpt lat="17.122668070" lon="-96.451234530">
        <ele>3200.600</ele>
        <time>2020-02-04T21:04:58Z</time>
      </trkpt>
      <trkpt lat="17.122626090" lon="-96.451242300">
        <ele>3199.400</ele>
        <time>2020-02-04T21:05:03Z</time>
      </trkpt>
      <trkpt lat="17.122579730" lon="-96.451240280">
        <ele>3198.800</ele>
        <time>2020-02-04T21:05:08Z</time>
      </trkpt>
      <trkpt lat="17.122539680" lon="-96.451241660">
        <ele>3198.600</ele>
        <time>2020-02-04T21:05:13Z</time>
      </trkpt>
      <trkpt lat="17.122502470" lon="-96.451246880">
        <ele>3197.000</ele>
        <time>2020-02-04T21:05:17Z</time>
      </trkpt>
      <trkpt lat="17.122467830" lon="-96.451260650">
        <ele>3196.000</ele>
        <time>2020-02-04T21:05:20Z</time>
      </trkpt>
      <trkpt lat="17.122424990" lon="-96.451265370">
        <ele>3194.400</ele>
        <time>2020-02-04T21:05:24Z</time>
      </trkpt>
      <trkpt lat="17.122384840" lon="-96.451271140">
        <ele>3193.500</ele>
        <time>2020-02-04T21:05:28Z</time>
      </trkpt>
      <trkpt lat="17.122348700" lon="-96.451284930">
        <ele>3192.400</ele>
        <time>2020-02-04T21:05:32Z</time>
      </trkpt>
      <trkpt lat="17.122311310" lon="-96.451291730">
        <ele>3193.900</ele>
        <time>2020-02-04T21:05:36Z</time>
      </trkpt>
      <trkpt lat="17.122274260" lon="-96.451292650">
        <ele>3194.300</ele>
        <time>2020-02-04T21:05:40Z</time>
      </trkpt>
      <trkpt lat="17.122235140" lon="-96.451287850">
        <ele>3193.900</ele>
        <time>2020-02-04T21:05:44Z</time>
      </trkpt>
      <trkpt lat="17.122196960" lon="-96.451287430">
        <ele>3193.900</ele>
        <time>2020-02-04T21:05:48Z</time>
      </trkpt>
      <trkpt lat="17.122158480" lon="-96.451287140">
        <ele>3194.100</ele>
        <time>2020-02-04T21:05:52Z</time>
      </trkpt>
      <trkpt lat="17.122120100" lon="-96.451299580">
        <ele>3194.100</ele>
        <time>2020-02-04T21:05:57Z</time>
      </trkpt>
      <trkpt lat="17.122078370" lon="-96.451311800">
        <ele>3194.800</ele>
        <time>2020-02-04T21:06:03Z</time>
      </trkpt>
      <trkpt lat="17.122042040" lon="-96.451320340">
        <ele>3192.800</ele>
        <time>2020-02-04T21:06:07Z</time>
      </trkpt>
      <trkpt lat="17.122002930" lon="-96.451325080">
        <ele>3191.600</ele>
        <time>2020-02-04T21:06:12Z</time>
      </trkpt>
      <trkpt lat="17.121964130" lon="-96.451334180">
        <ele>3190.400</ele>
        <time>2020-02-04T21:06:17Z</time>
      </trkpt>
      <trkpt lat="17.121926200" lon="-96.451345910">
        <ele>3190.900</ele>
        <time>2020-02-04T21:06:22Z</time>
      </trkpt>
      <trkpt lat="17.121885140" lon="-96.451346320">
        <ele>3189.500</ele>
        <time>2020-02-04T21:06:27Z</time>
      </trkpt>
      <trkpt lat="17.121841630" lon="-96.451358630">
        <ele>3188.200</ele>
        <time>2020-02-04T21:06:32Z</time>
      </trkpt>
      <trkpt lat="17.121804080" lon="-96.451369770">
        <ele>3188.600</ele>
        <time>2020-02-04T21:06:37Z</time>
      </trkpt>
      <trkpt lat="17.121767870" lon="-96.451376090">
        <ele>3187.200</ele>
        <time>2020-02-04T21:06:41Z</time>
      </trkpt>
      <trkpt lat="17.121731700" lon="-96.451378030">
        <ele>3187.000</ele>
        <time>2020-02-04T21:06:46Z</time>
      </trkpt>
      <trkpt lat="17.121693830" lon="-96.451378880">
        <ele>3188.800</ele>
        <time>2020-02-04T21:07:08Z</time>
      </trkpt>
      <trkpt lat="17.121649510" lon="-96.451396530">
        <ele>3188.800</ele>
        <time>2020-02-04T21:07:12Z</time>
      </trkpt>
      <trkpt lat="17.121612840" lon="-96.451396330">
        <ele>3189.900</ele>
        <time>2020-02-04T21:07:15Z</time>
      </trkpt>
      <trkpt lat="17.121573980" lon="-96.451391810">
        <ele>3190.500</ele>
        <time>2020-02-04T21:07:18Z</time>
      </trkpt>
      <trkpt lat="17.121535570" lon="-96.451393560">
        <ele>3190.800</ele>
        <time>2020-02-04T21:07:22Z</time>
      </trkpt>
      <trkpt lat="17.121489730" lon="-96.451398400">
        <ele>3191.200</ele>
        <time>2020-02-04T21:07:27Z</time>
      </trkpt>
      <trkpt lat="17.121454530" lon="-96.451412320">
        <ele>3190.900</ele>
        <time>2020-02-04T21:07:31Z</time>
      </trkpt>
      <trkpt lat="17.121412740" lon="-96.451422730">
        <ele>3190.600</ele>
        <time>2020-02-04T21:07:36Z</time>
      </trkpt>
      <trkpt lat="17.121375750" lon="-96.451432770">
        <ele>3190.100</ele>
        <time>2020-02-04T21:07:40Z</time>
      </trkpt>
      <trkpt lat="17.121333950" lon="-96.451434600">
        <ele>3190.300</ele>
        <time>2020-02-04T21:07:45Z</time>
      </trkpt>
      <trkpt lat="17.121294440" lon="-96.451446590">
        <ele>3189.600</ele>
        <time>2020-02-04T21:07:50Z</time>
      </trkpt>
      <trkpt lat="17.121250820" lon="-96.451458600">
        <ele>3189.500</ele>
        <time>2020-02-04T21:07:55Z</time>
      </trkpt>
      <trkpt lat="17.121213150" lon="-96.451464960">
        <ele>3190.100</ele>
        <time>2020-02-04T21:08:00Z</time>
      </trkpt>
      <trkpt lat="17.121172670" lon="-96.451471040">
        <ele>3188.700</ele>
        <time>2020-02-04T21:08:05Z</time>
      </trkpt>
      <trkpt lat="17.121135890" lon="-96.451486160">
        <ele>3188.300</ele>
        <time>2020-02-04T21:08:09Z</time>
      </trkpt>
      <trkpt lat="17.121099550" lon="-96.451491550">
        <ele>3188.600</ele>
        <time>2020-02-04T21:08:13Z</time>
      </trkpt>
      <trkpt lat="17.121064370" lon="-96.451500590">
        <ele>3188.300</ele>
        <time>2020-02-04T21:08:17Z</time>
      </trkpt>
      <trkpt lat="17.121025390" lon="-96.451509510">
        <ele>3188.600</ele>
        <time>2020-02-04T21:08:23Z</time>
      </trkpt>
      <trkpt lat="17.120990410" lon="-96.451529450">
        <ele>3188.600</ele>
        <time>2020-02-04T21:08:28Z</time>
      </trkpt>
      <trkpt lat="17.120950150" lon="-96.451542710">
        <ele>3189.100</ele>
        <time>2020-02-04T21:08:36Z</time>
      </trkpt>
      <trkpt lat="17.120920230" lon="-96.451567890">
        <ele>3189.000</ele>
        <time>2020-02-04T21:08:40Z</time>
      </trkpt>
      <trkpt lat="17.120885520" lon="-96.451586880">
        <ele>3187.700</ele>
        <time>2020-02-04T21:08:43Z</time>
      </trkpt>
      <trkpt lat="17.120857900" lon="-96.451611560">
        <ele>3187.900</ele>
        <time>2020-02-04T21:08:47Z</time>
      </trkpt>
      <trkpt lat="17.120831580" lon="-96.451646570">
        <ele>3186.200</ele>
        <time>2020-02-04T21:08:51Z</time>
      </trkpt>
      <trkpt lat="17.120813350" lon="-96.451681960">
        <ele>3185.600</ele>
        <time>2020-02-04T21:08:56Z</time>
      </trkpt>
      <trkpt lat="17.120791620" lon="-96.451713630">
        <ele>3185.000</ele>
        <time>2020-02-04T21:09:59Z</time>
      </trkpt>
      <trkpt lat="17.120761440" lon="-96.451739820">
        <ele>3183.800</ele>
        <time>2020-02-04T21:10:04Z</time>
      </trkpt>
      <trkpt lat="17.120730380" lon="-96.451770700">
        <ele>3182.700</ele>
        <time>2020-02-04T21:10:09Z</time>
      </trkpt>
      <trkpt lat="17.120698950" lon="-96.451798240">
        <ele>3181.300</ele>
        <time>2020-02-04T21:10:14Z</time>
      </trkpt>
      <trkpt lat="17.120671350" lon="-96.451822790">
        <ele>3180.700</ele>
        <time>2020-02-04T21:10:18Z</time>
      </trkpt>
      <trkpt lat="17.120647940" lon="-96.451852660">
        <ele>3180.700</ele>
        <time>2020-02-04T21:10:23Z</time>
      </trkpt>
      <trkpt lat="17.120623480" lon="-96.451882780">
        <ele>3181.000</ele>
        <time>2020-02-04T21:10:28Z</time>
      </trkpt>
      <trkpt lat="17.120595740" lon="-96.451916040">
        <ele>3180.300</ele>
        <time>2020-02-04T21:10:33Z</time>
      </trkpt>
      <trkpt lat="17.120577470" lon="-96.451951120">
        <ele>3179.700</ele>
        <time>2020-02-04T21:10:37Z</time>
      </trkpt>
      <trkpt lat="17.120555950" lon="-96.451985990">
        <ele>3179.000</ele>
        <time>2020-02-04T21:10:41Z</time>
      </trkpt>
      <trkpt lat="17.120532780" lon="-96.452025290">
        <ele>3179.000</ele>
        <time>2020-02-04T21:10:46Z</time>
      </trkpt>
      <trkpt lat="17.120514170" lon="-96.452067620">
        <ele>3178.500</ele>
        <time>2020-02-04T21:10:51Z</time>
      </trkpt>
      <trkpt lat="17.120493540" lon="-96.452100140">
        <ele>3177.600</ele>
        <time>2020-02-04T21:10:55Z</time>
      </trkpt>
      <trkpt lat="17.120467350" lon="-96.452126380">
        <ele>3176.900</ele>
        <time>2020-02-04T21:10:59Z</time>
      </trkpt>
      <trkpt lat="17.120440120" lon="-96.452160400">
        <ele>3177.400</ele>
        <time>2020-02-04T21:11:04Z</time>
      </trkpt>
      <trkpt lat="17.120421350" lon="-96.452192570">
        <ele>3177.300</ele>
        <time>2020-02-04T21:11:08Z</time>
      </trkpt>
      <trkpt lat="17.120401830" lon="-96.452227630">
        <ele>3176.700</ele>
        <time>2020-02-04T21:11:13Z</time>
      </trkpt>
      <trkpt lat="17.120378140" lon="-96.452257970">
        <ele>3177.500</ele>
        <time>2020-02-04T21:11:18Z</time>
      </trkpt>
      <trkpt lat="17.120354550" lon="-96.452288440">
        <ele>3176.800</ele>
        <time>2020-02-04T21:11:23Z</time>
      </trkpt>
      <trkpt lat="17.120331350" lon="-96.452321480">
        <ele>3176.300</ele>
        <time>2020-02-04T21:11:28Z</time>
      </trkpt>
      <trkpt lat="17.120305990" lon="-96.452358030">
        <ele>3174.100</ele>
        <time>2020-02-04T21:11:33Z</time>
      </trkpt>
      <trkpt lat="17.120277560" lon="-96.452396830">
        <ele>3174.100</ele>
        <time>2020-02-04T21:11:38Z</time>
      </trkpt>
      <trkpt lat="17.120255140" lon="-96.452428280">
        <ele>3174.100</ele>
        <time>2020-02-04T21:11:42Z</time>
      </trkpt>
      <trkpt lat="17.120232220" lon="-96.452463400">
        <ele>3173.400</ele>
        <time>2020-02-04T21:11:46Z</time>
      </trkpt>
      <trkpt lat="17.120204060" lon="-96.452496390">
        <ele>3173.000</ele>
        <time>2020-02-04T21:11:51Z</time>
      </trkpt>
      <trkpt lat="17.120181910" lon="-96.452536030">
        <ele>3173.700</ele>
        <time>2020-02-04T21:11:56Z</time>
      </trkpt>
      <trkpt lat="17.120156460" lon="-96.452566010">
        <ele>3172.800</ele>
        <time>2020-02-04T21:12:01Z</time>
      </trkpt>
      <trkpt lat="17.120132790" lon="-96.452605450">
        <ele>3171.500</ele>
        <time>2020-02-04T21:12:06Z</time>
      </trkpt>
      <trkpt lat="17.120113230" lon="-96.452642030">
        <ele>3171.300</ele>
        <time>2020-02-04T21:12:11Z</time>
      </trkpt>
      <trkpt lat="17.120088950" lon="-96.452676130">
        <ele>3171.000</ele>
        <time>2020-02-04T21:12:16Z</time>
      </trkpt>
      <trkpt lat="17.120070950" lon="-96.452715070">
        <ele>3172.900</ele>
        <time>2020-02-04T21:12:21Z</time>
      </trkpt>
      <trkpt lat="17.120042440" lon="-96.452751100">
        <ele>3170.800</ele>
        <time>2020-02-04T21:12:26Z</time>
      </trkpt>
      <trkpt lat="17.120020570" lon="-96.452781370">
        <ele>3171.000</ele>
        <time>2020-02-04T21:12:30Z</time>
      </trkpt>
      <trkpt lat="17.119997880" lon="-96.452820070">
        <ele>3171.100</ele>
        <time>2020-02-04T21:12:35Z</time>
      </trkpt>
      <trkpt lat="17.119976850" lon="-96.452851840">
        <ele>3170.200</ele>
        <time>2020-02-04T21:12:39Z</time>
      </trkpt>
      <trkpt lat="17.119958070" lon="-96.452892760">
        <ele>3170.100</ele>
        <time>2020-02-04T21:12:44Z</time>
      </trkpt>
      <trkpt lat="17.119940330" lon="-96.452935790">
        <ele>3169.200</ele>
        <time>2020-02-04T21:12:49Z</time>
      </trkpt>
      <trkpt lat="17.119917210" lon="-96.452970590">
        <ele>3168.600</ele>
        <time>2020-02-04T21:12:53Z</time>
      </trkpt>
      <trkpt lat="17.119892170" lon="-96.453004850">
        <ele>3166.500</ele>
        <time>2020-02-04T21:12:58Z</time>
      </trkpt>
      <trkpt lat="17.119873270" lon="-96.453036980">
        <ele>3165.500</ele>
        <time>2020-02-04T21:13:02Z</time>
      </trkpt>
      <trkpt lat="17.119854540" lon="-96.453069540">
        <ele>3165.800</ele>
        <time>2020-02-04T21:13:06Z</time>
      </trkpt>
      <trkpt lat="17.119830480" lon="-96.453102470">
        <ele>3165.900</ele>
        <time>2020-02-04T21:13:10Z</time>
      </trkpt>
      <trkpt lat="17.119803550" lon="-96.453136450">
        <ele>3165.900</ele>
        <time>2020-02-04T21:13:15Z</time>
      </trkpt>
      <trkpt lat="17.119776090" lon="-96.453164850">
        <ele>3165.100</ele>
        <time>2020-02-04T21:13:19Z</time>
      </trkpt>
      <trkpt lat="17.119743950" lon="-96.453196200">
        <ele>3163.700</ele>
        <time>2020-02-04T21:13:24Z</time>
      </trkpt>
      <trkpt lat="17.119715710" lon="-96.453219910">
        <ele>3163.300</ele>
        <time>2020-02-04T21:13:28Z</time>
      </trkpt>
      <trkpt lat="17.119680310" lon="-96.453234510">
        <ele>3163.600</ele>
        <time>2020-02-04T21:13:33Z</time>
      </trkpt>
      <trkpt lat="17.119638330" lon="-96.453248510">
        <ele>3164.300</ele>
        <time>2020-02-04T21:13:38Z</time>
      </trkpt>
      <trkpt lat="17.119603420" lon="-96.453264840">
        <ele>3163.700</ele>
        <time>2020-02-04T21:13:42Z</time>
      </trkpt>
      <trkpt lat="17.119569170" lon="-96.453277460">
        <ele>3164.100</ele>
        <time>2020-02-04T21:13:46Z</time>
      </trkpt>
      <trkpt lat="17.119527410" lon="-96.453299700">
        <ele>3163.500</ele>
        <time>2020-02-04T21:13:50Z</time>
      </trkpt>
      <trkpt lat="17.119496420" lon="-96.453325590">
        <ele>3164.300</ele>
        <time>2020-02-04T21:13:54Z</time>
      </trkpt>
      <trkpt lat="17.119473280" lon="-96.453356080">
        <ele>3164.000</ele>
        <time>2020-02-04T21:14:06Z</time>
      </trkpt>
      <trkpt lat="17.119433850" lon="-96.453375720">
        <ele>3164.000</ele>
        <time>2020-02-04T21:14:10Z</time>
      </trkpt>
      <trkpt lat="17.119391270" lon="-96.453391950">
        <ele>3163.600</ele>
        <time>2020-02-04T21:14:14Z</time>
      </trkpt>
      <trkpt lat="17.119348070" lon="-96.453401530">
        <ele>3164.200</ele>
        <time>2020-02-04T21:14:18Z</time>
      </trkpt>
      <trkpt lat="17.119320500" lon="-96.453430230">
        <ele>3163.800</ele>
        <time>2020-02-04T21:14:21Z</time>
      </trkpt>
      <trkpt lat="17.119284750" lon="-96.453446260">
        <ele>3163.600</ele>
        <time>2020-02-04T21:14:26Z</time>
      </trkpt>
      <trkpt lat="17.119253630" lon="-96.453468190">
        <ele>3163.500</ele>
        <time>2020-02-04T21:14:30Z</time>
      </trkpt>
      <trkpt lat="17.119218580" lon="-96.453483460">
        <ele>3163.900</ele>
        <time>2020-02-04T21:14:35Z</time>
      </trkpt>
      <trkpt lat="17.119188800" lon="-96.453509430">
        <ele>3163.500</ele>
        <time>2020-02-04T21:14:39Z</time>
      </trkpt>
      <trkpt lat="17.119156300" lon="-96.453533120">
        <ele>3163.800</ele>
        <time>2020-02-04T21:14:44Z</time>
      </trkpt>
      <trkpt lat="17.119124710" lon="-96.453559940">
        <ele>3164.800</ele>
        <time>2020-02-04T21:14:49Z</time>
      </trkpt>
      <trkpt lat="17.119107820" lon="-96.453593280">
        <ele>3164.000</ele>
        <time>2020-02-04T21:14:52Z</time>
      </trkpt>
      <trkpt lat="17.119093960" lon="-96.453630600">
        <ele>3163.600</ele>
        <time>2020-02-04T21:14:55Z</time>
      </trkpt>
      <trkpt lat="17.119078120" lon="-96.453669320">
        <ele>3163.300</ele>
        <time>2020-02-04T21:14:59Z</time>
      </trkpt>
      <trkpt lat="17.119060970" lon="-96.453710170">
        <ele>3163.900</ele>
        <time>2020-02-04T21:15:03Z</time>
      </trkpt>
      <trkpt lat="17.119049210" lon="-96.453748640">
        <ele>3163.200</ele>
        <time>2020-02-04T21:15:07Z</time>
      </trkpt>
      <trkpt lat="17.119037450" lon="-96.453795360">
        <ele>3163.300</ele>
        <time>2020-02-04T21:15:11Z</time>
      </trkpt>
      <trkpt lat="17.119028990" lon="-96.453841450">
        <ele>3163.300</ele>
        <time>2020-02-04T21:15:15Z</time>
      </trkpt>
      <trkpt lat="17.119022920" lon="-96.453889710">
        <ele>3163.900</ele>
        <time>2020-02-04T21:15:19Z</time>
      </trkpt>
      <trkpt lat="17.119012020" lon="-96.453930380">
        <ele>3163.400</ele>
        <time>2020-02-04T21:15:23Z</time>
      </trkpt>
      <trkpt lat="17.119007440" lon="-96.453968150">
        <ele>3162.500</ele>
        <time>2020-02-04T21:15:27Z</time>
      </trkpt>
      <trkpt lat="17.119005460" lon="-96.454008820">
        <ele>3162.500</ele>
        <time>2020-02-04T21:15:31Z</time>
      </trkpt>
      <trkpt lat="17.119002990" lon="-96.454050240">
        <ele>3162.400</ele>
        <time>2020-02-04T21:15:35Z</time>
      </trkpt>
      <trkpt lat="17.118998220" lon="-96.454091370">
        <ele>3161.700</ele>
        <time>2020-02-04T21:15:39Z</time>
      </trkpt>
      <trkpt lat="17.118994700" lon="-96.454130350">
        <ele>3161.100</ele>
        <time>2020-02-04T21:15:43Z</time>
      </trkpt>
      <trkpt lat="17.118995000" lon="-96.454172670">
        <ele>3160.200</ele>
        <time>2020-02-04T21:15:48Z</time>
      </trkpt>
      <trkpt lat="17.118981730" lon="-96.454211860">
        <ele>3160.000</ele>
        <time>2020-02-04T21:15:52Z</time>
      </trkpt>
      <trkpt lat="17.118967030" lon="-96.454254130">
        <ele>3159.500</ele>
        <time>2020-02-04T21:15:57Z</time>
      </trkpt>
      <trkpt lat="17.118961020" lon="-96.454298440">
        <ele>3158.800</ele>
        <time>2020-02-04T21:16:02Z</time>
      </trkpt>
      <trkpt lat="17.118950590" lon="-96.454336330">
        <ele>3159.000</ele>
        <time>2020-02-04T21:16:06Z</time>
      </trkpt>
      <trkpt lat="17.118932040" lon="-96.454370190">
        <ele>3159.500</ele>
        <time>2020-02-04T21:16:10Z</time>
      </trkpt>
      <trkpt lat="17.118916920" lon="-96.454412880">
        <ele>3159.800</ele>
        <time>2020-02-04T21:16:14Z</time>
      </trkpt>
      <trkpt lat="17.118912600" lon="-96.454457750">
        <ele>3159.400</ele>
        <time>2020-02-04T21:16:18Z</time>
      </trkpt>
      <trkpt lat="17.118911410" lon="-96.454503000">
        <ele>3159.100</ele>
        <time>2020-02-04T21:16:22Z</time>
      </trkpt>
      <trkpt lat="17.118902500" lon="-96.454541920">
        <ele>3159.100</ele>
        <time>2020-02-04T21:16:26Z</time>
      </trkpt>
      <trkpt lat="17.118893880" lon="-96.454580520">
        <ele>3157.700</ele>
        <time>2020-02-04T21:16:30Z</time>
      </trkpt>
      <trkpt lat="17.118881890" lon="-96.454618000">
        <ele>3157.800</ele>
        <time>2020-02-04T21:16:34Z</time>
      </trkpt>
      <trkpt lat="17.118867080" lon="-96.454656260">
        <ele>3156.300</ele>
        <time>2020-02-04T21:16:38Z</time>
      </trkpt>
      <trkpt lat="17.118841900" lon="-96.454686190">
        <ele>3155.000</ele>
        <time>2020-02-04T21:16:43Z</time>
      </trkpt>
      <trkpt lat="17.118811080" lon="-96.454710500">
        <ele>3155.100</ele>
        <time>2020-02-04T21:16:49Z</time>
      </trkpt>
      <trkpt lat="17.118770190" lon="-96.454714680">
        <ele>3155.200</ele>
        <time>2020-02-04T21:16:54Z</time>
      </trkpt>
      <trkpt lat="17.118727510" lon="-96.454710480">
        <ele>3155.200</ele>
        <time>2020-02-04T21:16:59Z</time>
      </trkpt>
      <trkpt lat="17.118683860" lon="-96.454698160">
        <ele>3154.700</ele>
        <time>2020-02-04T21:17:04Z</time>
      </trkpt>
      <trkpt lat="17.118639000" lon="-96.454690810">
        <ele>3154.700</ele>
        <time>2020-02-04T21:17:09Z</time>
      </trkpt>
      <trkpt lat="17.118598450" lon="-96.454685800">
        <ele>3154.500</ele>
        <time>2020-02-04T21:17:13Z</time>
      </trkpt>
      <trkpt lat="17.118556120" lon="-96.454676590">
        <ele>3154.300</ele>
        <time>2020-02-04T21:17:18Z</time>
      </trkpt>
      <trkpt lat="17.118519510" lon="-96.454668860">
        <ele>3154.000</ele>
        <time>2020-02-04T21:17:22Z</time>
      </trkpt>
      <trkpt lat="17.118484560" lon="-96.454655420">
        <ele>3154.400</ele>
        <time>2020-02-04T21:17:26Z</time>
      </trkpt>
      <trkpt lat="17.118443910" lon="-96.454642280">
        <ele>3155.000</ele>
        <time>2020-02-04T21:17:30Z</time>
      </trkpt>
      <trkpt lat="17.118407500" lon="-96.454634140">
        <ele>3155.700</ele>
        <time>2020-02-04T21:17:34Z</time>
      </trkpt>
      <trkpt lat="17.118365760" lon="-96.454621510">
        <ele>3156.000</ele>
        <time>2020-02-04T21:17:38Z</time>
      </trkpt>
      <trkpt lat="17.118324680" lon="-96.454617620">
        <ele>3155.900</ele>
        <time>2020-02-04T21:17:42Z</time>
      </trkpt>
      <trkpt lat="17.118284320" lon="-96.454613950">
        <ele>3155.800</ele>
        <time>2020-02-04T21:17:46Z</time>
      </trkpt>
      <trkpt lat="17.118243630" lon="-96.454604280">
        <ele>3155.500</ele>
        <time>2020-02-04T21:17:52Z</time>
      </trkpt>
      <trkpt lat="17.118204400" lon="-96.454590650">
        <ele>3156.300</ele>
        <time>2020-02-04T21:17:57Z</time>
      </trkpt>
      <trkpt lat="17.118161900" lon="-96.454584840">
        <ele>3156.900</ele>
        <time>2020-02-04T21:18:02Z</time>
      </trkpt>
      <trkpt lat="17.118125590" lon="-96.454582130">
        <ele>3157.700</ele>
        <time>2020-02-04T21:18:06Z</time>
      </trkpt>
      <trkpt lat="17.118089680" lon="-96.454572710">
        <ele>3158.600</ele>
        <time>2020-02-04T21:18:10Z</time>
      </trkpt>
      <trkpt lat="17.118052360" lon="-96.454560250">
        <ele>3160.100</ele>
        <time>2020-02-04T21:18:15Z</time>
      </trkpt>
      <trkpt lat="17.118014470" lon="-96.454555700">
        <ele>3161.200</ele>
        <time>2020-02-04T21:18:19Z</time>
      </trkpt>
      <trkpt lat="17.117973180" lon="-96.454555180">
        <ele>3160.900</ele>
        <time>2020-02-04T21:18:23Z</time>
      </trkpt>
      <trkpt lat="17.117937550" lon="-96.454548180">
        <ele>3161.500</ele>
        <time>2020-02-04T21:18:27Z</time>
      </trkpt>
      <trkpt lat="17.117893990" lon="-96.454544100">
        <ele>3160.300</ele>
        <time>2020-02-04T21:18:31Z</time>
      </trkpt>
      <trkpt lat="17.117854220" lon="-96.454544160">
        <ele>3159.600</ele>
        <time>2020-02-04T21:18:34Z</time>
      </trkpt>
      <trkpt lat="17.117810360" lon="-96.454545530">
        <ele>3159.000</ele>
        <time>2020-02-04T21:18:38Z</time>
      </trkpt>
      <trkpt lat="17.117770180" lon="-96.454550140">
        <ele>3158.300</ele>
        <time>2020-02-04T21:18:42Z</time>
      </trkpt>
      <trkpt lat="17.117727370" lon="-96.454535380">
        <ele>3160.300</ele>
        <time>2020-02-04T21:18:47Z</time>
      </trkpt>
      <trkpt lat="17.117685760" lon="-96.454548180">
        <ele>3159.900</ele>
        <time>2020-02-04T21:18:51Z</time>
      </trkpt>
      <trkpt lat="17.117650110" lon="-96.454560300">
        <ele>3158.800</ele>
        <time>2020-02-04T21:18:54Z</time>
      </trkpt>
      <trkpt lat="17.117617390" lon="-96.454577950">
        <ele>3158.800</ele>
        <time>2020-02-04T21:18:58Z</time>
      </trkpt>
      <trkpt lat="17.117586960" lon="-96.454602830">
        <ele>3159.100</ele>
        <time>2020-02-04T21:19:02Z</time>
      </trkpt>
      <trkpt lat="17.117552960" lon="-96.454623940">
        <ele>3159.000</ele>
        <time>2020-02-04T21:19:06Z</time>
      </trkpt>
      <trkpt lat="17.117518600" lon="-96.454648410">
        <ele>3158.000</ele>
        <time>2020-02-04T21:19:10Z</time>
      </trkpt>
      <trkpt lat="17.117484650" lon="-96.454669790">
        <ele>3156.500</ele>
        <time>2020-02-04T21:19:14Z</time>
      </trkpt>
      <trkpt lat="17.117463480" lon="-96.454701590">
        <ele>3156.400</ele>
        <time>2020-02-04T21:19:18Z</time>
      </trkpt>
      <trkpt lat="17.117427070" lon="-96.454721440">
        <ele>3156.600</ele>
        <time>2020-02-04T21:19:23Z</time>
      </trkpt>
      <trkpt lat="17.117388380" lon="-96.454745850">
        <ele>3155.800</ele>
        <time>2020-02-04T21:19:28Z</time>
      </trkpt>
      <trkpt lat="17.117351970" lon="-96.454762540">
        <ele>3156.000</ele>
        <time>2020-02-04T21:19:32Z</time>
      </trkpt>
      <trkpt lat="17.117312630" lon="-96.454780120">
        <ele>3156.700</ele>
        <time>2020-02-04T21:19:37Z</time>
      </trkpt>
      <trkpt lat="17.117267420" lon="-96.454780970">
        <ele>3157.100</ele>
        <time>2020-02-04T21:19:42Z</time>
      </trkpt>
      <trkpt lat="17.117227970" lon="-96.454778670">
        <ele>3157.200</ele>
        <time>2020-02-04T21:19:46Z</time>
      </trkpt>
      <trkpt lat="17.117189990" lon="-96.454773310">
        <ele>3157.600</ele>
        <time>2020-02-04T21:19:50Z</time>
      </trkpt>
      <trkpt lat="17.117151850" lon="-96.454776890">
        <ele>3156.900</ele>
        <time>2020-02-04T21:19:54Z</time>
      </trkpt>
      <trkpt lat="17.117116820" lon="-96.454798720">
        <ele>3156.300</ele>
        <time>2020-02-04T21:20:00Z</time>
      </trkpt>
      <trkpt lat="17.117083090" lon="-96.454816860">
        <ele>3156.800</ele>
        <time>2020-02-04T21:20:06Z</time>
      </trkpt>
      <trkpt lat="17.117048870" lon="-96.454831180">
        <ele>3157.700</ele>
        <time>2020-02-04T21:20:19Z</time>
      </trkpt>
      <trkpt lat="17.117037620" lon="-96.454817440">
        <ele>3158.200</ele>
        <time>2020-02-04T21:21:21Z</time>
      </trkpt>
    </trkseg>
  </trk>
</gpx>
